<?xml version="1.0" encoding="UTF-8" standalone="no" ?>
<gpx xmlns="http://www.topografix.com/GPX/1/1" xmlns:xsi="http://www.w3.org/2001/XMLSchema-instance" xsi:schemaLocation="http://www.topografix.com/GPX/1/1 http://www.topografix.com/GPX/1/1/gpx.xsd" version="1.1" creator="VisuGPX - https://www.visugpx.com">
  <metadata>
    <name>Chantemer les Blès</name>
    <desc><![CDATA[Chantemer les Blès
]]></desc>
  </metadata>
  <trk>
    <name><![CDATA[Chantemerle]]></name>
    <trkseg>
      <trkpt lat="45.11568" lon="4.96427">
        <ele>255.49800109863</ele>
        <time>2010-02-26T12:17:05Z</time>
      </trkpt>
      <trkpt lat="45.11564" lon="4.9643">
        <ele>254.30799865723</ele>
        <time>2010-02-26T12:17:26Z</time>
      </trkpt>
      <trkpt lat="45.11563" lon="4.96431">
        <ele>254.20500183106</ele>
        <time>2010-02-26T12:17:27Z</time>
      </trkpt>
      <trkpt lat="45.11562" lon="4.96444">
        <ele>253.41299438477</ele>
        <time>2010-02-26T12:17:31Z</time>
      </trkpt>
      <trkpt lat="45.11567" lon="4.96452">
        <ele>253.27499389648</ele>
        <time>2010-02-26T12:17:34Z</time>
      </trkpt>
      <trkpt lat="45.11575" lon="4.96452">
        <ele>253.52699279785</ele>
        <time>2010-02-26T12:17:39Z</time>
      </trkpt>
      <trkpt lat="45.1158" lon="4.96461">
        <ele>253.17199707031</ele>
        <time>2010-02-26T12:17:45Z</time>
      </trkpt>
      <trkpt lat="45.11579" lon="4.96473">
        <ele>252.80599975586</ele>
        <time>2010-02-26T12:17:47Z</time>
      </trkpt>
      <trkpt lat="45.11575" lon="4.9649">
        <ele>252.08299255371</ele>
        <time>2010-02-26T12:17:51Z</time>
      </trkpt>
      <trkpt lat="45.11565" lon="4.96484">
        <ele>251.45599365234</ele>
        <time>2010-02-26T12:17:55Z</time>
      </trkpt>
      <trkpt lat="45.11539" lon="4.96437">
        <ele>251.74200439453</ele>
        <time>2010-02-26T12:18:04Z</time>
      </trkpt>
      <trkpt lat="45.11533" lon="4.96426">
        <ele>252.35299682617</ele>
        <time>2010-02-26T12:18:06Z</time>
      </trkpt>
      <trkpt lat="45.11505" lon="4.9638">
        <ele>252.11999511719</ele>
        <time>2010-02-26T12:18:14Z</time>
      </trkpt>
      <trkpt lat="45.11471" lon="4.96327">
        <ele>252.94799804688</ele>
        <time>2010-02-26T12:18:23Z</time>
      </trkpt>
      <trkpt lat="45.11442" lon="4.96279">
        <ele>253.11700439453</ele>
        <time>2010-02-26T12:18:31Z</time>
      </trkpt>
      <trkpt lat="45.11422" lon="4.96239">
        <ele>253.30700683594</ele>
        <time>2010-02-26T12:18:37Z</time>
      </trkpt>
      <trkpt lat="45.11405" lon="4.96205">
        <ele>253.73399353027</ele>
        <time>2010-02-26T12:18:42Z</time>
      </trkpt>
      <trkpt lat="45.11376" lon="4.96145">
        <ele>252.17500305176</ele>
        <time>2010-02-26T12:18:50Z</time>
      </trkpt>
      <trkpt lat="45.11347" lon="4.96087">
        <ele>251.29499816894</ele>
        <time>2010-02-26T12:18:57Z</time>
      </trkpt>
      <trkpt lat="45.11308" lon="4.96025">
        <ele>250.66600036621</ele>
        <time>2010-02-26T12:19:05Z</time>
      </trkpt>
      <trkpt lat="45.11271" lon="4.95961">
        <ele>249.4640045166</ele>
        <time>2010-02-26T12:19:13Z</time>
      </trkpt>
      <trkpt lat="45.11238" lon="4.95905">
        <ele>248.87899780273</ele>
        <time>2010-02-26T12:19:20Z</time>
      </trkpt>
      <trkpt lat="45.11209" lon="4.95865">
        <ele>247.86000061035</ele>
        <time>2010-02-26T12:19:26Z</time>
      </trkpt>
      <trkpt lat="45.11194" lon="4.95844">
        <ele>248.12399291992</ele>
        <time>2010-02-26T12:19:30Z</time>
      </trkpt>
      <trkpt lat="45.11188" lon="4.95836">
        <ele>247.97200012207</ele>
        <time>2010-02-26T12:19:32Z</time>
      </trkpt>
      <trkpt lat="45.11184" lon="4.95835">
        <ele>247.95399475098</ele>
        <time>2010-02-26T12:19:35Z</time>
      </trkpt>
      <trkpt lat="45.11187" lon="4.95841">
        <ele>247.8690032959</ele>
        <time>2010-02-26T12:19:37Z</time>
      </trkpt>
      <trkpt lat="45.11205" lon="4.95872">
        <ele>247.71600341797</ele>
        <time>2010-02-26T12:19:42Z</time>
      </trkpt>
      <trkpt lat="45.11224" lon="4.95903">
        <ele>248.08299255371</ele>
        <time>2010-02-26T12:19:46Z</time>
      </trkpt>
      <trkpt lat="45.11249" lon="4.9594">
        <ele>248.06500244141</ele>
        <time>2010-02-26T12:19:51Z</time>
      </trkpt>
      <trkpt lat="45.11259" lon="4.95955">
        <ele>248.54100036621</ele>
        <time>2010-02-26T12:19:53Z</time>
      </trkpt>
      <trkpt lat="45.11264" lon="4.95963">
        <ele>248.5299987793</ele>
        <time>2010-02-26T12:19:54Z</time>
      </trkpt>
      <trkpt lat="45.113" lon="4.96025">
        <ele>248.93200683594</ele>
        <time>2010-02-26T12:20:02Z</time>
      </trkpt>
      <trkpt lat="45.11341" lon="4.96091">
        <ele>248.98899841309</ele>
        <time>2010-02-26T12:20:11Z</time>
      </trkpt>
      <trkpt lat="45.11374" lon="4.96155">
        <ele>249.86399841309</ele>
        <time>2010-02-26T12:20:19Z</time>
      </trkpt>
      <trkpt lat="45.11416" lon="4.96242">
        <ele>250.71699523926</ele>
        <time>2010-02-26T12:20:30Z</time>
      </trkpt>
      <trkpt lat="45.1145" lon="4.96305">
        <ele>250.09300231934</ele>
        <time>2010-02-26T12:20:38Z</time>
      </trkpt>
      <trkpt lat="45.11493" lon="4.96369">
        <ele>248.32800292969</ele>
        <time>2010-02-26T12:20:46Z</time>
      </trkpt>
      <trkpt lat="45.11518" lon="4.96409">
        <ele>247.69299316406</ele>
        <time>2010-02-26T12:20:51Z</time>
      </trkpt>
      <trkpt lat="45.11547" lon="4.96454">
        <ele>247.47200012207</ele>
        <time>2010-02-26T12:20:57Z</time>
      </trkpt>
      <trkpt lat="45.11561" lon="4.96476">
        <ele>247.18499755859</ele>
        <time>2010-02-26T12:21:01Z</time>
      </trkpt>
      <trkpt lat="45.11567" lon="4.96491">
        <ele>247.09800720215</ele>
        <time>2010-02-26T12:21:04Z</time>
      </trkpt>
      <trkpt lat="45.11576" lon="4.96492">
        <ele>247.59700012207</ele>
        <time>2010-02-26T12:21:07Z</time>
      </trkpt>
      <trkpt lat="45.11578" lon="4.96488">
        <ele>246.96299743652</ele>
        <time>2010-02-26T12:21:08Z</time>
      </trkpt>
      <trkpt lat="45.11581" lon="4.96463">
        <ele>247.91200256348</ele>
        <time>2010-02-26T12:21:13Z</time>
      </trkpt>
      <trkpt lat="45.11575" lon="4.96454">
        <ele>247.52499389648</ele>
        <time>2010-02-26T12:21:17Z</time>
      </trkpt>
      <trkpt lat="45.11575" lon="4.96453">
        <ele>247.28399658203</ele>
        <time>2010-02-26T12:21:20Z</time>
      </trkpt>
      <trkpt lat="45.11568" lon="4.96453">
        <ele>246.14100646973</ele>
        <time>2010-02-26T12:21:42Z</time>
      </trkpt>
      <trkpt lat="45.1156" lon="4.96444">
        <ele>245.27799987793</ele>
        <time>2010-02-26T12:21:45Z</time>
      </trkpt>
      <trkpt lat="45.11559" lon="4.96433">
        <ele>246.76100158691</ele>
        <time>2010-02-26T12:21:47Z</time>
      </trkpt>
      <trkpt lat="45.1156" lon="4.96429">
        <ele>247.00799560547</ele>
        <time>2010-02-26T12:21:48Z</time>
      </trkpt>
      <trkpt lat="45.11561" lon="4.96427">
        <ele>246.97300720215</ele>
        <time>2010-02-26T12:21:49Z</time>
      </trkpt>
      <trkpt lat="45.11565" lon="4.96426">
        <ele>247.41900634766</ele>
        <time>2010-02-26T12:21:52Z</time>
      </trkpt>
      <trkpt lat="45.11565" lon="4.96427">
        <ele>247.40100097656</ele>
        <time>2010-02-26T12:21:53Z</time>
      </trkpt>
      <trkpt lat="45.11564" lon="4.96433">
        <ele>241.76100158691</ele>
        <time>2010-02-26T12:26:53Z</time>
      </trkpt>
      <trkpt lat="45.11568" lon="4.9643">
        <ele>237.14100646973</ele>
        <time>2010-02-26T12:30:44Z</time>
      </trkpt>
      <trkpt lat="45.11568" lon="4.9643">
        <ele>237.2619934082</ele>
        <time>2010-02-26T12:30:45Z</time>
      </trkpt>
      <trkpt lat="45.11567" lon="4.9643">
        <ele>236.71499633789</ele>
        <time>2010-02-26T12:30:51Z</time>
      </trkpt>
      <trkpt lat="45.11567" lon="4.9643">
        <ele>236.89399719238</ele>
        <time>2010-02-26T12:30:56Z</time>
      </trkpt>
      <trkpt lat="45.11562" lon="4.96433">
        <ele>236.41799926758</ele>
        <time>2010-02-26T12:31:03Z</time>
      </trkpt>
      <trkpt lat="45.11562" lon="4.96445">
        <ele>235.4640045166</ele>
        <time>2010-02-26T12:31:06Z</time>
      </trkpt>
      <trkpt lat="45.11572" lon="4.96453">
        <ele>235.41900634766</ele>
        <time>2010-02-26T12:31:11Z</time>
      </trkpt>
      <trkpt lat="45.11575" lon="4.96449">
        <ele>235.4049987793</ele>
        <time>2010-02-26T12:31:15Z</time>
      </trkpt>
      <trkpt lat="45.1158" lon="4.96456">
        <ele>235.61700439453</ele>
        <time>2010-02-26T12:31:20Z</time>
      </trkpt>
      <trkpt lat="45.11579" lon="4.96477">
        <ele>234.93499755859</ele>
        <time>2010-02-26T12:31:26Z</time>
      </trkpt>
      <trkpt lat="45.11577" lon="4.96483">
        <ele>234.57099914551</ele>
        <time>2010-02-26T12:31:31Z</time>
      </trkpt>
      <trkpt lat="45.11576" lon="4.96485">
        <ele>234.96800231934</ele>
        <time>2010-02-26T12:31:32Z</time>
      </trkpt>
      <trkpt lat="45.11569" lon="4.9648">
        <ele>234.70100402832</ele>
        <time>2010-02-26T12:31:36Z</time>
      </trkpt>
      <trkpt lat="45.11564" lon="4.96471">
        <ele>234.40400695801</ele>
        <time>2010-02-26T12:31:38Z</time>
      </trkpt>
      <trkpt lat="45.11548" lon="4.96443">
        <ele>234.18200683594</ele>
        <time>2010-02-26T12:31:43Z</time>
      </trkpt>
      <trkpt lat="45.11513" lon="4.96388">
        <ele>234.24800109863</ele>
        <time>2010-02-26T12:31:52Z</time>
      </trkpt>
      <trkpt lat="45.11475" lon="4.96329">
        <ele>236.54299926758</ele>
        <time>2010-02-26T12:32:01Z</time>
      </trkpt>
      <trkpt lat="45.11463" lon="4.9631">
        <ele>236.22599792481</ele>
        <time>2010-02-26T12:32:04Z</time>
      </trkpt>
      <trkpt lat="45.11458" lon="4.96303">
        <ele>235.85400390625</ele>
        <time>2010-02-26T12:32:05Z</time>
      </trkpt>
      <trkpt lat="45.11428" lon="4.96248">
        <ele>236.14799499512</ele>
        <time>2010-02-26T12:32:13Z</time>
      </trkpt>
      <trkpt lat="45.11402" lon="4.96196">
        <ele>235.84100341797</ele>
        <time>2010-02-26T12:32:20Z</time>
      </trkpt>
      <trkpt lat="45.11369" lon="4.96128">
        <ele>235.11500549316</ele>
        <time>2010-02-26T12:32:28Z</time>
      </trkpt>
      <trkpt lat="45.1133" lon="4.96057">
        <ele>234.46699523926</ele>
        <time>2010-02-26T12:32:36Z</time>
      </trkpt>
      <trkpt lat="45.11278" lon="4.9597">
        <ele>233.07400512695</ele>
        <time>2010-02-26T12:32:46Z</time>
      </trkpt>
      <trkpt lat="45.11225" lon="4.95887">
        <ele>232.15100097656</ele>
        <time>2010-02-26T12:32:56Z</time>
      </trkpt>
      <trkpt lat="45.11166" lon="4.958">
        <ele>231.33799743652</ele>
        <time>2010-02-26T12:33:07Z</time>
      </trkpt>
      <trkpt lat="45.11134" lon="4.95743">
        <ele>232.16999816894</ele>
        <time>2010-02-26T12:33:14Z</time>
      </trkpt>
      <trkpt lat="45.11097" lon="4.95678">
        <ele>232.50900268555</ele>
        <time>2010-02-26T12:33:22Z</time>
      </trkpt>
      <trkpt lat="45.11055" lon="4.95638">
        <ele>231.9109954834</ele>
        <time>2010-02-26T12:33:29Z</time>
      </trkpt>
      <trkpt lat="45.1101" lon="4.95585">
        <ele>231.87100219727</ele>
        <time>2010-02-26T12:33:37Z</time>
      </trkpt>
      <trkpt lat="45.10977" lon="4.95525">
        <ele>230.55599975586</ele>
        <time>2010-02-26T12:33:44Z</time>
      </trkpt>
      <trkpt lat="45.10954" lon="4.95457">
        <ele>229.41200256348</ele>
        <time>2010-02-26T12:33:51Z</time>
      </trkpt>
      <trkpt lat="45.10934" lon="4.95376">
        <ele>229.40600585938</ele>
        <time>2010-02-26T12:33:59Z</time>
      </trkpt>
      <trkpt lat="45.10913" lon="4.9531">
        <ele>228.85499572754</ele>
        <time>2010-02-26T12:34:06Z</time>
      </trkpt>
      <trkpt lat="45.10883" lon="4.9522">
        <ele>229.52900695801</ele>
        <time>2010-02-26T12:34:16Z</time>
      </trkpt>
      <trkpt lat="45.10862" lon="4.95156">
        <ele>231.73699951172</ele>
        <time>2010-02-26T12:34:24Z</time>
      </trkpt>
      <trkpt lat="45.10852" lon="4.95109">
        <ele>234.82600402832</ele>
        <time>2010-02-26T12:34:30Z</time>
      </trkpt>
      <trkpt lat="45.10849" lon="4.95063">
        <ele>236.41700744629</ele>
        <time>2010-02-26T12:34:37Z</time>
      </trkpt>
      <trkpt lat="45.10851" lon="4.95019">
        <ele>238.47399902344</ele>
        <time>2010-02-26T12:34:45Z</time>
      </trkpt>
      <trkpt lat="45.10853" lon="4.94979">
        <ele>240.63400268555</ele>
        <time>2010-02-26T12:34:53Z</time>
      </trkpt>
      <trkpt lat="45.10854" lon="4.9497">
        <ele>241.31799316406</ele>
        <time>2010-02-26T12:34:55Z</time>
      </trkpt>
      <trkpt lat="45.10855" lon="4.94933">
        <ele>242.83599853516</ele>
        <time>2010-02-26T12:35:03Z</time>
      </trkpt>
      <trkpt lat="45.10858" lon="4.94881">
        <ele>245.35000610352</ele>
        <time>2010-02-26T12:35:14Z</time>
      </trkpt>
      <trkpt lat="45.10865" lon="4.94842">
        <ele>245.82800292969</ele>
        <time>2010-02-26T12:35:23Z</time>
      </trkpt>
      <trkpt lat="45.10872" lon="4.94829">
        <ele>246.46600341797</ele>
        <time>2010-02-26T12:35:28Z</time>
      </trkpt>
      <trkpt lat="45.10873" lon="4.94807">
        <ele>246.11500549316</ele>
        <time>2010-02-26T12:35:33Z</time>
      </trkpt>
      <trkpt lat="45.1088" lon="4.94775">
        <ele>246.06900024414</ele>
        <time>2010-02-26T12:35:39Z</time>
      </trkpt>
      <trkpt lat="45.10895" lon="4.94723">
        <ele>246.24499511719</ele>
        <time>2010-02-26T12:35:48Z</time>
      </trkpt>
      <trkpt lat="45.10913" lon="4.94662">
        <ele>245.81599426269</ele>
        <time>2010-02-26T12:35:57Z</time>
      </trkpt>
      <trkpt lat="45.10926" lon="4.946">
        <ele>244.60200500488</ele>
        <time>2010-02-26T12:36:05Z</time>
      </trkpt>
      <trkpt lat="45.10929" lon="4.94542">
        <ele>244.28700256348</ele>
        <time>2010-02-26T12:36:12Z</time>
      </trkpt>
      <trkpt lat="45.10926" lon="4.94469">
        <ele>244.56500244141</ele>
        <time>2010-02-26T12:36:21Z</time>
      </trkpt>
      <trkpt lat="45.10924" lon="4.94428">
        <ele>244.59899902344</ele>
        <time>2010-02-26T12:36:26Z</time>
      </trkpt>
      <trkpt lat="45.10919" lon="4.94348">
        <ele>244.68499755859</ele>
        <time>2010-02-26T12:36:36Z</time>
      </trkpt>
      <trkpt lat="45.10917" lon="4.94333">
        <ele>244.87800598144</ele>
        <time>2010-02-26T12:36:38Z</time>
      </trkpt>
      <trkpt lat="45.109" lon="4.94289">
        <ele>245.08500671387</ele>
        <time>2010-02-26T12:36:44Z</time>
      </trkpt>
      <trkpt lat="45.10896" lon="4.94283">
        <ele>244.77799987793</ele>
        <time>2010-02-26T12:36:45Z</time>
      </trkpt>
      <trkpt lat="45.10843" lon="4.94222">
        <ele>243.25</ele>
        <time>2010-02-26T12:36:55Z</time>
      </trkpt>
      <trkpt lat="45.10783" lon="4.94151">
        <ele>244.53300476074</ele>
        <time>2010-02-26T12:37:06Z</time>
      </trkpt>
      <trkpt lat="45.10759" lon="4.94118">
        <ele>244.88499450684</ele>
        <time>2010-02-26T12:37:11Z</time>
      </trkpt>
      <trkpt lat="45.10737" lon="4.94078">
        <ele>245.67199707031</ele>
        <time>2010-02-26T12:37:17Z</time>
      </trkpt>
      <trkpt lat="45.10712" lon="4.94015">
        <ele>246.59300231934</ele>
        <time>2010-02-26T12:37:26Z</time>
      </trkpt>
      <trkpt lat="45.10697" lon="4.93953">
        <ele>247.57000732422</ele>
        <time>2010-02-26T12:37:34Z</time>
      </trkpt>
      <trkpt lat="45.10686" lon="4.9387">
        <ele>246.65699768066</ele>
        <time>2010-02-26T12:37:44Z</time>
      </trkpt>
      <trkpt lat="45.10677" lon="4.93788">
        <ele>244.97099304199</ele>
        <time>2010-02-26T12:37:53Z</time>
      </trkpt>
      <trkpt lat="45.10672" lon="4.93746">
        <ele>243.21299743652</ele>
        <time>2010-02-26T12:37:57Z</time>
      </trkpt>
      <trkpt lat="45.10662" lon="4.93664">
        <ele>240.40299987793</ele>
        <time>2010-02-26T12:38:04Z</time>
      </trkpt>
      <trkpt lat="45.10656" lon="4.93611">
        <ele>237.79899597168</ele>
        <time>2010-02-26T12:38:08Z</time>
      </trkpt>
      <trkpt lat="45.10639" lon="4.93522">
        <ele>232.03900146484</ele>
        <time>2010-02-26T12:38:14Z</time>
      </trkpt>
      <trkpt lat="45.1062" lon="4.93429">
        <ele>228.57200622559</ele>
        <time>2010-02-26T12:38:20Z</time>
      </trkpt>
      <trkpt lat="45.10598" lon="4.93315">
        <ele>227.02099609375</ele>
        <time>2010-02-26T12:38:28Z</time>
      </trkpt>
      <trkpt lat="45.10585" lon="4.93251">
        <ele>225.40400695801</ele>
        <time>2010-02-26T12:38:33Z</time>
      </trkpt>
      <trkpt lat="45.10574" lon="4.93192">
        <ele>224.32699584961</ele>
        <time>2010-02-26T12:38:38Z</time>
      </trkpt>
      <trkpt lat="45.10558" lon="4.93108">
        <ele>224.38900756836</ele>
        <time>2010-02-26T12:38:46Z</time>
      </trkpt>
      <trkpt lat="45.10545" lon="4.93045">
        <ele>223.68200683594</ele>
        <time>2010-02-26T12:38:53Z</time>
      </trkpt>
      <trkpt lat="45.1054" lon="4.9302">
        <ele>223.86500549316</ele>
        <time>2010-02-26T12:38:56Z</time>
      </trkpt>
      <trkpt lat="45.10538" lon="4.93011">
        <ele>223.77200317383</ele>
        <time>2010-02-26T12:38:57Z</time>
      </trkpt>
      <trkpt lat="45.10537" lon="4.93003">
        <ele>223.6609954834</ele>
        <time>2010-02-26T12:38:58Z</time>
      </trkpt>
      <trkpt lat="45.10533" lon="4.92985">
        <ele>224.04699707031</ele>
        <time>2010-02-26T12:39:00Z</time>
      </trkpt>
      <trkpt lat="45.10532" lon="4.92976">
        <ele>223.89100646973</ele>
        <time>2010-02-26T12:39:01Z</time>
      </trkpt>
      <trkpt lat="45.10521" lon="4.92922">
        <ele>223.09300231934</ele>
        <time>2010-02-26T12:39:07Z</time>
      </trkpt>
      <trkpt lat="45.10516" lon="4.92895">
        <ele>222.37399291992</ele>
        <time>2010-02-26T12:39:10Z</time>
      </trkpt>
      <trkpt lat="45.10514" lon="4.92886">
        <ele>222.19500732422</ele>
        <time>2010-02-26T12:39:11Z</time>
      </trkpt>
      <trkpt lat="45.10501" lon="4.92823">
        <ele>222.63800048828</ele>
        <time>2010-02-26T12:39:18Z</time>
      </trkpt>
      <trkpt lat="45.10493" lon="4.92775">
        <ele>222.32200622559</ele>
        <time>2010-02-26T12:39:24Z</time>
      </trkpt>
      <trkpt lat="45.10498" lon="4.92759">
        <ele>222.47599792481</ele>
        <time>2010-02-26T12:39:27Z</time>
      </trkpt>
      <trkpt lat="45.10512" lon="4.92755">
        <ele>222.89900207519</ele>
        <time>2010-02-26T12:39:30Z</time>
      </trkpt>
      <trkpt lat="45.10545" lon="4.92751">
        <ele>223.63900756836</ele>
        <time>2010-02-26T12:39:36Z</time>
      </trkpt>
      <trkpt lat="45.10574" lon="4.92748">
        <ele>223.40699768066</ele>
        <time>2010-02-26T12:39:41Z</time>
      </trkpt>
      <trkpt lat="45.10586" lon="4.92749">
        <ele>223.15100097656</ele>
        <time>2010-02-26T12:39:43Z</time>
      </trkpt>
      <trkpt lat="45.10622" lon="4.92761">
        <ele>223.92900085449</ele>
        <time>2010-02-26T12:39:50Z</time>
      </trkpt>
      <trkpt lat="45.10626" lon="4.92762">
        <ele>223.97999572754</ele>
        <time>2010-02-26T12:39:51Z</time>
      </trkpt>
      <trkpt lat="45.10634" lon="4.92762">
        <ele>224.45300292969</ele>
        <time>2010-02-26T12:39:55Z</time>
      </trkpt>
      <trkpt lat="45.10635" lon="4.92762">
        <ele>224.44200134277</ele>
        <time>2010-02-26T12:39:57Z</time>
      </trkpt>
      <trkpt lat="45.10635" lon="4.92762">
        <ele>224.11399841309</ele>
        <time>2010-02-26T12:40:00Z</time>
      </trkpt>
      <trkpt lat="45.10649" lon="4.92769">
        <ele>224.07699584961</ele>
        <time>2010-02-26T12:40:14Z</time>
      </trkpt>
      <trkpt lat="45.10654" lon="4.92761">
        <ele>223.68499755859</ele>
        <time>2010-02-26T12:40:16Z</time>
      </trkpt>
      <trkpt lat="45.10662" lon="4.92717">
        <ele>224.5059967041</ele>
        <time>2010-02-26T12:40:23Z</time>
      </trkpt>
      <trkpt lat="45.10663" lon="4.92711">
        <ele>224.58299255371</ele>
        <time>2010-02-26T12:40:24Z</time>
      </trkpt>
      <trkpt lat="45.10669" lon="4.92699">
        <ele>225.04299926758</ele>
        <time>2010-02-26T12:40:28Z</time>
      </trkpt>
      <trkpt lat="45.10671" lon="4.92689">
        <ele>224.77000427246</ele>
        <time>2010-02-26T12:40:31Z</time>
      </trkpt>
      <trkpt lat="45.1067" lon="4.9267">
        <ele>224.97300720215</ele>
        <time>2010-02-26T12:40:34Z</time>
      </trkpt>
      <trkpt lat="45.1067" lon="4.92661">
        <ele>224.99099731445</ele>
        <time>2010-02-26T12:40:36Z</time>
      </trkpt>
      <trkpt lat="45.10673" lon="4.92663">
        <ele>224.64599609375</ele>
        <time>2010-02-26T12:40:40Z</time>
      </trkpt>
      <trkpt lat="45.1067" lon="4.92673">
        <ele>224.53799438477</ele>
        <time>2010-02-26T12:40:42Z</time>
      </trkpt>
      <trkpt lat="45.10672" lon="4.92698">
        <ele>224.11500549316</ele>
        <time>2010-02-26T12:40:46Z</time>
      </trkpt>
      <trkpt lat="45.1068" lon="4.92707">
        <ele>224.19000244141</ele>
        <time>2010-02-26T12:40:48Z</time>
      </trkpt>
      <trkpt lat="45.10718" lon="4.9274">
        <ele>224.47700500488</ele>
        <time>2010-02-26T12:40:56Z</time>
      </trkpt>
      <trkpt lat="45.10727" lon="4.92747">
        <ele>224.21099853516</ele>
        <time>2010-02-26T12:40:58Z</time>
      </trkpt>
      <trkpt lat="45.1076" lon="4.92757">
        <ele>224.55000305176</ele>
        <time>2010-02-26T12:41:04Z</time>
      </trkpt>
      <trkpt lat="45.10795" lon="4.92755">
        <ele>224.59899902344</ele>
        <time>2010-02-26T12:41:10Z</time>
      </trkpt>
      <trkpt lat="45.10817" lon="4.92754">
        <ele>225.53100585938</ele>
        <time>2010-02-26T12:41:14Z</time>
      </trkpt>
      <trkpt lat="45.10841" lon="4.92741">
        <ele>225.8450012207</ele>
        <time>2010-02-26T12:41:19Z</time>
      </trkpt>
      <trkpt lat="45.10844" lon="4.92736">
        <ele>225.87399291992</ele>
        <time>2010-02-26T12:41:20Z</time>
      </trkpt>
      <trkpt lat="45.1087" lon="4.92685">
        <ele>226.10800170898</ele>
        <time>2010-02-26T12:41:28Z</time>
      </trkpt>
      <trkpt lat="45.10902" lon="4.92641">
        <ele>225.9700012207</ele>
        <time>2010-02-26T12:41:35Z</time>
      </trkpt>
      <trkpt lat="45.10946" lon="4.926">
        <ele>224.78700256348</ele>
        <time>2010-02-26T12:41:43Z</time>
      </trkpt>
      <trkpt lat="45.10989" lon="4.92557">
        <ele>223.75300598144</ele>
        <time>2010-02-26T12:41:52Z</time>
      </trkpt>
      <trkpt lat="45.11026" lon="4.92523">
        <ele>224.11999511719</ele>
        <time>2010-02-26T12:42:00Z</time>
      </trkpt>
      <trkpt lat="45.11079" lon="4.92472">
        <ele>224.37699890137</ele>
        <time>2010-02-26T12:42:11Z</time>
      </trkpt>
      <trkpt lat="45.11133" lon="4.92421">
        <ele>224.99299621582</ele>
        <time>2010-02-26T12:42:22Z</time>
      </trkpt>
      <trkpt lat="45.11166" lon="4.92388">
        <ele>225.57499694824</ele>
        <time>2010-02-26T12:42:29Z</time>
      </trkpt>
      <trkpt lat="45.11177" lon="4.9237">
        <ele>226.16900634766</ele>
        <time>2010-02-26T12:42:32Z</time>
      </trkpt>
      <trkpt lat="45.11185" lon="4.92331">
        <ele>226.15199279785</ele>
        <time>2010-02-26T12:42:37Z</time>
      </trkpt>
      <trkpt lat="45.11185" lon="4.92322">
        <ele>225.85600280762</ele>
        <time>2010-02-26T12:42:38Z</time>
      </trkpt>
      <trkpt lat="45.11181" lon="4.92297">
        <ele>225.03700256348</ele>
        <time>2010-02-26T12:42:41Z</time>
      </trkpt>
      <trkpt lat="45.11178" lon="4.9227">
        <ele>224.59599304199</ele>
        <time>2010-02-26T12:42:44Z</time>
      </trkpt>
      <trkpt lat="45.11185" lon="4.92206">
        <ele>223.62199401856</ele>
        <time>2010-02-26T12:42:51Z</time>
      </trkpt>
      <trkpt lat="45.11201" lon="4.92115">
        <ele>223.90800476074</ele>
        <time>2010-02-26T12:43:01Z</time>
      </trkpt>
      <trkpt lat="45.11216" lon="4.92041">
        <ele>224.05400085449</ele>
        <time>2010-02-26T12:43:10Z</time>
      </trkpt>
      <trkpt lat="45.11232" lon="4.92008">
        <ele>224.85600280762</ele>
        <time>2010-02-26T12:43:15Z</time>
      </trkpt>
      <trkpt lat="45.11255" lon="4.91979">
        <ele>225.21099853516</ele>
        <time>2010-02-26T12:43:21Z</time>
      </trkpt>
      <trkpt lat="45.11282" lon="4.91947">
        <ele>225.50199890137</ele>
        <time>2010-02-26T12:43:29Z</time>
      </trkpt>
      <trkpt lat="45.11315" lon="4.91908">
        <ele>226.88499450684</ele>
        <time>2010-02-26T12:43:38Z</time>
      </trkpt>
      <trkpt lat="45.11353" lon="4.91855">
        <ele>228.20500183106</ele>
        <time>2010-02-26T12:43:49Z</time>
      </trkpt>
      <trkpt lat="45.1139" lon="4.91802">
        <ele>229.2559967041</ele>
        <time>2010-02-26T12:44:00Z</time>
      </trkpt>
      <trkpt lat="45.11414" lon="4.91763">
        <ele>229.7200012207</ele>
        <time>2010-02-26T12:44:08Z</time>
      </trkpt>
      <trkpt lat="45.11439" lon="4.91715">
        <ele>230.30999755859</ele>
        <time>2010-02-26T12:44:16Z</time>
      </trkpt>
      <trkpt lat="45.11478" lon="4.9164">
        <ele>230.74699401856</ele>
        <time>2010-02-26T12:44:28Z</time>
      </trkpt>
      <trkpt lat="45.1151" lon="4.91581">
        <ele>231.69700622559</ele>
        <time>2010-02-26T12:44:38Z</time>
      </trkpt>
      <trkpt lat="45.11526" lon="4.91543">
        <ele>232.74299621582</ele>
        <time>2010-02-26T12:44:45Z</time>
      </trkpt>
      <trkpt lat="45.11533" lon="4.91516">
        <ele>233.30499267578</ele>
        <time>2010-02-26T12:44:50Z</time>
      </trkpt>
      <trkpt lat="45.11542" lon="4.91462">
        <ele>235.05999755859</ele>
        <time>2010-02-26T12:45:00Z</time>
      </trkpt>
      <trkpt lat="45.11548" lon="4.91414">
        <ele>237.00100708008</ele>
        <time>2010-02-26T12:45:09Z</time>
      </trkpt>
      <trkpt lat="45.11556" lon="4.91359">
        <ele>239.18899536133</ele>
        <time>2010-02-26T12:45:20Z</time>
      </trkpt>
      <trkpt lat="45.11562" lon="4.91316">
        <ele>239.58200073242</ele>
        <time>2010-02-26T12:45:28Z</time>
      </trkpt>
      <trkpt lat="45.11573" lon="4.9127">
        <ele>238.90600585938</ele>
        <time>2010-02-26T12:45:35Z</time>
      </trkpt>
      <trkpt lat="45.11597" lon="4.91212">
        <ele>237.33099365234</ele>
        <time>2010-02-26T12:45:43Z</time>
      </trkpt>
      <trkpt lat="45.11625" lon="4.91157">
        <ele>236.82499694824</ele>
        <time>2010-02-26T12:45:51Z</time>
      </trkpt>
      <trkpt lat="45.11642" lon="4.91106">
        <ele>237.17900085449</ele>
        <time>2010-02-26T12:45:58Z</time>
      </trkpt>
      <trkpt lat="45.11663" lon="4.91027">
        <ele>237.60800170898</ele>
        <time>2010-02-26T12:46:09Z</time>
      </trkpt>
      <trkpt lat="45.11676" lon="4.90963">
        <ele>238.02900695801</ele>
        <time>2010-02-26T12:46:18Z</time>
      </trkpt>
      <trkpt lat="45.1168" lon="4.90906">
        <ele>237.22599792481</ele>
        <time>2010-02-26T12:46:25Z</time>
      </trkpt>
      <trkpt lat="45.1168" lon="4.90846">
        <ele>234.01800537109</ele>
        <time>2010-02-26T12:46:31Z</time>
      </trkpt>
      <trkpt lat="45.11678" lon="4.90775">
        <ele>233.4640045166</ele>
        <time>2010-02-26T12:46:38Z</time>
      </trkpt>
      <trkpt lat="45.11688" lon="4.90732">
        <ele>233.55900573731</ele>
        <time>2010-02-26T12:46:43Z</time>
      </trkpt>
      <trkpt lat="45.11696" lon="4.90704">
        <ele>233.48100280762</ele>
        <time>2010-02-26T12:46:47Z</time>
      </trkpt>
      <trkpt lat="45.11688" lon="4.90687">
        <ele>233.20100402832</ele>
        <time>2010-02-26T12:46:50Z</time>
      </trkpt>
      <trkpt lat="45.11676" lon="4.90669">
        <ele>233.28100585938</ele>
        <time>2010-02-26T12:46:54Z</time>
      </trkpt>
      <trkpt lat="45.11679" lon="4.90648">
        <ele>233.41499328613</ele>
        <time>2010-02-26T12:46:57Z</time>
      </trkpt>
      <trkpt lat="45.11681" lon="4.90641">
        <ele>233.24299621582</ele>
        <time>2010-02-26T12:46:58Z</time>
      </trkpt>
      <trkpt lat="45.11691" lon="4.90572">
        <ele>232.45599365234</ele>
        <time>2010-02-26T12:47:06Z</time>
      </trkpt>
      <trkpt lat="45.11697" lon="4.905">
        <ele>229.93499755859</ele>
        <time>2010-02-26T12:47:13Z</time>
      </trkpt>
      <trkpt lat="45.11698" lon="4.9047">
        <ele>230.02699279785</ele>
        <time>2010-02-26T12:47:16Z</time>
      </trkpt>
      <trkpt lat="45.11687" lon="4.90428">
        <ele>230.40299987793</ele>
        <time>2010-02-26T12:47:21Z</time>
      </trkpt>
      <trkpt lat="45.11673" lon="4.90408">
        <ele>229.5890045166</ele>
        <time>2010-02-26T12:47:24Z</time>
      </trkpt>
      <trkpt lat="45.11642" lon="4.90382">
        <ele>227.91499328613</ele>
        <time>2010-02-26T12:47:29Z</time>
      </trkpt>
      <trkpt lat="45.11589" lon="4.90348">
        <ele>225.03900146484</ele>
        <time>2010-02-26T12:47:36Z</time>
      </trkpt>
      <trkpt lat="45.11535" lon="4.90314">
        <ele>223.44999694824</ele>
        <time>2010-02-26T12:47:43Z</time>
      </trkpt>
      <trkpt lat="45.11473" lon="4.90282">
        <ele>222.20799255371</ele>
        <time>2010-02-26T12:47:51Z</time>
      </trkpt>
      <trkpt lat="45.11432" lon="4.90256">
        <ele>221.60499572754</ele>
        <time>2010-02-26T12:47:57Z</time>
      </trkpt>
      <trkpt lat="45.11414" lon="4.90239">
        <ele>221.08599853516</ele>
        <time>2010-02-26T12:48:00Z</time>
      </trkpt>
      <trkpt lat="45.1139" lon="4.90198">
        <ele>220.62899780273</ele>
        <time>2010-02-26T12:48:05Z</time>
      </trkpt>
      <trkpt lat="45.11387" lon="4.90187">
        <ele>220.47099304199</ele>
        <time>2010-02-26T12:48:06Z</time>
      </trkpt>
      <trkpt lat="45.11374" lon="4.90133">
        <ele>219.39700317383</ele>
        <time>2010-02-26T12:48:11Z</time>
      </trkpt>
      <trkpt lat="45.11349" lon="4.90091">
        <ele>219.375</ele>
        <time>2010-02-26T12:48:16Z</time>
      </trkpt>
      <trkpt lat="45.11313" lon="4.90057">
        <ele>220.05900573731</ele>
        <time>2010-02-26T12:48:22Z</time>
      </trkpt>
      <trkpt lat="45.11264" lon="4.9">
        <ele>219.26400756836</ele>
        <time>2010-02-26T12:48:31Z</time>
      </trkpt>
      <trkpt lat="45.11245" lon="4.89977">
        <ele>218.6609954834</ele>
        <time>2010-02-26T12:48:35Z</time>
      </trkpt>
      <trkpt lat="45.1123" lon="4.89948">
        <ele>218.22399902344</ele>
        <time>2010-02-26T12:48:39Z</time>
      </trkpt>
      <trkpt lat="45.11214" lon="4.89885">
        <ele>216.69599914551</ele>
        <time>2010-02-26T12:48:46Z</time>
      </trkpt>
      <trkpt lat="45.112" lon="4.8984">
        <ele>216.375</ele>
        <time>2010-02-26T12:48:51Z</time>
      </trkpt>
      <trkpt lat="45.11182" lon="4.89814">
        <ele>216.04600524902</ele>
        <time>2010-02-26T12:48:55Z</time>
      </trkpt>
      <trkpt lat="45.11165" lon="4.89802">
        <ele>216.10800170898</ele>
        <time>2010-02-26T12:48:58Z</time>
      </trkpt>
      <trkpt lat="45.11155" lon="4.89778">
        <ele>216.55700683594</ele>
        <time>2010-02-26T12:49:02Z</time>
      </trkpt>
      <trkpt lat="45.11162" lon="4.89762">
        <ele>217.03199768066</ele>
        <time>2010-02-26T12:49:05Z</time>
      </trkpt>
      <trkpt lat="45.11172" lon="4.8976">
        <ele>216.73300170898</ele>
        <time>2010-02-26T12:49:07Z</time>
      </trkpt>
      <trkpt lat="45.11215" lon="4.8976">
        <ele>216.13900756836</ele>
        <time>2010-02-26T12:49:14Z</time>
      </trkpt>
      <trkpt lat="45.11262" lon="4.89759">
        <ele>215.83500671387</ele>
        <time>2010-02-26T12:49:21Z</time>
      </trkpt>
      <trkpt lat="45.1131" lon="4.89757">
        <ele>216.14199829102</ele>
        <time>2010-02-26T12:49:28Z</time>
      </trkpt>
      <trkpt lat="45.11343" lon="4.89756">
        <ele>215.06799316406</ele>
        <time>2010-02-26T12:49:33Z</time>
      </trkpt>
      <trkpt lat="45.11348" lon="4.89756">
        <ele>215.09399414062</ele>
        <time>2010-02-26T12:49:34Z</time>
      </trkpt>
      <trkpt lat="45.11374" lon="4.89738">
        <ele>215.45799255371</ele>
        <time>2010-02-26T12:49:39Z</time>
      </trkpt>
      <trkpt lat="45.11387" lon="4.89732">
        <ele>216.57099914551</ele>
        <time>2010-02-26T12:49:42Z</time>
      </trkpt>
      <trkpt lat="45.11392" lon="4.89734">
        <ele>216.52099609375</ele>
        <time>2010-02-26T12:49:43Z</time>
      </trkpt>
      <trkpt lat="45.11436" lon="4.89752">
        <ele>216.54800415039</ele>
        <time>2010-02-26T12:49:51Z</time>
      </trkpt>
      <trkpt lat="45.11477" lon="4.89754">
        <ele>216.73599243164</ele>
        <time>2010-02-26T12:49:58Z</time>
      </trkpt>
      <trkpt lat="45.11494" lon="4.89753">
        <ele>216.92700195312</ele>
        <time>2010-02-26T12:50:02Z</time>
      </trkpt>
      <trkpt lat="45.115" lon="4.89762">
        <ele>217.02000427246</ele>
        <time>2010-02-26T12:50:06Z</time>
      </trkpt>
      <trkpt lat="45.115" lon="4.89762">
        <ele>216.89799499512</ele>
        <time>2010-02-26T12:50:08Z</time>
      </trkpt>
      <trkpt lat="45.11497" lon="4.89745">
        <ele>217.91700744629</ele>
        <time>2010-02-26T12:53:25Z</time>
      </trkpt>
      <trkpt lat="45.11503" lon="4.89745">
        <ele>217.97500610352</ele>
        <time>2010-02-26T12:53:29Z</time>
      </trkpt>
      <trkpt lat="45.11509" lon="4.89745">
        <ele>218.16200256348</ele>
        <time>2010-02-26T12:53:32Z</time>
      </trkpt>
      <trkpt lat="45.11505" lon="4.89741">
        <ele>217.99200439453</ele>
        <time>2010-02-26T12:53:36Z</time>
      </trkpt>
      <trkpt lat="45.11495" lon="4.89754">
        <ele>217.73199462891</ele>
        <time>2010-02-26T12:53:41Z</time>
      </trkpt>
      <trkpt lat="45.11496" lon="4.89758">
        <ele>217.44900512695</ele>
        <time>2010-02-26T12:53:45Z</time>
      </trkpt>
      <trkpt lat="45.11501" lon="4.89753">
        <ele>216.42999267578</ele>
        <time>2010-02-26T12:54:51Z</time>
      </trkpt>
      <trkpt lat="45.1151" lon="4.89747">
        <ele>216.55499267578</ele>
        <time>2010-02-26T12:54:57Z</time>
      </trkpt>
      <trkpt lat="45.1153" lon="4.89747">
        <ele>216.83999633789</ele>
        <time>2010-02-26T12:55:02Z</time>
      </trkpt>
      <trkpt lat="45.11561" lon="4.89748">
        <ele>217.36599731445</ele>
        <time>2010-02-26T12:55:08Z</time>
      </trkpt>
      <trkpt lat="45.11588" lon="4.89747">
        <ele>217.59100341797</ele>
        <time>2010-02-26T12:55:13Z</time>
      </trkpt>
      <trkpt lat="45.11609" lon="4.89744">
        <ele>217.80200195312</ele>
        <time>2010-02-26T12:55:17Z</time>
      </trkpt>
      <trkpt lat="45.11625" lon="4.8974">
        <ele>218.04800415039</ele>
        <time>2010-02-26T12:55:20Z</time>
      </trkpt>
      <trkpt lat="45.1167" lon="4.89712">
        <ele>218.57400512695</ele>
        <time>2010-02-26T12:55:29Z</time>
      </trkpt>
      <trkpt lat="45.11699" lon="4.89689">
        <ele>219.08000183106</ele>
        <time>2010-02-26T12:55:35Z</time>
      </trkpt>
      <trkpt lat="45.11751" lon="4.89645">
        <ele>219.7559967041</ele>
        <time>2010-02-26T12:55:46Z</time>
      </trkpt>
      <trkpt lat="45.11794" lon="4.8961">
        <ele>219.61599731445</ele>
        <time>2010-02-26T12:55:55Z</time>
      </trkpt>
      <trkpt lat="45.11814" lon="4.89595">
        <ele>220.10099792481</ele>
        <time>2010-02-26T12:56:00Z</time>
      </trkpt>
      <trkpt lat="45.11808" lon="4.89581">
        <ele>221.20100402832</ele>
        <time>2010-02-26T12:56:03Z</time>
      </trkpt>
      <trkpt lat="45.11775" lon="4.89552">
        <ele>221.19999694824</ele>
        <time>2010-02-26T12:56:11Z</time>
      </trkpt>
      <trkpt lat="45.11758" lon="4.89536">
        <ele>221.47399902344</ele>
        <time>2010-02-26T12:56:15Z</time>
      </trkpt>
      <trkpt lat="45.1172" lon="4.89493">
        <ele>222.70899963379</ele>
        <time>2010-02-26T12:56:24Z</time>
      </trkpt>
      <trkpt lat="45.11695" lon="4.89477">
        <ele>223.23300170898</ele>
        <time>2010-02-26T12:56:29Z</time>
      </trkpt>
      <trkpt lat="45.11646" lon="4.89461">
        <ele>222.42199707031</ele>
        <time>2010-02-26T12:56:38Z</time>
      </trkpt>
      <trkpt lat="45.116" lon="4.89437">
        <ele>221.30099487305</ele>
        <time>2010-02-26T12:56:45Z</time>
      </trkpt>
      <trkpt lat="45.11555" lon="4.89416">
        <ele>220.16700744629</ele>
        <time>2010-02-26T12:56:51Z</time>
      </trkpt>
      <trkpt lat="45.11515" lon="4.89391">
        <ele>219.00199890137</ele>
        <time>2010-02-26T12:56:57Z</time>
      </trkpt>
      <trkpt lat="45.1151" lon="4.89386">
        <ele>218.92300415039</ele>
        <time>2010-02-26T12:56:58Z</time>
      </trkpt>
      <trkpt lat="45.11475" lon="4.89342">
        <ele>218.35000610352</ele>
        <time>2010-02-26T12:57:05Z</time>
      </trkpt>
      <trkpt lat="45.11428" lon="4.89282">
        <ele>217.01600646973</ele>
        <time>2010-02-26T12:57:14Z</time>
      </trkpt>
      <trkpt lat="45.11404" lon="4.89249">
        <ele>216.57200622559</ele>
        <time>2010-02-26T12:57:19Z</time>
      </trkpt>
      <trkpt lat="45.11393" lon="4.89228">
        <ele>216.04299926758</ele>
        <time>2010-02-26T12:57:22Z</time>
      </trkpt>
      <trkpt lat="45.11378" lon="4.89197">
        <ele>215.87100219727</ele>
        <time>2010-02-26T12:57:26Z</time>
      </trkpt>
      <trkpt lat="45.11347" lon="4.89161">
        <ele>214.94500732422</ele>
        <time>2010-02-26T12:57:32Z</time>
      </trkpt>
      <trkpt lat="45.11291" lon="4.89108">
        <ele>213.01100158691</ele>
        <time>2010-02-26T12:57:42Z</time>
      </trkpt>
      <trkpt lat="45.11276" lon="4.89091">
        <ele>211.78500366211</ele>
        <time>2010-02-26T12:57:45Z</time>
      </trkpt>
      <trkpt lat="45.1124" lon="4.89048">
        <ele>211.88200378418</ele>
        <time>2010-02-26T12:57:52Z</time>
      </trkpt>
      <trkpt lat="45.11213" lon="4.89018">
        <ele>212.03300476074</ele>
        <time>2010-02-26T12:57:57Z</time>
      </trkpt>
      <trkpt lat="45.11187" lon="4.89006">
        <ele>211.01899719238</ele>
        <time>2010-02-26T12:58:01Z</time>
      </trkpt>
      <trkpt lat="45.11167" lon="4.89005">
        <ele>211.01400756836</ele>
        <time>2010-02-26T12:58:04Z</time>
      </trkpt>
      <trkpt lat="45.11147" lon="4.88983">
        <ele>211.71899414062</ele>
        <time>2010-02-26T12:58:08Z</time>
      </trkpt>
      <trkpt lat="45.11143" lon="4.88957">
        <ele>212.53700256348</ele>
        <time>2010-02-26T12:58:11Z</time>
      </trkpt>
      <trkpt lat="45.11148" lon="4.88909">
        <ele>215.04899597168</ele>
        <time>2010-02-26T12:58:17Z</time>
      </trkpt>
      <trkpt lat="45.11153" lon="4.88894">
        <ele>215.49000549316</ele>
        <time>2010-02-26T12:58:19Z</time>
      </trkpt>
      <trkpt lat="45.11169" lon="4.88856">
        <ele>218.03799438477</ele>
        <time>2010-02-26T12:58:25Z</time>
      </trkpt>
      <trkpt lat="45.11176" lon="4.88844">
        <ele>218.66999816894</ele>
        <time>2010-02-26T12:58:27Z</time>
      </trkpt>
      <trkpt lat="45.11187" lon="4.88823">
        <ele>220.00199890137</ele>
        <time>2010-02-26T12:58:31Z</time>
      </trkpt>
      <trkpt lat="45.11197" lon="4.88806">
        <ele>220.47799682617</ele>
        <time>2010-02-26T12:58:36Z</time>
      </trkpt>
      <trkpt lat="45.11197" lon="4.88804">
        <ele>220.6609954834</ele>
        <time>2010-02-26T12:58:37Z</time>
      </trkpt>
      <trkpt lat="45.11198" lon="4.88804">
        <ele>220.83700561523</ele>
        <time>2010-02-26T12:58:39Z</time>
      </trkpt>
      <trkpt lat="45.11198" lon="4.88795">
        <ele>219.61199951172</ele>
        <time>2010-02-26T12:59:58Z</time>
      </trkpt>
      <trkpt lat="45.11206" lon="4.88778">
        <ele>220.14799499512</ele>
        <time>2010-02-26T13:00:05Z</time>
      </trkpt>
      <trkpt lat="45.11216" lon="4.8876">
        <ele>220.67199707031</ele>
        <time>2010-02-26T13:00:11Z</time>
      </trkpt>
      <trkpt lat="45.11226" lon="4.88741">
        <ele>220.93699645996</ele>
        <time>2010-02-26T13:00:16Z</time>
      </trkpt>
      <trkpt lat="45.11226" lon="4.8872">
        <ele>220.71800231934</ele>
        <time>2010-02-26T13:00:20Z</time>
      </trkpt>
      <trkpt lat="45.11209" lon="4.88701">
        <ele>220.11700439453</ele>
        <time>2010-02-26T13:00:25Z</time>
      </trkpt>
      <trkpt lat="45.11204" lon="4.88698">
        <ele>219.78700256348</ele>
        <time>2010-02-26T13:00:26Z</time>
      </trkpt>
      <trkpt lat="45.11163" lon="4.88671">
        <ele>218.11099243164</ele>
        <time>2010-02-26T13:00:34Z</time>
      </trkpt>
      <trkpt lat="45.11121" lon="4.8864">
        <ele>215.60299682617</ele>
        <time>2010-02-26T13:00:41Z</time>
      </trkpt>
      <trkpt lat="45.11073" lon="4.886">
        <ele>214.00199890137</ele>
        <time>2010-02-26T13:00:49Z</time>
      </trkpt>
      <trkpt lat="45.1102" lon="4.88556">
        <ele>212.03399658203</ele>
        <time>2010-02-26T13:00:57Z</time>
      </trkpt>
      <trkpt lat="45.10959" lon="4.88507">
        <ele>211.07699584961</ele>
        <time>2010-02-26T13:01:06Z</time>
      </trkpt>
      <trkpt lat="45.10916" lon="4.88462">
        <ele>209.75300598144</ele>
        <time>2010-02-26T13:01:13Z</time>
      </trkpt>
      <trkpt lat="45.10894" lon="4.88407">
        <ele>209.33700561523</ele>
        <time>2010-02-26T13:01:19Z</time>
      </trkpt>
      <trkpt lat="45.10877" lon="4.88359">
        <ele>210.17500305176</ele>
        <time>2010-02-26T13:01:25Z</time>
      </trkpt>
      <trkpt lat="45.10865" lon="4.88324">
        <ele>209.80099487305</ele>
        <time>2010-02-26T13:01:30Z</time>
      </trkpt>
      <trkpt lat="45.10854" lon="4.88299">
        <ele>209.4880065918</ele>
        <time>2010-02-26T13:01:35Z</time>
      </trkpt>
      <trkpt lat="45.10854" lon="4.88298">
        <ele>209.57299804688</ele>
        <time>2010-02-26T13:01:36Z</time>
      </trkpt>
      <trkpt lat="45.10855" lon="4.88303">
        <ele>208.55000305176</ele>
        <time>2010-02-26T13:03:20Z</time>
      </trkpt>
      <trkpt lat="45.10855" lon="4.88304">
        <ele>208.56199645996</ele>
        <time>2010-02-26T13:03:21Z</time>
      </trkpt>
      <trkpt lat="45.10853" lon="4.88306">
        <ele>208.46699523926</ele>
        <time>2010-02-26T13:03:23Z</time>
      </trkpt>
      <trkpt lat="45.1084" lon="4.88304">
        <ele>207.94299316406</ele>
        <time>2010-02-26T13:03:28Z</time>
      </trkpt>
      <trkpt lat="45.10832" lon="4.88303">
        <ele>207.61399841309</ele>
        <time>2010-02-26T13:03:30Z</time>
      </trkpt>
      <trkpt lat="45.10823" lon="4.88302">
        <ele>207.30099487305</ele>
        <time>2010-02-26T13:03:32Z</time>
      </trkpt>
      <trkpt lat="45.1079" lon="4.883">
        <ele>206.36099243164</ele>
        <time>2010-02-26T13:03:38Z</time>
      </trkpt>
      <trkpt lat="45.10772" lon="4.88295">
        <ele>205.80299377441</ele>
        <time>2010-02-26T13:03:41Z</time>
      </trkpt>
      <trkpt lat="45.1076" lon="4.88289">
        <ele>205.77200317383</ele>
        <time>2010-02-26T13:03:43Z</time>
      </trkpt>
      <trkpt lat="45.10714" lon="4.88256">
        <ele>204.52699279785</ele>
        <time>2010-02-26T13:03:51Z</time>
      </trkpt>
      <trkpt lat="45.10684" lon="4.88232">
        <ele>203.14799499512</ele>
        <time>2010-02-26T13:03:56Z</time>
      </trkpt>
      <trkpt lat="45.10643" lon="4.88199">
        <ele>202.77699279785</ele>
        <time>2010-02-26T13:04:03Z</time>
      </trkpt>
      <trkpt lat="45.10602" lon="4.88163">
        <ele>202.06100463867</ele>
        <time>2010-02-26T13:04:10Z</time>
      </trkpt>
      <trkpt lat="45.10564" lon="4.88121">
        <ele>201.6369934082</ele>
        <time>2010-02-26T13:04:17Z</time>
      </trkpt>
      <trkpt lat="45.10524" lon="4.88103">
        <ele>200.65199279785</ele>
        <time>2010-02-26T13:04:23Z</time>
      </trkpt>
      <trkpt lat="45.10482" lon="4.88088">
        <ele>201.81300354004</ele>
        <time>2010-02-26T13:04:30Z</time>
      </trkpt>
      <trkpt lat="45.10462" lon="4.88078">
        <ele>202.74099731445</ele>
        <time>2010-02-26T13:04:34Z</time>
      </trkpt>
      <trkpt lat="45.10443" lon="4.88065">
        <ele>203.24200439453</ele>
        <time>2010-02-26T13:04:38Z</time>
      </trkpt>
      <trkpt lat="45.10437" lon="4.88043">
        <ele>203.60400390625</ele>
        <time>2010-02-26T13:04:42Z</time>
      </trkpt>
      <trkpt lat="45.10446" lon="4.87985">
        <ele>203.46200561523</ele>
        <time>2010-02-26T13:04:49Z</time>
      </trkpt>
      <trkpt lat="45.10443" lon="4.87937">
        <ele>203.77799987793</ele>
        <time>2010-02-26T13:04:54Z</time>
      </trkpt>
      <trkpt lat="45.10437" lon="4.87898">
        <ele>204.70100402832</ele>
        <time>2010-02-26T13:04:58Z</time>
      </trkpt>
      <trkpt lat="45.10433" lon="4.87868">
        <ele>205.49499511719</ele>
        <time>2010-02-26T13:05:01Z</time>
      </trkpt>
      <trkpt lat="45.10425" lon="4.87818">
        <ele>207.05700683594</ele>
        <time>2010-02-26T13:05:06Z</time>
      </trkpt>
      <trkpt lat="45.10408" lon="4.87765">
        <ele>209.59800720215</ele>
        <time>2010-02-26T13:05:12Z</time>
      </trkpt>
      <trkpt lat="45.10394" lon="4.87724">
        <ele>211.46499633789</ele>
        <time>2010-02-26T13:05:17Z</time>
      </trkpt>
      <trkpt lat="45.10379" lon="4.87684">
        <ele>213.74499511719</ele>
        <time>2010-02-26T13:05:22Z</time>
      </trkpt>
      <trkpt lat="45.10355" lon="4.87619">
        <ele>217.92199707031</ele>
        <time>2010-02-26T13:05:31Z</time>
      </trkpt>
      <trkpt lat="45.1035" lon="4.87603">
        <ele>219.72799682617</ele>
        <time>2010-02-26T13:05:35Z</time>
      </trkpt>
      <trkpt lat="45.10348" lon="4.87607">
        <ele>219.46600341797</ele>
        <time>2010-02-26T13:05:39Z</time>
      </trkpt>
      <trkpt lat="45.1035" lon="4.8761">
        <ele>219.30900573731</ele>
        <time>2010-02-26T13:05:40Z</time>
      </trkpt>
      <trkpt lat="45.10361" lon="4.87642">
        <ele>216.83500671387</ele>
        <time>2010-02-26T13:05:46Z</time>
      </trkpt>
      <trkpt lat="45.1037" lon="4.87665">
        <ele>215.50199890137</ele>
        <time>2010-02-26T13:05:49Z</time>
      </trkpt>
      <trkpt lat="45.10387" lon="4.8771">
        <ele>212.66499328613</ele>
        <time>2010-02-26T13:05:54Z</time>
      </trkpt>
      <trkpt lat="45.10406" lon="4.87766">
        <ele>209.74299621582</ele>
        <time>2010-02-26T13:05:59Z</time>
      </trkpt>
      <trkpt lat="45.10423" lon="4.87819">
        <ele>207.58700561523</ele>
        <time>2010-02-26T13:06:03Z</time>
      </trkpt>
      <trkpt lat="45.10436" lon="4.87895">
        <ele>204.75300598144</ele>
        <time>2010-02-26T13:06:08Z</time>
      </trkpt>
      <trkpt lat="45.10445" lon="4.87968">
        <ele>203.74299621582</ele>
        <time>2010-02-26T13:06:13Z</time>
      </trkpt>
      <trkpt lat="45.10444" lon="4.88002">
        <ele>203.37199401856</ele>
        <time>2010-02-26T13:06:16Z</time>
      </trkpt>
      <trkpt lat="45.10441" lon="4.88028">
        <ele>203.57099914551</ele>
        <time>2010-02-26T13:06:19Z</time>
      </trkpt>
      <trkpt lat="45.10431" lon="4.88061">
        <ele>203.19000244141</ele>
        <time>2010-02-26T13:06:25Z</time>
      </trkpt>
      <trkpt lat="45.10429" lon="4.88066">
        <ele>203.05799865723</ele>
        <time>2010-02-26T13:06:26Z</time>
      </trkpt>
      <trkpt lat="45.10434" lon="4.88071">
        <ele>203.07099914551</ele>
        <time>2010-02-26T13:06:29Z</time>
      </trkpt>
      <trkpt lat="45.10438" lon="4.88059">
        <ele>203.17599487305</ele>
        <time>2010-02-26T13:06:32Z</time>
      </trkpt>
      <trkpt lat="45.1044" lon="4.88047">
        <ele>203.43400573731</ele>
        <time>2010-02-26T13:06:34Z</time>
      </trkpt>
      <trkpt lat="45.10445" lon="4.88026">
        <ele>203.52799987793</ele>
        <time>2010-02-26T13:06:37Z</time>
      </trkpt>
      <trkpt lat="45.10447" lon="4.87963">
        <ele>203.75700378418</ele>
        <time>2010-02-26T13:06:44Z</time>
      </trkpt>
      <trkpt lat="45.1044" lon="4.87904">
        <ele>203.82800292969</ele>
        <time>2010-02-26T13:06:50Z</time>
      </trkpt>
      <trkpt lat="45.10429" lon="4.8783">
        <ele>206.46200561523</ele>
        <time>2010-02-26T13:06:58Z</time>
      </trkpt>
      <trkpt lat="45.10416" lon="4.87786">
        <ele>208.62399291992</ele>
        <time>2010-02-26T13:07:03Z</time>
      </trkpt>
      <trkpt lat="45.10404" lon="4.87751">
        <ele>210.26100158691</ele>
        <time>2010-02-26T13:07:07Z</time>
      </trkpt>
      <trkpt lat="45.10385" lon="4.877">
        <ele>213.04299926758</ele>
        <time>2010-02-26T13:07:13Z</time>
      </trkpt>
      <trkpt lat="45.10358" lon="4.87627">
        <ele>217.74800109863</ele>
        <time>2010-02-26T13:07:22Z</time>
      </trkpt>
      <trkpt lat="45.10355" lon="4.8762">
        <ele>218.49000549316</ele>
        <time>2010-02-26T13:07:23Z</time>
      </trkpt>
      <trkpt lat="45.10352" lon="4.87609">
        <ele>219.19799804688</ele>
        <time>2010-02-26T13:07:25Z</time>
      </trkpt>
      <trkpt lat="45.10347" lon="4.87601">
        <ele>219.98100280762</ele>
        <time>2010-02-26T13:07:28Z</time>
      </trkpt>
      <trkpt lat="45.10347" lon="4.87605">
        <ele>219.29899597168</ele>
        <time>2010-02-26T13:07:30Z</time>
      </trkpt>
      <trkpt lat="45.10354" lon="4.87622">
        <ele>217.9049987793</ele>
        <time>2010-02-26T13:07:34Z</time>
      </trkpt>
      <trkpt lat="45.10369" lon="4.87664">
        <ele>215.35099792481</ele>
        <time>2010-02-26T13:07:40Z</time>
      </trkpt>
      <trkpt lat="45.10388" lon="4.87715">
        <ele>212.3690032959</ele>
        <time>2010-02-26T13:07:46Z</time>
      </trkpt>
      <trkpt lat="45.10398" lon="4.87745">
        <ele>211.02499389648</ele>
        <time>2010-02-26T13:07:49Z</time>
      </trkpt>
      <trkpt lat="45.10422" lon="4.87814">
        <ele>208.11399841309</ele>
        <time>2010-02-26T13:07:55Z</time>
      </trkpt>
      <trkpt lat="45.10434" lon="4.87881">
        <ele>205.52900695801</ele>
        <time>2010-02-26T13:08:00Z</time>
      </trkpt>
      <trkpt lat="45.10439" lon="4.8792">
        <ele>203.94599914551</ele>
        <time>2010-02-26T13:08:03Z</time>
      </trkpt>
      <trkpt lat="45.10444" lon="4.87967">
        <ele>203.62300109863</ele>
        <time>2010-02-26T13:08:07Z</time>
      </trkpt>
      <trkpt lat="45.10444" lon="4.88001">
        <ele>203.34300231934</ele>
        <time>2010-02-26T13:08:10Z</time>
      </trkpt>
      <trkpt lat="45.10437" lon="4.88043">
        <ele>203.14900207519</ele>
        <time>2010-02-26T13:08:15Z</time>
      </trkpt>
      <trkpt lat="45.10435" lon="4.88049">
        <ele>203.0299987793</ele>
        <time>2010-02-26T13:08:16Z</time>
      </trkpt>
      <trkpt lat="45.10428" lon="4.8807">
        <ele>203.22399902344</ele>
        <time>2010-02-26T13:08:21Z</time>
      </trkpt>
      <trkpt lat="45.10435" lon="4.88068">
        <ele>202.60699462891</ele>
        <time>2010-02-26T13:08:24Z</time>
      </trkpt>
      <trkpt lat="45.10438" lon="4.88053">
        <ele>202.2799987793</ele>
        <time>2010-02-26T13:08:27Z</time>
      </trkpt>
      <trkpt lat="45.1044" lon="4.88041">
        <ele>202.26800537109</ele>
        <time>2010-02-26T13:08:29Z</time>
      </trkpt>
      <trkpt lat="45.10448" lon="4.87983">
        <ele>203.29800415039</ele>
        <time>2010-02-26T13:08:37Z</time>
      </trkpt>
      <trkpt lat="45.10445" lon="4.8794">
        <ele>204.19900512695</ele>
        <time>2010-02-26T13:08:42Z</time>
      </trkpt>
      <trkpt lat="45.10434" lon="4.87867">
        <ele>205.05000305176</ele>
        <time>2010-02-26T13:08:50Z</time>
      </trkpt>
      <trkpt lat="45.10421" lon="4.878">
        <ele>207.79800415039</ele>
        <time>2010-02-26T13:08:58Z</time>
      </trkpt>
      <trkpt lat="45.10412" lon="4.87776">
        <ele>209.1190032959</ele>
        <time>2010-02-26T13:09:01Z</time>
      </trkpt>
      <trkpt lat="45.10391" lon="4.87718">
        <ele>211.32600402832</ele>
        <time>2010-02-26T13:09:09Z</time>
      </trkpt>
      <trkpt lat="45.10368" lon="4.87657">
        <ele>215.15699768066</ele>
        <time>2010-02-26T13:09:18Z</time>
      </trkpt>
      <trkpt lat="45.10366" lon="4.8765">
        <ele>215.46099853516</ele>
        <time>2010-02-26T13:09:19Z</time>
      </trkpt>
      <trkpt lat="45.10354" lon="4.87618">
        <ele>217.67399597168</ele>
        <time>2010-02-26T13:09:25Z</time>
      </trkpt>
      <trkpt lat="45.1035" lon="4.87612">
        <ele>218.70399475098</ele>
        <time>2010-02-26T13:09:29Z</time>
      </trkpt>
      <trkpt lat="45.10351" lon="4.87617">
        <ele>217.9940032959</ele>
        <time>2010-02-26T13:09:31Z</time>
      </trkpt>
      <trkpt lat="45.10358" lon="4.87634">
        <ele>216.77299499512</ele>
        <time>2010-02-26T13:09:35Z</time>
      </trkpt>
      <trkpt lat="45.10375" lon="4.87681">
        <ele>213.59100341797</ele>
        <time>2010-02-26T13:09:41Z</time>
      </trkpt>
      <trkpt lat="45.10394" lon="4.87734">
        <ele>210.74099731445</ele>
        <time>2010-02-26T13:09:46Z</time>
      </trkpt>
      <trkpt lat="45.10398" lon="4.87746">
        <ele>210.61099243164</ele>
        <time>2010-02-26T13:09:47Z</time>
      </trkpt>
      <trkpt lat="45.10424" lon="4.87828">
        <ele>206.51899719238</ele>
        <time>2010-02-26T13:09:53Z</time>
      </trkpt>
      <trkpt lat="45.10437" lon="4.87906">
        <ele>203.59300231934</ele>
        <time>2010-02-26T13:09:58Z</time>
      </trkpt>
      <trkpt lat="45.10444" lon="4.87983">
        <ele>202.59100341797</ele>
        <time>2010-02-26T13:10:03Z</time>
      </trkpt>
      <trkpt lat="45.10437" lon="4.88038">
        <ele>202.27900695801</ele>
        <time>2010-02-26T13:10:07Z</time>
      </trkpt>
      <trkpt lat="45.1043" lon="4.8806">
        <ele>202.53999328613</ele>
        <time>2010-02-26T13:10:09Z</time>
      </trkpt>
      <trkpt lat="45.10421" lon="4.88081">
        <ele>202.52900695801</ele>
        <time>2010-02-26T13:10:12Z</time>
      </trkpt>
      <trkpt lat="45.1042" lon="4.88089">
        <ele>202.64500427246</ele>
        <time>2010-02-26T13:10:14Z</time>
      </trkpt>
      <trkpt lat="45.10423" lon="4.88088">
        <ele>201.99499511719</ele>
        <time>2010-02-26T13:10:16Z</time>
      </trkpt>
      <trkpt lat="45.10424" lon="4.88085">
        <ele>201.99000549316</ele>
        <time>2010-02-26T13:10:17Z</time>
      </trkpt>
      <trkpt lat="45.10436" lon="4.88053">
        <ele>202.13600158691</ele>
        <time>2010-02-26T13:10:23Z</time>
      </trkpt>
      <trkpt lat="45.10445" lon="4.88015">
        <ele>202.04899597168</ele>
        <time>2010-02-26T13:10:28Z</time>
      </trkpt>
      <trkpt lat="45.10446" lon="4.87959">
        <ele>202.62399291992</ele>
        <time>2010-02-26T13:10:34Z</time>
      </trkpt>
      <trkpt lat="45.10439" lon="4.87903">
        <ele>203.69000244141</ele>
        <time>2010-02-26T13:10:40Z</time>
      </trkpt>
      <trkpt lat="45.10426" lon="4.87822">
        <ele>206.26800537109</ele>
        <time>2010-02-26T13:10:49Z</time>
      </trkpt>
      <trkpt lat="45.10409" lon="4.87768">
        <ele>208.54400634766</ele>
        <time>2010-02-26T13:10:56Z</time>
      </trkpt>
      <trkpt lat="45.10396" lon="4.87733">
        <ele>210.02000427246</ele>
        <time>2010-02-26T13:11:01Z</time>
      </trkpt>
      <trkpt lat="45.10374" lon="4.87671">
        <ele>213.05400085449</ele>
        <time>2010-02-26T13:11:10Z</time>
      </trkpt>
      <trkpt lat="45.10362" lon="4.8764">
        <ele>215.16799926758</ele>
        <time>2010-02-26T13:11:15Z</time>
      </trkpt>
      <trkpt lat="45.10356" lon="4.87623">
        <ele>216.89199829102</ele>
        <time>2010-02-26T13:11:18Z</time>
      </trkpt>
      <trkpt lat="45.10352" lon="4.87613">
        <ele>217.60600280762</ele>
        <time>2010-02-26T13:11:21Z</time>
      </trkpt>
      <trkpt lat="45.1035" lon="4.87617">
        <ele>217.28399658203</ele>
        <time>2010-02-26T13:11:25Z</time>
      </trkpt>
      <trkpt lat="45.1036" lon="4.8764">
        <ele>215.80000305176</ele>
        <time>2010-02-26T13:11:30Z</time>
      </trkpt>
      <trkpt lat="45.10368" lon="4.87663">
        <ele>214.48599243164</ele>
        <time>2010-02-26T13:11:33Z</time>
      </trkpt>
      <trkpt lat="45.10386" lon="4.87712">
        <ele>211.47399902344</ele>
        <time>2010-02-26T13:11:38Z</time>
      </trkpt>
      <trkpt lat="45.10408" lon="4.87773">
        <ele>208.16600036621</ele>
        <time>2010-02-26T13:11:43Z</time>
      </trkpt>
      <trkpt lat="45.10427" lon="4.87845">
        <ele>204.91900634766</ele>
        <time>2010-02-26T13:11:48Z</time>
      </trkpt>
      <trkpt lat="45.10439" lon="4.87924">
        <ele>202.38000488281</ele>
        <time>2010-02-26T13:11:53Z</time>
      </trkpt>
      <trkpt lat="45.10443" lon="4.87971">
        <ele>202.07400512695</ele>
        <time>2010-02-26T13:11:56Z</time>
      </trkpt>
      <trkpt lat="45.10436" lon="4.88039">
        <ele>202.10099792481</ele>
        <time>2010-02-26T13:12:01Z</time>
      </trkpt>
      <trkpt lat="45.10428" lon="4.88064">
        <ele>201.98399353027</ele>
        <time>2010-02-26T13:12:05Z</time>
      </trkpt>
      <trkpt lat="45.10431" lon="4.88069">
        <ele>201.80900573731</ele>
        <time>2010-02-26T13:12:08Z</time>
      </trkpt>
      <trkpt lat="45.10434" lon="4.88056">
        <ele>201.72999572754</ele>
        <time>2010-02-26T13:12:11Z</time>
      </trkpt>
      <trkpt lat="45.10436" lon="4.88051">
        <ele>201.67999267578</ele>
        <time>2010-02-26T13:12:12Z</time>
      </trkpt>
      <trkpt lat="45.1044" lon="4.88038">
        <ele>201.44500732422</ele>
        <time>2010-02-26T13:12:14Z</time>
      </trkpt>
      <trkpt lat="45.10447" lon="4.87982">
        <ele>202.0299987793</ele>
        <time>2010-02-26T13:12:21Z</time>
      </trkpt>
      <trkpt lat="45.10442" lon="4.87928">
        <ele>202.34399414062</ele>
        <time>2010-02-26T13:12:27Z</time>
      </trkpt>
      <trkpt lat="45.1043" lon="4.87841">
        <ele>204.89300537109</ele>
        <time>2010-02-26T13:12:37Z</time>
      </trkpt>
      <trkpt lat="45.10415" lon="4.87783">
        <ele>207.64100646973</ele>
        <time>2010-02-26T13:12:45Z</time>
      </trkpt>
      <trkpt lat="45.10392" lon="4.8772">
        <ele>210.19000244141</ele>
        <time>2010-02-26T13:12:55Z</time>
      </trkpt>
      <trkpt lat="45.10377" lon="4.87679">
        <ele>212.66400146484</ele>
        <time>2010-02-26T13:13:02Z</time>
      </trkpt>
      <trkpt lat="45.10363" lon="4.87642">
        <ele>215.18699645996</ele>
        <time>2010-02-26T13:13:09Z</time>
      </trkpt>
      <trkpt lat="45.10353" lon="4.87617">
        <ele>217.46299743652</ele>
        <time>2010-02-26T13:13:15Z</time>
      </trkpt>
      <trkpt lat="45.10353" lon="4.87614">
        <ele>217.60699462891</ele>
        <time>2010-02-26T13:13:16Z</time>
      </trkpt>
      <trkpt lat="45.1035" lon="4.87615">
        <ele>217.61999511719</ele>
        <time>2010-02-26T13:13:20Z</time>
      </trkpt>
      <trkpt lat="45.10358" lon="4.87635">
        <ele>215.97099304199</ele>
        <time>2010-02-26T13:13:25Z</time>
      </trkpt>
      <trkpt lat="45.10369" lon="4.87664">
        <ele>214.44500732422</ele>
        <time>2010-02-26T13:13:29Z</time>
      </trkpt>
      <trkpt lat="45.10387" lon="4.87715">
        <ele>211.99600219727</ele>
        <time>2010-02-26T13:13:34Z</time>
      </trkpt>
      <trkpt lat="45.1041" lon="4.87777">
        <ele>208.01100158691</ele>
        <time>2010-02-26T13:13:39Z</time>
      </trkpt>
      <trkpt lat="45.10428" lon="4.8785">
        <ele>204.60400390625</ele>
        <time>2010-02-26T13:13:44Z</time>
      </trkpt>
      <trkpt lat="45.10442" lon="4.87961">
        <ele>201.91000366211</ele>
        <time>2010-02-26T13:13:51Z</time>
      </trkpt>
      <trkpt lat="45.10443" lon="4.87976">
        <ele>201.68499755859</ele>
        <time>2010-02-26T13:13:52Z</time>
      </trkpt>
      <trkpt lat="45.10434" lon="4.88047">
        <ele>201.79800415039</ele>
        <time>2010-02-26T13:13:57Z</time>
      </trkpt>
      <trkpt lat="45.10402" lon="4.88128">
        <ele>200.85299682617</ele>
        <time>2010-02-26T13:14:04Z</time>
      </trkpt>
      <trkpt lat="45.10374" lon="4.88194">
        <ele>199.19599914551</ele>
        <time>2010-02-26T13:14:10Z</time>
      </trkpt>
      <trkpt lat="45.10348" lon="4.88235">
        <ele>196.48300170898</ele>
        <time>2010-02-26T13:14:14Z</time>
      </trkpt>
      <trkpt lat="45.10332" lon="4.88255">
        <ele>195.14199829102</ele>
        <time>2010-02-26T13:14:16Z</time>
      </trkpt>
      <trkpt lat="45.10296" lon="4.88295">
        <ele>192.01600646973</ele>
        <time>2010-02-26T13:14:20Z</time>
      </trkpt>
      <trkpt lat="45.10267" lon="4.88334">
        <ele>191.10400390625</ele>
        <time>2010-02-26T13:14:24Z</time>
      </trkpt>
      <trkpt lat="45.10262" lon="4.88341">
        <ele>191.35400390625</ele>
        <time>2010-02-26T13:14:25Z</time>
      </trkpt>
      <trkpt lat="45.10244" lon="4.88337">
        <ele>190.08399963379</ele>
        <time>2010-02-26T13:14:28Z</time>
      </trkpt>
      <trkpt lat="45.10205" lon="4.88311">
        <ele>188.92300415039</ele>
        <time>2010-02-26T13:14:34Z</time>
      </trkpt>
      <trkpt lat="45.10144" lon="4.8828">
        <ele>188.29499816894</ele>
        <time>2010-02-26T13:14:42Z</time>
      </trkpt>
      <trkpt lat="45.10064" lon="4.8824">
        <ele>187.33599853516</ele>
        <time>2010-02-26T13:14:52Z</time>
      </trkpt>
      <trkpt lat="45.09989" lon="4.882">
        <ele>186.62100219727</ele>
        <time>2010-02-26T13:15:01Z</time>
      </trkpt>
      <trkpt lat="45.09909" lon="4.88153">
        <ele>185.67999267578</ele>
        <time>2010-02-26T13:15:11Z</time>
      </trkpt>
      <trkpt lat="45.09844" lon="4.8812">
        <ele>184.45799255371</ele>
        <time>2010-02-26T13:15:19Z</time>
      </trkpt>
      <trkpt lat="45.09768" lon="4.88092">
        <ele>184.34599304199</ele>
        <time>2010-02-26T13:15:28Z</time>
      </trkpt>
      <trkpt lat="45.097" lon="4.88075">
        <ele>183.89900207519</ele>
        <time>2010-02-26T13:15:36Z</time>
      </trkpt>
      <trkpt lat="45.09657" lon="4.88081">
        <ele>184.19400024414</ele>
        <time>2010-02-26T13:15:41Z</time>
      </trkpt>
      <trkpt lat="45.096" lon="4.88103">
        <ele>183.23599243164</ele>
        <time>2010-02-26T13:15:48Z</time>
      </trkpt>
      <trkpt lat="45.09549" lon="4.88117">
        <ele>183.35699462891</ele>
        <time>2010-02-26T13:15:54Z</time>
      </trkpt>
      <trkpt lat="45.09447" lon="4.88135">
        <ele>183.04100036621</ele>
        <time>2010-02-26T13:16:06Z</time>
      </trkpt>
      <trkpt lat="45.09365" lon="4.8815">
        <ele>181.39500427246</ele>
        <time>2010-02-26T13:16:15Z</time>
      </trkpt>
      <trkpt lat="45.09298" lon="4.88172">
        <ele>179.75399780273</ele>
        <time>2010-02-26T13:16:22Z</time>
      </trkpt>
      <trkpt lat="45.0924" lon="4.88187">
        <ele>178.10800170898</ele>
        <time>2010-02-26T13:16:28Z</time>
      </trkpt>
      <trkpt lat="45.09182" lon="4.88183">
        <ele>176.82699584961</ele>
        <time>2010-02-26T13:16:34Z</time>
      </trkpt>
      <trkpt lat="45.09085" lon="4.88163">
        <ele>173.69700622559</ele>
        <time>2010-02-26T13:16:44Z</time>
      </trkpt>
      <trkpt lat="45.08986" lon="4.8814">
        <ele>171.88000488281</ele>
        <time>2010-02-26T13:16:54Z</time>
      </trkpt>
      <trkpt lat="45.08939" lon="4.8814">
        <ele>172.17700195312</ele>
        <time>2010-02-26T13:16:59Z</time>
      </trkpt>
      <trkpt lat="45.08876" lon="4.88138">
        <ele>172.11700439453</ele>
        <time>2010-02-26T13:17:06Z</time>
      </trkpt>
      <trkpt lat="45.08796" lon="4.88125">
        <ele>171.48399353027</ele>
        <time>2010-02-26T13:17:15Z</time>
      </trkpt>
      <trkpt lat="45.0872" lon="4.88118">
        <ele>171.48599243164</ele>
        <time>2010-02-26T13:17:24Z</time>
      </trkpt>
      <trkpt lat="45.08671" lon="4.88099">
        <ele>171.08299255371</ele>
        <time>2010-02-26T13:17:30Z</time>
      </trkpt>
      <trkpt lat="45.08608" lon="4.88063">
        <ele>170.53399658203</ele>
        <time>2010-02-26T13:17:38Z</time>
      </trkpt>
      <trkpt lat="45.08559" lon="4.88027">
        <ele>169.67999267578</ele>
        <time>2010-02-26T13:17:45Z</time>
      </trkpt>
      <trkpt lat="45.08512" lon="4.87992">
        <ele>169.26100158691</ele>
        <time>2010-02-26T13:17:52Z</time>
      </trkpt>
      <trkpt lat="45.08493" lon="4.87974">
        <ele>168.75700378418</ele>
        <time>2010-02-26T13:17:55Z</time>
      </trkpt>
      <trkpt lat="45.0847" lon="4.87931">
        <ele>168.58099365234</ele>
        <time>2010-02-26T13:18:00Z</time>
      </trkpt>
      <trkpt lat="45.08464" lon="4.8791">
        <ele>168.26499938965</ele>
        <time>2010-02-26T13:18:02Z</time>
      </trkpt>
      <trkpt lat="45.08453" lon="4.87809">
        <ele>168.01899719238</ele>
        <time>2010-02-26T13:18:11Z</time>
      </trkpt>
      <trkpt lat="45.0844" lon="4.87743">
        <ele>167.94000244141</ele>
        <time>2010-02-26T13:18:18Z</time>
      </trkpt>
      <trkpt lat="45.08434" lon="4.87707">
        <ele>167.90100097656</ele>
        <time>2010-02-26T13:18:21Z</time>
      </trkpt>
      <trkpt lat="45.08433" lon="4.87644">
        <ele>168.96800231934</ele>
        <time>2010-02-26T13:18:25Z</time>
      </trkpt>
      <trkpt lat="45.08427" lon="4.87628">
        <ele>169.73500061035</ele>
        <time>2010-02-26T13:18:27Z</time>
      </trkpt>
      <trkpt lat="45.08423" lon="4.87622">
        <ele>170.44599914551</ele>
        <time>2010-02-26T13:18:28Z</time>
      </trkpt>
      <trkpt lat="45.08409" lon="4.87611">
        <ele>171.2619934082</ele>
        <time>2010-02-26T13:18:31Z</time>
      </trkpt>
      <trkpt lat="45.08394" lon="4.876">
        <ele>172.58200073242</ele>
        <time>2010-02-26T13:18:34Z</time>
      </trkpt>
      <trkpt lat="45.0839" lon="4.87598">
        <ele>172.77499389648</ele>
        <time>2010-02-26T13:18:35Z</time>
      </trkpt>
      <trkpt lat="45.08352" lon="4.87579">
        <ele>174.49699401856</ele>
        <time>2010-02-26T13:18:42Z</time>
      </trkpt>
      <trkpt lat="45.0831" lon="4.87556">
        <ele>174.61199951172</ele>
        <time>2010-02-26T13:18:49Z</time>
      </trkpt>
      <trkpt lat="45.08264" lon="4.87522">
        <ele>173.05299377441</ele>
        <time>2010-02-26T13:18:56Z</time>
      </trkpt>
      <trkpt lat="45.08224" lon="4.87483">
        <ele>171.32499694824</ele>
        <time>2010-02-26T13:19:02Z</time>
      </trkpt>
      <trkpt lat="45.08182" lon="4.87435">
        <ele>169.27400207519</ele>
        <time>2010-02-26T13:19:08Z</time>
      </trkpt>
      <trkpt lat="45.08168" lon="4.87419">
        <ele>168.34899902344</ele>
        <time>2010-02-26T13:19:10Z</time>
      </trkpt>
      <trkpt lat="45.08113" lon="4.87352">
        <ele>167.60200500488</ele>
        <time>2010-02-26T13:19:18Z</time>
      </trkpt>
      <trkpt lat="45.08107" lon="4.87344">
        <ele>168.19099426269</ele>
        <time>2010-02-26T13:19:19Z</time>
      </trkpt>
      <trkpt lat="45.08069" lon="4.87269">
        <ele>167.92999267578</ele>
        <time>2010-02-26T13:19:27Z</time>
      </trkpt>
      <trkpt lat="45.08022" lon="4.87199">
        <ele>164.75700378418</ele>
        <time>2010-02-26T13:19:35Z</time>
      </trkpt>
      <trkpt lat="45.07985" lon="4.87146">
        <ele>163.91000366211</ele>
        <time>2010-02-26T13:19:41Z</time>
      </trkpt>
      <trkpt lat="45.07972" lon="4.87128">
        <ele>163.56199645996</ele>
        <time>2010-02-26T13:19:43Z</time>
      </trkpt>
      <trkpt lat="45.07958" lon="4.8711">
        <ele>162.41799926758</ele>
        <time>2010-02-26T13:19:45Z</time>
      </trkpt>
      <trkpt lat="45.07919" lon="4.87074">
        <ele>160.03399658203</ele>
        <time>2010-02-26T13:19:50Z</time>
      </trkpt>
      <trkpt lat="45.07861" lon="4.87032">
        <ele>157.9640045166</ele>
        <time>2010-02-26T13:19:57Z</time>
      </trkpt>
      <trkpt lat="45.07792" lon="4.86981">
        <ele>155.34300231934</ele>
        <time>2010-02-26T13:20:05Z</time>
      </trkpt>
      <trkpt lat="45.07764" lon="4.86938">
        <ele>155.55099487305</ele>
        <time>2010-02-26T13:20:09Z</time>
      </trkpt>
      <trkpt lat="45.07721" lon="4.86841">
        <ele>153.52799987793</ele>
        <time>2010-02-26T13:20:17Z</time>
      </trkpt>
      <trkpt lat="45.07676" lon="4.86739">
        <ele>152.34700012207</ele>
        <time>2010-02-26T13:20:26Z</time>
      </trkpt>
      <trkpt lat="45.07644" lon="4.86673">
        <ele>151.51600646973</ele>
        <time>2010-02-26T13:20:32Z</time>
      </trkpt>
      <trkpt lat="45.07599" lon="4.86624">
        <ele>150.58700561523</ele>
        <time>2010-02-26T13:20:38Z</time>
      </trkpt>
      <trkpt lat="45.07528" lon="4.86557">
        <ele>148.5359954834</ele>
        <time>2010-02-26T13:20:47Z</time>
      </trkpt>
      <trkpt lat="45.07489" lon="4.86515">
        <ele>149.49800109863</ele>
        <time>2010-02-26T13:20:53Z</time>
      </trkpt>
      <trkpt lat="45.07458" lon="4.86468">
        <ele>149.72399902344</ele>
        <time>2010-02-26T13:20:59Z</time>
      </trkpt>
      <trkpt lat="45.07409" lon="4.86392">
        <ele>148.4700012207</ele>
        <time>2010-02-26T13:21:08Z</time>
      </trkpt>
      <trkpt lat="45.0738" lon="4.8634">
        <ele>147.27099609375</ele>
        <time>2010-02-26T13:21:14Z</time>
      </trkpt>
      <trkpt lat="45.07372" lon="4.86324">
        <ele>147.02799987793</ele>
        <time>2010-02-26T13:21:16Z</time>
      </trkpt>
      <trkpt lat="45.07371" lon="4.86307">
        <ele>146.28500366211</ele>
        <time>2010-02-26T13:21:19Z</time>
      </trkpt>
      <trkpt lat="45.07381" lon="4.86299">
        <ele>146.64500427246</ele>
        <time>2010-02-26T13:21:22Z</time>
      </trkpt>
      <trkpt lat="45.07389" lon="4.86296">
        <ele>146.53900146484</ele>
        <time>2010-02-26T13:21:24Z</time>
      </trkpt>
      <trkpt lat="45.07433" lon="4.86279">
        <ele>146.62800598144</ele>
        <time>2010-02-26T13:21:32Z</time>
      </trkpt>
      <trkpt lat="45.07483" lon="4.86265">
        <ele>147.66400146484</ele>
        <time>2010-02-26T13:21:40Z</time>
      </trkpt>
      <trkpt lat="45.07521" lon="4.86263">
        <ele>147.99499511719</ele>
        <time>2010-02-26T13:21:46Z</time>
      </trkpt>
      <trkpt lat="45.07567" lon="4.8627">
        <ele>149.84199523926</ele>
        <time>2010-02-26T13:21:54Z</time>
      </trkpt>
      <trkpt lat="45.07613" lon="4.86275">
        <ele>151.77000427246</ele>
        <time>2010-02-26T13:22:02Z</time>
      </trkpt>
      <trkpt lat="45.07649" lon="4.86283">
        <ele>153.14300537109</ele>
        <time>2010-02-26T13:22:09Z</time>
      </trkpt>
      <trkpt lat="45.07659" lon="4.86285">
        <ele>153.39900207519</ele>
        <time>2010-02-26T13:22:11Z</time>
      </trkpt>
      <trkpt lat="45.07674" lon="4.86287">
        <ele>153.77900695801</ele>
        <time>2010-02-26T13:22:14Z</time>
      </trkpt>
      <trkpt lat="45.07711" lon="4.86292">
        <ele>154.75399780273</ele>
        <time>2010-02-26T13:22:21Z</time>
      </trkpt>
      <trkpt lat="45.07746" lon="4.86292">
        <ele>154.38200378418</ele>
        <time>2010-02-26T13:22:27Z</time>
      </trkpt>
      <trkpt lat="45.07782" lon="4.86285">
        <ele>154.83399963379</ele>
        <time>2010-02-26T13:22:33Z</time>
      </trkpt>
      <trkpt lat="45.07827" lon="4.86284">
        <ele>155.66700744629</ele>
        <time>2010-02-26T13:22:40Z</time>
      </trkpt>
      <trkpt lat="45.0787" lon="4.86282">
        <ele>156.55799865723</ele>
        <time>2010-02-26T13:22:48Z</time>
      </trkpt>
      <trkpt lat="45.07872" lon="4.86281">
        <ele>156.58399963379</ele>
        <time>2010-02-26T13:22:49Z</time>
      </trkpt>
      <trkpt lat="45.07874" lon="4.86279">
        <ele>156.90800476074</ele>
        <time>2010-02-26T13:22:50Z</time>
      </trkpt>
      <trkpt lat="45.07874" lon="4.86284">
        <ele>156.60899353027</ele>
        <time>2010-02-26T13:22:55Z</time>
      </trkpt>
      <trkpt lat="45.07872" lon="4.86284">
        <ele>156.51899719238</ele>
        <time>2010-02-26T13:22:56Z</time>
      </trkpt>
      <trkpt lat="45.0785" lon="4.86282">
        <ele>155.89500427246</ele>
        <time>2010-02-26T13:23:02Z</time>
      </trkpt>
      <trkpt lat="45.07816" lon="4.8628">
        <ele>155.04100036621</ele>
        <time>2010-02-26T13:23:08Z</time>
      </trkpt>
      <trkpt lat="45.07788" lon="4.8628">
        <ele>154.6549987793</ele>
        <time>2010-02-26T13:23:12Z</time>
      </trkpt>
      <trkpt lat="45.07735" lon="4.86291">
        <ele>154.54499816894</ele>
        <time>2010-02-26T13:23:20Z</time>
      </trkpt>
      <trkpt lat="45.07678" lon="4.86286">
        <ele>153.96699523926</ele>
        <time>2010-02-26T13:23:28Z</time>
      </trkpt>
      <trkpt lat="45.07638" lon="4.8628">
        <ele>153.26400756836</ele>
        <time>2010-02-26T13:23:34Z</time>
      </trkpt>
      <trkpt lat="45.07604" lon="4.86273">
        <ele>151.68299865723</ele>
        <time>2010-02-26T13:23:39Z</time>
      </trkpt>
      <trkpt lat="45.07565" lon="4.8627">
        <ele>150.34300231934</ele>
        <time>2010-02-26T13:23:45Z</time>
      </trkpt>
      <trkpt lat="45.07521" lon="4.86263">
        <ele>148.64700317383</ele>
        <time>2010-02-26T13:23:52Z</time>
      </trkpt>
      <trkpt lat="45.07474" lon="4.86266">
        <ele>147.85600280762</ele>
        <time>2010-02-26T13:23:59Z</time>
      </trkpt>
      <trkpt lat="45.07426" lon="4.86282">
        <ele>147.81300354004</ele>
        <time>2010-02-26T13:24:06Z</time>
      </trkpt>
      <trkpt lat="45.07375" lon="4.86304">
        <ele>147.33599853516</ele>
        <time>2010-02-26T13:24:14Z</time>
      </trkpt>
      <trkpt lat="45.07371" lon="4.86305">
        <ele>147.53900146484</ele>
        <time>2010-02-26T13:24:15Z</time>
      </trkpt>
      <trkpt lat="45.07368" lon="4.86306">
        <ele>147.38200378418</ele>
        <time>2010-02-26T13:24:16Z</time>
      </trkpt>
      <trkpt lat="45.07365" lon="4.86325">
        <ele>147.42900085449</ele>
        <time>2010-02-26T13:24:21Z</time>
      </trkpt>
      <trkpt lat="45.07367" lon="4.8633">
        <ele>147.49200439453</ele>
        <time>2010-02-26T13:24:22Z</time>
      </trkpt>
      <trkpt lat="45.07385" lon="4.86366">
        <ele>148.63900756836</ele>
        <time>2010-02-26T13:24:28Z</time>
      </trkpt>
      <trkpt lat="45.074" lon="4.86393">
        <ele>149.16200256348</ele>
        <time>2010-02-26T13:24:32Z</time>
      </trkpt>
      <trkpt lat="45.0743" lon="4.8644">
        <ele>149.94099426269</ele>
        <time>2010-02-26T13:24:39Z</time>
      </trkpt>
      <trkpt lat="45.07471" lon="4.86503">
        <ele>150.15899658203</ele>
        <time>2010-02-26T13:24:48Z</time>
      </trkpt>
      <trkpt lat="45.07508" lon="4.86551">
        <ele>149.65299987793</ele>
        <time>2010-02-26T13:24:55Z</time>
      </trkpt>
      <trkpt lat="45.07549" lon="4.8659">
        <ele>149.81799316406</ele>
        <time>2010-02-26T13:25:02Z</time>
      </trkpt>
      <trkpt lat="45.07589" lon="4.86629">
        <ele>150.90699768066</ele>
        <time>2010-02-26T13:25:10Z</time>
      </trkpt>
      <trkpt lat="45.07621" lon="4.86659">
        <ele>152.03999328613</ele>
        <time>2010-02-26T13:25:17Z</time>
      </trkpt>
      <trkpt lat="45.07647" lon="4.86685">
        <ele>152.80499267578</ele>
        <time>2010-02-26T13:25:23Z</time>
      </trkpt>
      <trkpt lat="45.07663" lon="4.86706">
        <ele>153.10800170898</ele>
        <time>2010-02-26T13:25:27Z</time>
      </trkpt>
      <trkpt lat="45.07674" lon="4.86718">
        <ele>154.43899536133</ele>
        <time>2010-02-26T13:25:30Z</time>
      </trkpt>
      <trkpt lat="45.07685" lon="4.86728">
        <ele>155.67199707031</ele>
        <time>2010-02-26T13:25:33Z</time>
      </trkpt>
      <trkpt lat="45.0771" lon="4.8674">
        <ele>157.87800598144</ele>
        <time>2010-02-26T13:25:39Z</time>
      </trkpt>
      <trkpt lat="45.07722" lon="4.86745">
        <ele>157.91999816894</ele>
        <time>2010-02-26T13:25:42Z</time>
      </trkpt>
      <trkpt lat="45.07744" lon="4.86755">
        <ele>161.2619934082</ele>
        <time>2010-02-26T13:25:49Z</time>
      </trkpt>
      <trkpt lat="45.07749" lon="4.86757">
        <ele>162.03799438477</ele>
        <time>2010-02-26T13:25:51Z</time>
      </trkpt>
      <trkpt lat="45.07763" lon="4.86761">
        <ele>164.2559967041</ele>
        <time>2010-02-26T13:25:56Z</time>
      </trkpt>
      <trkpt lat="45.07769" lon="4.8675">
        <ele>165.49600219727</ele>
        <time>2010-02-26T13:26:00Z</time>
      </trkpt>
      <trkpt lat="45.07764" lon="4.86722">
        <ele>167.45199584961</ele>
        <time>2010-02-26T13:26:07Z</time>
      </trkpt>
      <trkpt lat="45.07753" lon="4.86696">
        <ele>169.82800292969</ele>
        <time>2010-02-26T13:26:14Z</time>
      </trkpt>
      <trkpt lat="45.07748" lon="4.86672">
        <ele>171.51800537109</ele>
        <time>2010-02-26T13:26:21Z</time>
      </trkpt>
      <trkpt lat="45.07735" lon="4.86655">
        <ele>172.73500061035</ele>
        <time>2010-02-26T13:26:27Z</time>
      </trkpt>
      <trkpt lat="45.07716" lon="4.8665">
        <ele>174.16200256348</ele>
        <time>2010-02-26T13:26:33Z</time>
      </trkpt>
      <trkpt lat="45.07698" lon="4.86638">
        <ele>175.94500732422</ele>
        <time>2010-02-26T13:26:39Z</time>
      </trkpt>
      <trkpt lat="45.0768" lon="4.86622">
        <ele>177.50700378418</ele>
        <time>2010-02-26T13:26:46Z</time>
      </trkpt>
      <trkpt lat="45.07668" lon="4.86606">
        <ele>178.74099731445</ele>
        <time>2010-02-26T13:26:52Z</time>
      </trkpt>
      <trkpt lat="45.07656" lon="4.86584">
        <ele>179.8390045166</ele>
        <time>2010-02-26T13:26:59Z</time>
      </trkpt>
      <trkpt lat="45.07651" lon="4.86576">
        <ele>181.19200134277</ele>
        <time>2010-02-26T13:27:02Z</time>
      </trkpt>
      <trkpt lat="45.07649" lon="4.86573">
        <ele>181.42799377441</ele>
        <time>2010-02-26T13:27:03Z</time>
      </trkpt>
      <trkpt lat="45.07655" lon="4.86565">
        <ele>183.24499511719</ele>
        <time>2010-02-26T13:27:08Z</time>
      </trkpt>
      <trkpt lat="45.0766" lon="4.86572">
        <ele>183.80900573731</ele>
        <time>2010-02-26T13:27:11Z</time>
      </trkpt>
      <trkpt lat="45.07676" lon="4.86589">
        <ele>185.71099853516</ele>
        <time>2010-02-26T13:27:18Z</time>
      </trkpt>
      <trkpt lat="45.07697" lon="4.866">
        <ele>187.11399841309</ele>
        <time>2010-02-26T13:27:25Z</time>
      </trkpt>
      <trkpt lat="45.07722" lon="4.86603">
        <ele>188.19200134277</ele>
        <time>2010-02-26T13:27:32Z</time>
      </trkpt>
      <trkpt lat="45.07747" lon="4.86606">
        <ele>190.10099792481</ele>
        <time>2010-02-26T13:27:39Z</time>
      </trkpt>
      <trkpt lat="45.07768" lon="4.86607">
        <ele>192.34399414062</ele>
        <time>2010-02-26T13:27:46Z</time>
      </trkpt>
      <trkpt lat="45.07792" lon="4.86612">
        <ele>193.69099426269</ele>
        <time>2010-02-26T13:27:53Z</time>
      </trkpt>
      <trkpt lat="45.0782" lon="4.86625">
        <ele>195.33299255371</ele>
        <time>2010-02-26T13:28:01Z</time>
      </trkpt>
      <trkpt lat="45.07844" lon="4.86636">
        <ele>197.63800048828</ele>
        <time>2010-02-26T13:28:09Z</time>
      </trkpt>
      <trkpt lat="45.0787" lon="4.8665">
        <ele>199.09399414062</ele>
        <time>2010-02-26T13:28:17Z</time>
      </trkpt>
      <trkpt lat="45.07892" lon="4.86664">
        <ele>200.70199584961</ele>
        <time>2010-02-26T13:28:24Z</time>
      </trkpt>
      <trkpt lat="45.07909" lon="4.86673">
        <ele>202.57600402832</ele>
        <time>2010-02-26T13:28:30Z</time>
      </trkpt>
      <trkpt lat="45.07922" lon="4.86684">
        <ele>204.03900146484</ele>
        <time>2010-02-26T13:28:36Z</time>
      </trkpt>
      <trkpt lat="45.07936" lon="4.86693">
        <ele>205.84899902344</ele>
        <time>2010-02-26T13:28:42Z</time>
      </trkpt>
      <trkpt lat="45.07955" lon="4.86703">
        <ele>206.5890045166</ele>
        <time>2010-02-26T13:28:49Z</time>
      </trkpt>
      <trkpt lat="45.07976" lon="4.86709">
        <ele>207.47500610352</ele>
        <time>2010-02-26T13:28:56Z</time>
      </trkpt>
      <trkpt lat="45.07994" lon="4.86713">
        <ele>208.82200622559</ele>
        <time>2010-02-26T13:29:02Z</time>
      </trkpt>
      <trkpt lat="45.08011" lon="4.86718">
        <ele>210.7619934082</ele>
        <time>2010-02-26T13:29:08Z</time>
      </trkpt>
      <trkpt lat="45.08031" lon="4.86722">
        <ele>211.58200073242</ele>
        <time>2010-02-26T13:29:14Z</time>
      </trkpt>
      <trkpt lat="45.08054" lon="4.86727">
        <ele>213.15199279785</ele>
        <time>2010-02-26T13:29:20Z</time>
      </trkpt>
      <trkpt lat="45.08087" lon="4.86734">
        <ele>214.27099609375</ele>
        <time>2010-02-26T13:29:28Z</time>
      </trkpt>
      <trkpt lat="45.08091" lon="4.86735">
        <ele>214.56700134277</ele>
        <time>2010-02-26T13:29:29Z</time>
      </trkpt>
      <trkpt lat="45.0812" lon="4.86741">
        <ele>215.41799926758</ele>
        <time>2010-02-26T13:29:36Z</time>
      </trkpt>
      <trkpt lat="45.08154" lon="4.86744">
        <ele>215.33999633789</ele>
        <time>2010-02-26T13:29:43Z</time>
      </trkpt>
      <trkpt lat="45.08193" lon="4.86747">
        <ele>214.89500427246</ele>
        <time>2010-02-26T13:29:50Z</time>
      </trkpt>
      <trkpt lat="45.08211" lon="4.86746">
        <ele>215.05900573731</ele>
        <time>2010-02-26T13:29:53Z</time>
      </trkpt>
      <trkpt lat="45.08223" lon="4.86748">
        <ele>214.875</ele>
        <time>2010-02-26T13:29:55Z</time>
      </trkpt>
      <trkpt lat="45.08271" lon="4.86747">
        <ele>215.00999450684</ele>
        <time>2010-02-26T13:30:03Z</time>
      </trkpt>
      <trkpt lat="45.08326" lon="4.86746">
        <ele>215.81500244141</ele>
        <time>2010-02-26T13:30:13Z</time>
      </trkpt>
      <trkpt lat="45.08377" lon="4.86744">
        <ele>216.56399536133</ele>
        <time>2010-02-26T13:30:22Z</time>
      </trkpt>
      <trkpt lat="45.08422" lon="4.86747">
        <ele>217.46099853516</ele>
        <time>2010-02-26T13:30:30Z</time>
      </trkpt>
      <trkpt lat="45.08457" lon="4.86752">
        <ele>218.16900634766</ele>
        <time>2010-02-26T13:30:36Z</time>
      </trkpt>
      <trkpt lat="45.08486" lon="4.86756">
        <ele>218.38600158691</ele>
        <time>2010-02-26T13:30:41Z</time>
      </trkpt>
      <trkpt lat="45.08539" lon="4.86764">
        <ele>218.58599853516</ele>
        <time>2010-02-26T13:30:50Z</time>
      </trkpt>
      <trkpt lat="45.08583" lon="4.86774">
        <ele>219.21499633789</ele>
        <time>2010-02-26T13:30:58Z</time>
      </trkpt>
      <trkpt lat="45.08633" lon="4.86799">
        <ele>219.71099853516</ele>
        <time>2010-02-26T13:31:07Z</time>
      </trkpt>
      <trkpt lat="45.08661" lon="4.86819">
        <ele>219.64999389648</ele>
        <time>2010-02-26T13:31:12Z</time>
      </trkpt>
      <trkpt lat="45.08709" lon="4.8685">
        <ele>219.56900024414</ele>
        <time>2010-02-26T13:31:20Z</time>
      </trkpt>
      <trkpt lat="45.08758" lon="4.86877">
        <ele>220.08200073242</ele>
        <time>2010-02-26T13:31:28Z</time>
      </trkpt>
      <trkpt lat="45.08806" lon="4.86903">
        <ele>220.67100524902</ele>
        <time>2010-02-26T13:31:36Z</time>
      </trkpt>
      <trkpt lat="45.08851" lon="4.86925">
        <ele>220.63499450684</ele>
        <time>2010-02-26T13:31:44Z</time>
      </trkpt>
      <trkpt lat="45.08905" lon="4.86953">
        <ele>222.77600097656</ele>
        <time>2010-02-26T13:31:54Z</time>
      </trkpt>
      <trkpt lat="45.08949" lon="4.86973">
        <ele>223.77600097656</ele>
        <time>2010-02-26T13:32:02Z</time>
      </trkpt>
      <trkpt lat="45.08995" lon="4.86998">
        <ele>224.68299865723</ele>
        <time>2010-02-26T13:32:11Z</time>
      </trkpt>
      <trkpt lat="45.09031" lon="4.87028">
        <ele>225.77200317383</ele>
        <time>2010-02-26T13:32:19Z</time>
      </trkpt>
      <trkpt lat="45.09069" lon="4.87059">
        <ele>225.17999267578</ele>
        <time>2010-02-26T13:32:27Z</time>
      </trkpt>
      <trkpt lat="45.09105" lon="4.87096">
        <ele>225.01300048828</ele>
        <time>2010-02-26T13:32:34Z</time>
      </trkpt>
      <trkpt lat="45.09147" lon="4.87143">
        <ele>225.18400573731</ele>
        <time>2010-02-26T13:32:42Z</time>
      </trkpt>
      <trkpt lat="45.09184" lon="4.87181">
        <ele>225.2380065918</ele>
        <time>2010-02-26T13:32:49Z</time>
      </trkpt>
      <trkpt lat="45.09198" lon="4.87194">
        <ele>225.71099853516</ele>
        <time>2010-02-26T13:32:52Z</time>
      </trkpt>
      <trkpt lat="45.0922" lon="4.87202">
        <ele>225.78500366211</ele>
        <time>2010-02-26T13:32:56Z</time>
      </trkpt>
      <trkpt lat="45.09251" lon="4.87207">
        <ele>226.80200195312</ele>
        <time>2010-02-26T13:33:02Z</time>
      </trkpt>
      <trkpt lat="45.09277" lon="4.87215">
        <ele>227.70500183106</ele>
        <time>2010-02-26T13:33:07Z</time>
      </trkpt>
      <trkpt lat="45.09318" lon="4.87231">
        <ele>228.05599975586</ele>
        <time>2010-02-26T13:33:16Z</time>
      </trkpt>
      <trkpt lat="45.0935" lon="4.87246">
        <ele>229.36199951172</ele>
        <time>2010-02-26T13:33:24Z</time>
      </trkpt>
      <trkpt lat="45.09378" lon="4.87266">
        <ele>230.36599731445</ele>
        <time>2010-02-26T13:33:31Z</time>
      </trkpt>
      <trkpt lat="45.09411" lon="4.873">
        <ele>232.00500488281</ele>
        <time>2010-02-26T13:33:40Z</time>
      </trkpt>
      <trkpt lat="45.09439" lon="4.87332">
        <ele>233.7619934082</ele>
        <time>2010-02-26T13:33:48Z</time>
      </trkpt>
      <trkpt lat="45.09473" lon="4.87365">
        <ele>235.54299926758</ele>
        <time>2010-02-26T13:33:57Z</time>
      </trkpt>
      <trkpt lat="45.09486" lon="4.87377">
        <ele>235.86999511719</ele>
        <time>2010-02-26T13:34:00Z</time>
      </trkpt>
      <trkpt lat="45.09527" lon="4.87403">
        <ele>236.04299926758</ele>
        <time>2010-02-26T13:34:08Z</time>
      </trkpt>
      <trkpt lat="45.09533" lon="4.87406">
        <ele>235.79299926758</ele>
        <time>2010-02-26T13:34:09Z</time>
      </trkpt>
      <trkpt lat="45.09579" lon="4.87421">
        <ele>234.25900268555</ele>
        <time>2010-02-26T13:34:16Z</time>
      </trkpt>
      <trkpt lat="45.09619" lon="4.87428">
        <ele>232.06100463867</ele>
        <time>2010-02-26T13:34:21Z</time>
      </trkpt>
      <trkpt lat="45.09645" lon="4.87427">
        <ele>230.19700622559</ele>
        <time>2010-02-26T13:34:24Z</time>
      </trkpt>
      <trkpt lat="45.09698" lon="4.87421">
        <ele>228.74800109863</ele>
        <time>2010-02-26T13:34:30Z</time>
      </trkpt>
      <trkpt lat="45.09753" lon="4.87414">
        <ele>227.62800598144</ele>
        <time>2010-02-26T13:34:36Z</time>
      </trkpt>
      <trkpt lat="45.09793" lon="4.8742">
        <ele>228.45199584961</ele>
        <time>2010-02-26T13:34:41Z</time>
      </trkpt>
      <trkpt lat="45.09851" lon="4.87434">
        <ele>227.28300476074</ele>
        <time>2010-02-26T13:34:48Z</time>
      </trkpt>
      <trkpt lat="45.0986" lon="4.87436">
        <ele>226.92599487305</ele>
        <time>2010-02-26T13:34:49Z</time>
      </trkpt>
      <trkpt lat="45.09908" lon="4.87436">
        <ele>227.27799987793</ele>
        <time>2010-02-26T13:34:55Z</time>
      </trkpt>
      <trkpt lat="45.09923" lon="4.87433">
        <ele>227.74299621582</ele>
        <time>2010-02-26T13:34:57Z</time>
      </trkpt>
      <trkpt lat="45.09963" lon="4.87415">
        <ele>228.36199951172</ele>
        <time>2010-02-26T13:35:03Z</time>
      </trkpt>
      <trkpt lat="45.09995" lon="4.87391">
        <ele>229.35200500488</ele>
        <time>2010-02-26T13:35:09Z</time>
      </trkpt>
      <trkpt lat="45.10023" lon="4.87368">
        <ele>231.11500549316</ele>
        <time>2010-02-26T13:35:16Z</time>
      </trkpt>
      <trkpt lat="45.10054" lon="4.87348">
        <ele>233.12399291992</ele>
        <time>2010-02-26T13:35:25Z</time>
      </trkpt>
      <trkpt lat="45.10085" lon="4.87341">
        <ele>234.68600463867</ele>
        <time>2010-02-26T13:35:33Z</time>
      </trkpt>
      <trkpt lat="45.10093" lon="4.87341">
        <ele>234.63499450684</ele>
        <time>2010-02-26T13:35:35Z</time>
      </trkpt>
      <trkpt lat="45.10109" lon="4.8734">
        <ele>235.3690032959</ele>
        <time>2010-02-26T13:35:39Z</time>
      </trkpt>
      <trkpt lat="45.10133" lon="4.87342">
        <ele>237.15400695801</ele>
        <time>2010-02-26T13:35:45Z</time>
      </trkpt>
      <trkpt lat="45.10145" lon="4.87342">
        <ele>237.70300292969</ele>
        <time>2010-02-26T13:35:48Z</time>
      </trkpt>
      <trkpt lat="45.10161" lon="4.8734">
        <ele>238.49899291992</ele>
        <time>2010-02-26T13:35:52Z</time>
      </trkpt>
      <trkpt lat="45.10177" lon="4.87333">
        <ele>238.88900756836</ele>
        <time>2010-02-26T13:35:56Z</time>
      </trkpt>
      <trkpt lat="45.10215" lon="4.87308">
        <ele>239.39599609375</ele>
        <time>2010-02-26T13:36:06Z</time>
      </trkpt>
      <trkpt lat="45.10232" lon="4.87295">
        <ele>239.07499694824</ele>
        <time>2010-02-26T13:36:11Z</time>
      </trkpt>
      <trkpt lat="45.10248" lon="4.87292">
        <ele>237.20500183106</ele>
        <time>2010-02-26T13:36:15Z</time>
      </trkpt>
      <trkpt lat="45.10252" lon="4.87311">
        <ele>237.20500183106</ele>
        <time>2010-02-26T13:36:18Z</time>
      </trkpt>
      <trkpt lat="45.10252" lon="4.87318">
        <ele>237.09899902344</ele>
        <time>2010-02-26T13:36:19Z</time>
      </trkpt>
      <trkpt lat="45.10251" lon="4.87333">
        <ele>236.84199523926</ele>
        <time>2010-02-26T13:36:21Z</time>
      </trkpt>
      <trkpt lat="45.10251" lon="4.87371">
        <ele>234.2140045166</ele>
        <time>2010-02-26T13:36:25Z</time>
      </trkpt>
      <trkpt lat="45.10263" lon="4.87421">
        <ele>228.74099731445</ele>
        <time>2010-02-26T13:36:29Z</time>
      </trkpt>
      <trkpt lat="45.10269" lon="4.87433">
        <ele>228.14999389648</ele>
        <time>2010-02-26T13:36:30Z</time>
      </trkpt>
      <trkpt lat="45.10313" lon="4.87517">
        <ele>220.95100402832</ele>
        <time>2010-02-26T13:36:36Z</time>
      </trkpt>
      <trkpt lat="45.1034" lon="4.87583">
        <ele>215.74299621582</ele>
        <time>2010-02-26T13:36:40Z</time>
      </trkpt>
      <trkpt lat="45.10353" lon="4.87618">
        <ele>212.71800231934</ele>
        <time>2010-02-26T13:36:42Z</time>
      </trkpt>
      <trkpt lat="45.1036" lon="4.87636">
        <ele>211.79400634766</ele>
        <time>2010-02-26T13:36:43Z</time>
      </trkpt>
      <trkpt lat="45.10399" lon="4.87744">
        <ele>205.56599426269</ele>
        <time>2010-02-26T13:36:49Z</time>
      </trkpt>
      <trkpt lat="45.10428" lon="4.87837">
        <ele>201.5890045166</ele>
        <time>2010-02-26T13:36:54Z</time>
      </trkpt>
      <trkpt lat="45.1044" lon="4.87915">
        <ele>198.78100585938</ele>
        <time>2010-02-26T13:36:58Z</time>
      </trkpt>
      <trkpt lat="45.10447" lon="4.87971">
        <ele>198.14300537109</ele>
        <time>2010-02-26T13:37:01Z</time>
      </trkpt>
      <trkpt lat="45.10443" lon="4.88028">
        <ele>198.29299926758</ele>
        <time>2010-02-26T13:37:05Z</time>
      </trkpt>
      <trkpt lat="45.1044" lon="4.88047">
        <ele>198.37300109863</ele>
        <time>2010-02-26T13:37:07Z</time>
      </trkpt>
      <trkpt lat="45.10447" lon="4.88076">
        <ele>197.95300292969</ele>
        <time>2010-02-26T13:37:11Z</time>
      </trkpt>
      <trkpt lat="45.10453" lon="4.8808">
        <ele>197.69200134277</ele>
        <time>2010-02-26T13:37:12Z</time>
      </trkpt>
      <trkpt lat="45.10464" lon="4.88087">
        <ele>197.21299743652</ele>
        <time>2010-02-26T13:37:14Z</time>
      </trkpt>
      <trkpt lat="45.10504" lon="4.88104">
        <ele>195.53500366211</ele>
        <time>2010-02-26T13:37:20Z</time>
      </trkpt>
      <trkpt lat="45.10541" lon="4.88117">
        <ele>195.12100219727</ele>
        <time>2010-02-26T13:37:25Z</time>
      </trkpt>
      <trkpt lat="45.10563" lon="4.88126">
        <ele>195.66600036621</ele>
        <time>2010-02-26T13:37:28Z</time>
      </trkpt>
      <trkpt lat="45.10603" lon="4.88168">
        <ele>196.40400695801</ele>
        <time>2010-02-26T13:37:35Z</time>
      </trkpt>
      <trkpt lat="45.10628" lon="4.88192">
        <ele>196.75900268555</ele>
        <time>2010-02-26T13:37:39Z</time>
      </trkpt>
      <trkpt lat="45.10646" lon="4.88207">
        <ele>197.23399353027</ele>
        <time>2010-02-26T13:37:42Z</time>
      </trkpt>
      <trkpt lat="45.10702" lon="4.88251">
        <ele>198.18600463867</ele>
        <time>2010-02-26T13:37:51Z</time>
      </trkpt>
      <trkpt lat="45.10757" lon="4.88292">
        <ele>199.4880065918</ele>
        <time>2010-02-26T13:38:00Z</time>
      </trkpt>
      <trkpt lat="45.10775" lon="4.88302">
        <ele>199.94700622559</ele>
        <time>2010-02-26T13:38:03Z</time>
      </trkpt>
      <trkpt lat="45.10826" lon="4.88308">
        <ele>200.70100402832</ele>
        <time>2010-02-26T13:38:11Z</time>
      </trkpt>
      <trkpt lat="45.10839" lon="4.88308">
        <ele>201.01100158691</ele>
        <time>2010-02-26T13:38:13Z</time>
      </trkpt>
      <trkpt lat="45.10865" lon="4.88324">
        <ele>202.41700744629</ele>
        <time>2010-02-26T13:38:18Z</time>
      </trkpt>
      <trkpt lat="45.10871" lon="4.88338">
        <ele>202.40199279785</ele>
        <time>2010-02-26T13:38:20Z</time>
      </trkpt>
      <trkpt lat="45.10893" lon="4.88402">
        <ele>202.24200439453</ele>
        <time>2010-02-26T13:38:28Z</time>
      </trkpt>
      <trkpt lat="45.10913" lon="4.88457">
        <ele>202.15400695801</ele>
        <time>2010-02-26T13:38:34Z</time>
      </trkpt>
      <trkpt lat="45.10931" lon="4.88486">
        <ele>203.01800537109</ele>
        <time>2010-02-26T13:38:38Z</time>
      </trkpt>
      <trkpt lat="45.10976" lon="4.88526">
        <ele>203.38200378418</ele>
        <time>2010-02-26T13:38:46Z</time>
      </trkpt>
      <trkpt lat="45.11016" lon="4.88559">
        <ele>204.44599914551</ele>
        <time>2010-02-26T13:38:53Z</time>
      </trkpt>
      <trkpt lat="45.11051" lon="4.88587">
        <ele>205.4109954834</ele>
        <time>2010-02-26T13:38:59Z</time>
      </trkpt>
      <trkpt lat="45.11099" lon="4.88627">
        <ele>207.22200012207</ele>
        <time>2010-02-26T13:39:08Z</time>
      </trkpt>
      <trkpt lat="45.11136" lon="4.88657">
        <ele>208.5</ele>
        <time>2010-02-26T13:39:16Z</time>
      </trkpt>
      <trkpt lat="45.11173" lon="4.88683">
        <ele>210.46299743652</ele>
        <time>2010-02-26T13:39:24Z</time>
      </trkpt>
      <trkpt lat="45.11205" lon="4.88704">
        <ele>211.62199401856</ele>
        <time>2010-02-26T13:39:31Z</time>
      </trkpt>
      <trkpt lat="45.11219" lon="4.88713">
        <ele>212.10400390625</ele>
        <time>2010-02-26T13:39:34Z</time>
      </trkpt>
      <trkpt lat="45.11229" lon="4.88736">
        <ele>212.65199279785</ele>
        <time>2010-02-26T13:39:38Z</time>
      </trkpt>
      <trkpt lat="45.11223" lon="4.88756">
        <ele>212.20100402832</ele>
        <time>2010-02-26T13:39:41Z</time>
      </trkpt>
      <trkpt lat="45.11216" lon="4.88769">
        <ele>212.08599853516</ele>
        <time>2010-02-26T13:39:43Z</time>
      </trkpt>
      <trkpt lat="45.11195" lon="4.88811">
        <ele>210.88900756836</ele>
        <time>2010-02-26T13:39:49Z</time>
      </trkpt>
      <trkpt lat="45.11177" lon="4.8885">
        <ele>209.0299987793</ele>
        <time>2010-02-26T13:39:54Z</time>
      </trkpt>
      <trkpt lat="45.11159" lon="4.88888">
        <ele>206.44000244141</ele>
        <time>2010-02-26T13:39:58Z</time>
      </trkpt>
      <trkpt lat="45.11155" lon="4.88899">
        <ele>206.16900634766</ele>
        <time>2010-02-26T13:39:59Z</time>
      </trkpt>
      <trkpt lat="45.11147" lon="4.88964">
        <ele>202.88499450684</ele>
        <time>2010-02-26T13:40:04Z</time>
      </trkpt>
      <trkpt lat="45.11147" lon="4.88976">
        <ele>202.28100585938</ele>
        <time>2010-02-26T13:40:05Z</time>
      </trkpt>
      <trkpt lat="45.11139" lon="4.88998">
        <ele>201.25500488281</ele>
        <time>2010-02-26T13:40:09Z</time>
      </trkpt>
      <trkpt lat="45.11129" lon="4.88988">
        <ele>200.11500549316</ele>
        <time>2010-02-26T13:40:11Z</time>
      </trkpt>
      <trkpt lat="45.11122" lon="4.88974">
        <ele>199.83200073242</ele>
        <time>2010-02-26T13:40:13Z</time>
      </trkpt>
      <trkpt lat="45.11099" lon="4.88916">
        <ele>199.47799682617</ele>
        <time>2010-02-26T13:40:20Z</time>
      </trkpt>
      <trkpt lat="45.11069" lon="4.88838">
        <ele>199.49299621582</ele>
        <time>2010-02-26T13:40:29Z</time>
      </trkpt>
      <trkpt lat="45.11041" lon="4.88773">
        <ele>198.76100158691</ele>
        <time>2010-02-26T13:40:37Z</time>
      </trkpt>
      <trkpt lat="45.11038" lon="4.88764">
        <ele>198.95300292969</ele>
        <time>2010-02-26T13:40:38Z</time>
      </trkpt>
      <trkpt lat="45.11013" lon="4.88696">
        <ele>199.10899353027</ele>
        <time>2010-02-26T13:40:46Z</time>
      </trkpt>
      <trkpt lat="45.10981" lon="4.88632">
        <ele>199.65400695801</ele>
        <time>2010-02-26T13:40:54Z</time>
      </trkpt>
      <trkpt lat="45.1095" lon="4.88584">
        <ele>200.02200317383</ele>
        <time>2010-02-26T13:41:01Z</time>
      </trkpt>
      <trkpt lat="45.10907" lon="4.88549">
        <ele>199.09100341797</ele>
        <time>2010-02-26T13:41:08Z</time>
      </trkpt>
      <trkpt lat="45.1086" lon="4.88509">
        <ele>197.42900085449</ele>
        <time>2010-02-26T13:41:15Z</time>
      </trkpt>
      <trkpt lat="45.10815" lon="4.88469">
        <ele>196.00199890137</ele>
        <time>2010-02-26T13:41:22Z</time>
      </trkpt>
      <trkpt lat="45.1079" lon="4.88448">
        <ele>195.97399902344</ele>
        <time>2010-02-26T13:41:26Z</time>
      </trkpt>
      <trkpt lat="45.10731" lon="4.88399">
        <ele>194.85699462891</ele>
        <time>2010-02-26T13:41:35Z</time>
      </trkpt>
      <trkpt lat="45.1065" lon="4.88332">
        <ele>193.74800109863</ele>
        <time>2010-02-26T13:41:47Z</time>
      </trkpt>
      <trkpt lat="45.10602" lon="4.88293">
        <ele>193.22999572754</ele>
        <time>2010-02-26T13:41:54Z</time>
      </trkpt>
      <trkpt lat="45.10549" lon="4.88249">
        <ele>192.61999511719</ele>
        <time>2010-02-26T13:42:02Z</time>
      </trkpt>
      <trkpt lat="45.10494" lon="4.88203">
        <ele>192.94900512695</ele>
        <time>2010-02-26T13:42:11Z</time>
      </trkpt>
      <trkpt lat="45.10456" lon="4.88174">
        <ele>194.80499267578</ele>
        <time>2010-02-26T13:42:18Z</time>
      </trkpt>
      <trkpt lat="45.10415" lon="4.88158">
        <ele>195.10600280762</ele>
        <time>2010-02-26T13:42:26Z</time>
      </trkpt>
      <trkpt lat="45.10401" lon="4.88145">
        <ele>194.97599792481</ele>
        <time>2010-02-26T13:42:30Z</time>
      </trkpt>
      <trkpt lat="45.10403" lon="4.88132">
        <ele>195.48199462891</ele>
        <time>2010-02-26T13:42:32Z</time>
      </trkpt>
      <trkpt lat="45.10405" lon="4.88127">
        <ele>195.5119934082</ele>
        <time>2010-02-26T13:42:33Z</time>
      </trkpt>
      <trkpt lat="45.10424" lon="4.88081">
        <ele>196.60699462891</ele>
        <time>2010-02-26T13:42:41Z</time>
      </trkpt>
      <trkpt lat="45.10441" lon="4.88037">
        <ele>196.19700622559</ele>
        <time>2010-02-26T13:42:48Z</time>
      </trkpt>
      <trkpt lat="45.10449" lon="4.87985">
        <ele>196.61199951172</ele>
        <time>2010-02-26T13:42:55Z</time>
      </trkpt>
      <trkpt lat="45.10445" lon="4.87937">
        <ele>197.2799987793</ele>
        <time>2010-02-26T13:43:01Z</time>
      </trkpt>
      <trkpt lat="45.10435" lon="4.87861">
        <ele>198.80499267578</ele>
        <time>2010-02-26T13:43:10Z</time>
      </trkpt>
      <trkpt lat="45.10424" lon="4.87808">
        <ele>201.52600097656</ele>
        <time>2010-02-26T13:43:17Z</time>
      </trkpt>
      <trkpt lat="45.10411" lon="4.87764">
        <ele>203.45799255371</ele>
        <time>2010-02-26T13:43:23Z</time>
      </trkpt>
      <trkpt lat="45.1039" lon="4.87709">
        <ele>206.00199890137</ele>
        <time>2010-02-26T13:43:31Z</time>
      </trkpt>
      <trkpt lat="45.10374" lon="4.87666">
        <ele>208.30799865723</ele>
        <time>2010-02-26T13:43:38Z</time>
      </trkpt>
      <trkpt lat="45.1036" lon="4.87629">
        <ele>210.60899353027</ele>
        <time>2010-02-26T13:43:45Z</time>
      </trkpt>
      <trkpt lat="45.10357" lon="4.87618">
        <ele>211.54299926758</ele>
        <time>2010-02-26T13:43:48Z</time>
      </trkpt>
      <trkpt lat="45.10354" lon="4.87618">
        <ele>211.71299743652</ele>
        <time>2010-02-26T13:43:51Z</time>
      </trkpt>
      <trkpt lat="45.10361" lon="4.87637">
        <ele>209.68200683594</ele>
        <time>2010-02-26T13:43:56Z</time>
      </trkpt>
      <trkpt lat="45.10372" lon="4.87664">
        <ele>207.9109954834</ele>
        <time>2010-02-26T13:44:00Z</time>
      </trkpt>
      <trkpt lat="45.10389" lon="4.87712">
        <ele>205.47200012207</ele>
        <time>2010-02-26T13:44:05Z</time>
      </trkpt>
      <trkpt lat="45.1041" lon="4.87771">
        <ele>202.45100402832</ele>
        <time>2010-02-26T13:44:10Z</time>
      </trkpt>
      <trkpt lat="45.10426" lon="4.87824">
        <ele>200.0890045166</ele>
        <time>2010-02-26T13:44:14Z</time>
      </trkpt>
      <trkpt lat="45.1043" lon="4.87839">
        <ele>199.6309967041</ele>
        <time>2010-02-26T13:44:15Z</time>
      </trkpt>
      <trkpt lat="45.10445" lon="4.87946">
        <ele>196.06599426269</ele>
        <time>2010-02-26T13:44:22Z</time>
      </trkpt>
      <trkpt lat="45.10447" lon="4.87976">
        <ele>196.20500183106</ele>
        <time>2010-02-26T13:44:24Z</time>
      </trkpt>
      <trkpt lat="45.10447" lon="4.88005">
        <ele>196.22900390625</ele>
        <time>2010-02-26T13:44:26Z</time>
      </trkpt>
      <trkpt lat="45.1044" lon="4.88043">
        <ele>196.32099914551</ele>
        <time>2010-02-26T13:44:29Z</time>
      </trkpt>
      <trkpt lat="45.10434" lon="4.88058">
        <ele>196.30000305176</ele>
        <time>2010-02-26T13:44:31Z</time>
      </trkpt>
      <trkpt lat="45.10431" lon="4.88066">
        <ele>196.04100036621</ele>
        <time>2010-02-26T13:44:33Z</time>
      </trkpt>
      <trkpt lat="45.10435" lon="4.88071">
        <ele>196.00500488281</ele>
        <time>2010-02-26T13:44:36Z</time>
      </trkpt>
      <trkpt lat="45.10439" lon="4.88058">
        <ele>195.84899902344</ele>
        <time>2010-02-26T13:44:39Z</time>
      </trkpt>
      <trkpt lat="45.1044" lon="4.88046">
        <ele>195.85299682617</ele>
        <time>2010-02-26T13:44:41Z</time>
      </trkpt>
      <trkpt lat="45.10448" lon="4.8798">
        <ele>196.21099853516</ele>
        <time>2010-02-26T13:44:50Z</time>
      </trkpt>
      <trkpt lat="45.10443" lon="4.87928">
        <ele>196.44900512695</ele>
        <time>2010-02-26T13:44:56Z</time>
      </trkpt>
      <trkpt lat="45.10433" lon="4.87854">
        <ele>198.57299804688</ele>
        <time>2010-02-26T13:45:04Z</time>
      </trkpt>
      <trkpt lat="45.10422" lon="4.87803">
        <ele>200.56700134277</ele>
        <time>2010-02-26T13:45:10Z</time>
      </trkpt>
      <trkpt lat="45.10408" lon="4.8776">
        <ele>202.36700439453</ele>
        <time>2010-02-26T13:45:16Z</time>
      </trkpt>
      <trkpt lat="45.10392" lon="4.87717">
        <ele>204.65699768066</ele>
        <time>2010-02-26T13:45:23Z</time>
      </trkpt>
      <trkpt lat="45.10376" lon="4.87671">
        <ele>207.66000366211</ele>
        <time>2010-02-26T13:45:31Z</time>
      </trkpt>
      <trkpt lat="45.1036" lon="4.87629">
        <ele>210.04200744629</ele>
        <time>2010-02-26T13:45:39Z</time>
      </trkpt>
      <trkpt lat="45.10357" lon="4.8762">
        <ele>210.68699645996</ele>
        <time>2010-02-26T13:45:41Z</time>
      </trkpt>
      <trkpt lat="45.10353" lon="4.87619">
        <ele>210.88900756836</ele>
        <time>2010-02-26T13:45:45Z</time>
      </trkpt>
      <trkpt lat="45.10361" lon="4.87638">
        <ele>209.3390045166</ele>
        <time>2010-02-26T13:45:50Z</time>
      </trkpt>
      <trkpt lat="45.10371" lon="4.87666">
        <ele>207.80599975586</ele>
        <time>2010-02-26T13:45:54Z</time>
      </trkpt>
      <trkpt lat="45.10387" lon="4.87714">
        <ele>204.70300292969</ele>
        <time>2010-02-26T13:45:59Z</time>
      </trkpt>
      <trkpt lat="45.10413" lon="4.87784">
        <ele>201.32699584961</ele>
        <time>2010-02-26T13:46:05Z</time>
      </trkpt>
      <trkpt lat="45.1043" lon="4.87853">
        <ele>198.06700134277</ele>
        <time>2010-02-26T13:46:10Z</time>
      </trkpt>
      <trkpt lat="45.10432" lon="4.87868">
        <ele>197.84100341797</ele>
        <time>2010-02-26T13:46:11Z</time>
      </trkpt>
      <trkpt lat="45.1044" lon="4.87928">
        <ele>196.13800048828</ele>
        <time>2010-02-26T13:46:15Z</time>
      </trkpt>
      <trkpt lat="45.10444" lon="4.87957">
        <ele>195.49099731445</ele>
        <time>2010-02-26T13:46:17Z</time>
      </trkpt>
      <trkpt lat="45.10445" lon="4.87971">
        <ele>195.7559967041</ele>
        <time>2010-02-26T13:46:18Z</time>
      </trkpt>
      <trkpt lat="45.10439" lon="4.88035">
        <ele>195.75199890137</ele>
        <time>2010-02-26T13:46:23Z</time>
      </trkpt>
      <trkpt lat="45.10437" lon="4.88044">
        <ele>195.74000549316</ele>
        <time>2010-02-26T13:46:24Z</time>
      </trkpt>
      <trkpt lat="45.10429" lon="4.88067">
        <ele>195.65800476074</ele>
        <time>2010-02-26T13:46:28Z</time>
      </trkpt>
      <trkpt lat="45.10432" lon="4.88073">
        <ele>195.4109954834</ele>
        <time>2010-02-26T13:46:31Z</time>
      </trkpt>
      <trkpt lat="45.10435" lon="4.88062">
        <ele>195.38200378418</ele>
        <time>2010-02-26T13:46:34Z</time>
      </trkpt>
      <trkpt lat="45.10437" lon="4.88053">
        <ele>195.42799377441</ele>
        <time>2010-02-26T13:46:36Z</time>
      </trkpt>
      <trkpt lat="45.10442" lon="4.88042">
        <ele>195.46899414062</ele>
        <time>2010-02-26T13:46:38Z</time>
      </trkpt>
      <trkpt lat="45.10449" lon="4.87992">
        <ele>195.74499511719</ele>
        <time>2010-02-26T13:46:45Z</time>
      </trkpt>
      <trkpt lat="45.10449" lon="4.87984">
        <ele>195.82099914551</ele>
        <time>2010-02-26T13:46:46Z</time>
      </trkpt>
      <trkpt lat="45.10442" lon="4.87917">
        <ele>196.56199645996</ele>
        <time>2010-02-26T13:46:54Z</time>
      </trkpt>
      <trkpt lat="45.10434" lon="4.87857">
        <ele>197.82899475098</ele>
        <time>2010-02-26T13:47:01Z</time>
      </trkpt>
      <trkpt lat="45.10421" lon="4.87799">
        <ele>200.69599914551</ele>
        <time>2010-02-26T13:47:09Z</time>
      </trkpt>
      <trkpt lat="45.10406" lon="4.87756">
        <ele>202.46899414062</ele>
        <time>2010-02-26T13:47:16Z</time>
      </trkpt>
      <trkpt lat="45.10384" lon="4.87695">
        <ele>205.54299926758</ele>
        <time>2010-02-26T13:47:26Z</time>
      </trkpt>
      <trkpt lat="45.10369" lon="4.87654">
        <ele>207.95399475098</ele>
        <time>2010-02-26T13:47:33Z</time>
      </trkpt>
      <trkpt lat="45.10355" lon="4.87615">
        <ele>210.60299682617</ele>
        <time>2010-02-26T13:47:41Z</time>
      </trkpt>
      <trkpt lat="45.10354" lon="4.87612">
        <ele>210.77099609375</ele>
        <time>2010-02-26T13:47:42Z</time>
      </trkpt>
      <trkpt lat="45.10353" lon="4.87618">
        <ele>210.33999633789</ele>
        <time>2010-02-26T13:47:46Z</time>
      </trkpt>
      <trkpt lat="45.10364" lon="4.87644">
        <ele>208.49099731445</ele>
        <time>2010-02-26T13:47:51Z</time>
      </trkpt>
      <trkpt lat="45.10369" lon="4.87659">
        <ele>207.55499267578</ele>
        <time>2010-02-26T13:47:53Z</time>
      </trkpt>
      <trkpt lat="45.10386" lon="4.87705">
        <ele>204.71299743652</ele>
        <time>2010-02-26T13:47:58Z</time>
      </trkpt>
      <trkpt lat="45.10411" lon="4.87775">
        <ele>200.74899291992</ele>
        <time>2010-02-26T13:48:04Z</time>
      </trkpt>
      <trkpt lat="45.10419" lon="4.87801">
        <ele>200.03300476074</ele>
        <time>2010-02-26T13:48:06Z</time>
      </trkpt>
      <trkpt lat="45.10432" lon="4.87859">
        <ele>197.26600646973</ele>
        <time>2010-02-26T13:48:10Z</time>
      </trkpt>
      <trkpt lat="45.1044" lon="4.87921">
        <ele>195.35499572754</ele>
        <time>2010-02-26T13:48:14Z</time>
      </trkpt>
      <trkpt lat="45.10446" lon="4.8798">
        <ele>194.80499267578</ele>
        <time>2010-02-26T13:48:18Z</time>
      </trkpt>
      <trkpt lat="45.10441" lon="4.88032">
        <ele>194.88000488281</ele>
        <time>2010-02-26T13:48:22Z</time>
      </trkpt>
      <trkpt lat="45.10437" lon="4.88049">
        <ele>195.12100219727</ele>
        <time>2010-02-26T13:48:24Z</time>
      </trkpt>
      <trkpt lat="45.1043" lon="4.88069">
        <ele>194.77099609375</ele>
        <time>2010-02-26T13:48:28Z</time>
      </trkpt>
      <trkpt lat="45.10437" lon="4.88069">
        <ele>194.88800048828</ele>
        <time>2010-02-26T13:48:31Z</time>
      </trkpt>
      <trkpt lat="45.10439" lon="4.88053">
        <ele>194.95500183106</ele>
        <time>2010-02-26T13:48:34Z</time>
      </trkpt>
      <trkpt lat="45.10441" lon="4.88047">
        <ele>194.9880065918</ele>
        <time>2010-02-26T13:48:35Z</time>
      </trkpt>
      <trkpt lat="45.10449" lon="4.88003">
        <ele>195.40800476074</ele>
        <time>2010-02-26T13:48:41Z</time>
      </trkpt>
      <trkpt lat="45.10449" lon="4.87969">
        <ele>195.25500488281</ele>
        <time>2010-02-26T13:48:45Z</time>
      </trkpt>
      <trkpt lat="45.10441" lon="4.87906">
        <ele>196.44900512695</ele>
        <time>2010-02-26T13:48:52Z</time>
      </trkpt>
      <trkpt lat="45.10429" lon="4.87828">
        <ele>198.67100524902</ele>
        <time>2010-02-26T13:49:01Z</time>
      </trkpt>
      <trkpt lat="45.10412" lon="4.87772">
        <ele>200.95100402832</ele>
        <time>2010-02-26T13:49:08Z</time>
      </trkpt>
      <trkpt lat="45.10395" lon="4.87724">
        <ele>203.58700561523</ele>
        <time>2010-02-26T13:49:14Z</time>
      </trkpt>
      <trkpt lat="45.10392" lon="4.87716">
        <ele>203.84599304199</ele>
        <time>2010-02-26T13:49:15Z</time>
      </trkpt>
      <trkpt lat="45.10375" lon="4.8767">
        <ele>206.02099609375</ele>
        <time>2010-02-26T13:49:21Z</time>
      </trkpt>
      <trkpt lat="45.10362" lon="4.87634">
        <ele>208.10200500488</ele>
        <time>2010-02-26T13:49:26Z</time>
      </trkpt>
      <trkpt lat="45.1036" lon="4.87627">
        <ele>209.17799377441</ele>
        <time>2010-02-26T13:49:27Z</time>
      </trkpt>
      <trkpt lat="45.10355" lon="4.8762">
        <ele>209.91000366211</ele>
        <time>2010-02-26T13:49:31Z</time>
      </trkpt>
      <trkpt lat="45.10355" lon="4.87623">
        <ele>209.70799255371</ele>
        <time>2010-02-26T13:49:32Z</time>
      </trkpt>
      <trkpt lat="45.10366" lon="4.87651">
        <ele>207.82099914551</ele>
        <time>2010-02-26T13:49:37Z</time>
      </trkpt>
      <trkpt lat="45.10379" lon="4.87686">
        <ele>205.91600036621</ele>
        <time>2010-02-26T13:49:41Z</time>
      </trkpt>
      <trkpt lat="45.1039" lon="4.87718">
        <ele>204.31500244141</ele>
        <time>2010-02-26T13:49:44Z</time>
      </trkpt>
      <trkpt lat="45.10412" lon="4.87779">
        <ele>200.80200195312</ele>
        <time>2010-02-26T13:49:49Z</time>
      </trkpt>
      <trkpt lat="45.10427" lon="4.87836">
        <ele>198.54499816894</ele>
        <time>2010-02-26T13:49:53Z</time>
      </trkpt>
      <trkpt lat="45.10442" lon="4.87928">
        <ele>195.44000244141</ele>
        <time>2010-02-26T13:49:59Z</time>
      </trkpt>
      <trkpt lat="45.10445" lon="4.87972">
        <ele>194.83700561523</ele>
        <time>2010-02-26T13:50:02Z</time>
      </trkpt>
      <trkpt lat="45.10443" lon="4.88023">
        <ele>195.15100097656</ele>
        <time>2010-02-26T13:50:06Z</time>
      </trkpt>
      <trkpt lat="45.1044" lon="4.88039">
        <ele>195.30799865723</ele>
        <time>2010-02-26T13:50:08Z</time>
      </trkpt>
      <trkpt lat="45.1043" lon="4.88067">
        <ele>195.20100402832</ele>
        <time>2010-02-26T13:50:13Z</time>
      </trkpt>
      <trkpt lat="45.10434" lon="4.88072">
        <ele>194.75999450684</ele>
        <time>2010-02-26T13:50:16Z</time>
      </trkpt>
      <trkpt lat="45.10436" lon="4.88061">
        <ele>195.05099487305</ele>
        <time>2010-02-26T13:50:19Z</time>
      </trkpt>
      <trkpt lat="45.10437" lon="4.88057">
        <ele>194.85000610352</ele>
        <time>2010-02-26T13:50:20Z</time>
      </trkpt>
      <trkpt lat="45.10441" lon="4.88047">
        <ele>194.85800170898</ele>
        <time>2010-02-26T13:50:22Z</time>
      </trkpt>
      <trkpt lat="45.10447" lon="4.88015">
        <ele>194.89100646973</ele>
        <time>2010-02-26T13:50:27Z</time>
      </trkpt>
      <trkpt lat="45.1045" lon="4.87976">
        <ele>195.50199890137</ele>
        <time>2010-02-26T13:50:32Z</time>
      </trkpt>
      <trkpt lat="45.10442" lon="4.87907">
        <ele>196.20500183106</ele>
        <time>2010-02-26T13:50:40Z</time>
      </trkpt>
      <trkpt lat="45.10431" lon="4.8784">
        <ele>198.32299804688</ele>
        <time>2010-02-26T13:50:48Z</time>
      </trkpt>
      <trkpt lat="45.10423" lon="4.87803">
        <ele>200.04899597168</ele>
        <time>2010-02-26T13:50:53Z</time>
      </trkpt>
      <trkpt lat="45.10406" lon="4.87754">
        <ele>202.59800720215</ele>
        <time>2010-02-26T13:51:01Z</time>
      </trkpt>
      <trkpt lat="45.10392" lon="4.87717">
        <ele>204.25100708008</ele>
        <time>2010-02-26T13:51:08Z</time>
      </trkpt>
      <trkpt lat="45.10386" lon="4.87701">
        <ele>204.94700622559</ele>
        <time>2010-02-26T13:51:11Z</time>
      </trkpt>
      <trkpt lat="45.10368" lon="4.8765">
        <ele>208.125</ele>
        <time>2010-02-26T13:51:21Z</time>
      </trkpt>
      <trkpt lat="45.10355" lon="4.87614">
        <ele>209.87800598144</ele>
        <time>2010-02-26T13:51:29Z</time>
      </trkpt>
      <trkpt lat="45.10353" lon="4.8761">
        <ele>210.36099243164</ele>
        <time>2010-02-26T13:51:31Z</time>
      </trkpt>
      <trkpt lat="45.10352" lon="4.87616">
        <ele>210.08799743652</ele>
        <time>2010-02-26T13:51:35Z</time>
      </trkpt>
      <trkpt lat="45.10362" lon="4.87642">
        <ele>209.31300354004</ele>
        <time>2010-02-26T13:51:40Z</time>
      </trkpt>
      <trkpt lat="45.10368" lon="4.87657">
        <ele>206.73500061035</ele>
        <time>2010-02-26T13:51:42Z</time>
      </trkpt>
      <trkpt lat="45.10374" lon="4.87675">
        <ele>205.76800537109</ele>
        <time>2010-02-26T13:51:44Z</time>
      </trkpt>
      <trkpt lat="45.10391" lon="4.87724">
        <ele>203.39599609375</ele>
        <time>2010-02-26T13:51:49Z</time>
      </trkpt>
      <trkpt lat="45.10412" lon="4.8778">
        <ele>200.60800170898</ele>
        <time>2010-02-26T13:51:54Z</time>
      </trkpt>
      <trkpt lat="45.10429" lon="4.87846">
        <ele>197.99899291992</ele>
        <time>2010-02-26T13:51:59Z</time>
      </trkpt>
      <trkpt lat="45.10442" lon="4.87933">
        <ele>195.04299926758</ele>
        <time>2010-02-26T13:52:05Z</time>
      </trkpt>
      <trkpt lat="45.10445" lon="4.88">
        <ele>194.86000061035</ele>
        <time>2010-02-26T13:52:10Z</time>
      </trkpt>
      <trkpt lat="45.10439" lon="4.88041">
        <ele>194.93800354004</ele>
        <time>2010-02-26T13:52:14Z</time>
      </trkpt>
      <trkpt lat="45.10431" lon="4.88064">
        <ele>194.47799682617</ele>
        <time>2010-02-26T13:52:19Z</time>
      </trkpt>
      <trkpt lat="45.10436" lon="4.88068">
        <ele>194.47999572754</ele>
        <time>2010-02-26T13:52:22Z</time>
      </trkpt>
      <trkpt lat="45.10439" lon="4.88059">
        <ele>194.62199401856</ele>
        <time>2010-02-26T13:52:24Z</time>
      </trkpt>
      <trkpt lat="45.10444" lon="4.88035">
        <ele>194.75399780273</ele>
        <time>2010-02-26T13:52:28Z</time>
      </trkpt>
      <trkpt lat="45.1045" lon="4.87998">
        <ele>194.83700561523</ele>
        <time>2010-02-26T13:52:33Z</time>
      </trkpt>
      <trkpt lat="45.1045" lon="4.8799">
        <ele>194.50500488281</ele>
        <time>2010-02-26T13:52:34Z</time>
      </trkpt>
      <trkpt lat="45.1045" lon="4.87973">
        <ele>194.80999755859</ele>
        <time>2010-02-26T13:52:36Z</time>
      </trkpt>
      <trkpt lat="45.10441" lon="4.87908">
        <ele>195.77299499512</ele>
        <time>2010-02-26T13:52:43Z</time>
      </trkpt>
      <trkpt lat="45.10431" lon="4.87835">
        <ele>197.7440032959</ele>
        <time>2010-02-26T13:52:51Z</time>
      </trkpt>
      <trkpt lat="45.10417" lon="4.87784">
        <ele>200.59399414062</ele>
        <time>2010-02-26T13:52:57Z</time>
      </trkpt>
      <trkpt lat="45.10398" lon="4.87734">
        <ele>202.33299255371</ele>
        <time>2010-02-26T13:53:04Z</time>
      </trkpt>
      <trkpt lat="45.10386" lon="4.877">
        <ele>204.39900207519</ele>
        <time>2010-02-26T13:53:09Z</time>
      </trkpt>
      <trkpt lat="45.10367" lon="4.87649">
        <ele>207.2799987793</ele>
        <time>2010-02-26T13:53:17Z</time>
      </trkpt>
      <trkpt lat="45.10348" lon="4.87596">
        <ele>210.76699829102</ele>
        <time>2010-02-26T13:53:26Z</time>
      </trkpt>
      <trkpt lat="45.10336" lon="4.87565">
        <ele>213.11099243164</ele>
        <time>2010-02-26T13:53:33Z</time>
      </trkpt>
      <trkpt lat="45.10326" lon="4.8754">
        <ele>214.97500610352</ele>
        <time>2010-02-26T13:53:40Z</time>
      </trkpt>
      <trkpt lat="45.10318" lon="4.8752">
        <ele>216.48199462891</ele>
        <time>2010-02-26T13:53:46Z</time>
      </trkpt>
      <trkpt lat="45.10307" lon="4.87498">
        <ele>218.25100708008</ele>
        <time>2010-02-26T13:53:53Z</time>
      </trkpt>
      <trkpt lat="45.10296" lon="4.87477">
        <ele>219.79600524902</ele>
        <time>2010-02-26T13:54:00Z</time>
      </trkpt>
      <trkpt lat="45.10285" lon="4.87456">
        <ele>221.54800415039</ele>
        <time>2010-02-26T13:54:07Z</time>
      </trkpt>
      <trkpt lat="45.10272" lon="4.87433">
        <ele>223.54699707031</ele>
        <time>2010-02-26T13:54:15Z</time>
      </trkpt>
      <trkpt lat="45.10261" lon="4.8741">
        <ele>225.32699584961</ele>
        <time>2010-02-26T13:54:23Z</time>
      </trkpt>
      <trkpt lat="45.10255" lon="4.87391">
        <ele>227.17100524902</ele>
        <time>2010-02-26T13:54:29Z</time>
      </trkpt>
      <trkpt lat="45.10252" lon="4.87369">
        <ele>229.09599304199</ele>
        <time>2010-02-26T13:54:35Z</time>
      </trkpt>
      <trkpt lat="45.10252" lon="4.87348">
        <ele>230.68600463867</ele>
        <time>2010-02-26T13:54:41Z</time>
      </trkpt>
      <trkpt lat="45.10253" lon="4.87326">
        <ele>232.07800292969</ele>
        <time>2010-02-26T13:54:47Z</time>
      </trkpt>
      <trkpt lat="45.10255" lon="4.87306">
        <ele>232.62399291992</ele>
        <time>2010-02-26T13:54:53Z</time>
      </trkpt>
      <trkpt lat="45.1026" lon="4.87282">
        <ele>232.61599731445</ele>
        <time>2010-02-26T13:55:01Z</time>
      </trkpt>
      <trkpt lat="45.10273" lon="4.87272">
        <ele>232.53799438477</ele>
        <time>2010-02-26T13:55:07Z</time>
      </trkpt>
      <trkpt lat="45.10288" lon="4.87264">
        <ele>233.22700500488</ele>
        <time>2010-02-26T13:55:12Z</time>
      </trkpt>
      <trkpt lat="45.10308" lon="4.87253">
        <ele>232.73699951172</ele>
        <time>2010-02-26T13:55:18Z</time>
      </trkpt>
      <trkpt lat="45.10343" lon="4.87233">
        <ele>233.30700683594</ele>
        <time>2010-02-26T13:55:26Z</time>
      </trkpt>
      <trkpt lat="45.10381" lon="4.87206">
        <ele>233.02799987793</ele>
        <time>2010-02-26T13:55:34Z</time>
      </trkpt>
      <trkpt lat="45.10426" lon="4.8717">
        <ele>233.20500183106</ele>
        <time>2010-02-26T13:55:43Z</time>
      </trkpt>
      <trkpt lat="45.10471" lon="4.87134">
        <ele>232.77000427246</ele>
        <time>2010-02-26T13:55:52Z</time>
      </trkpt>
      <trkpt lat="45.10508" lon="4.871">
        <ele>234.43800354004</ele>
        <time>2010-02-26T13:56:00Z</time>
      </trkpt>
      <trkpt lat="45.10538" lon="4.87081">
        <ele>235.26899719238</ele>
        <time>2010-02-26T13:56:06Z</time>
      </trkpt>
      <trkpt lat="45.10583" lon="4.87064">
        <ele>236.78799438477</ele>
        <time>2010-02-26T13:56:15Z</time>
      </trkpt>
      <trkpt lat="45.10599" lon="4.87061">
        <ele>237.89599609375</ele>
        <time>2010-02-26T13:56:19Z</time>
      </trkpt>
      <trkpt lat="45.10603" lon="4.87063">
        <ele>238.78500366211</ele>
        <time>2010-02-26T13:56:21Z</time>
      </trkpt>
      <trkpt lat="45.10605" lon="4.8706">
        <ele>239.0359954834</ele>
        <time>2010-02-26T13:56:25Z</time>
      </trkpt>
      <trkpt lat="45.106" lon="4.8706">
        <ele>238.41000366211</ele>
        <time>2010-02-26T13:56:27Z</time>
      </trkpt>
      <trkpt lat="45.10593" lon="4.87061">
        <ele>237.89300537109</ele>
        <time>2010-02-26T13:56:29Z</time>
      </trkpt>
      <trkpt lat="45.10557" lon="4.87073">
        <ele>236.15100097656</ele>
        <time>2010-02-26T13:56:36Z</time>
      </trkpt>
      <trkpt lat="45.10532" lon="4.87083">
        <ele>234.68800354004</ele>
        <time>2010-02-26T13:56:40Z</time>
      </trkpt>
      <trkpt lat="45.105" lon="4.87105">
        <ele>233.75199890137</ele>
        <time>2010-02-26T13:56:45Z</time>
      </trkpt>
      <trkpt lat="45.10448" lon="4.8715">
        <ele>232.71499633789</ele>
        <time>2010-02-26T13:56:53Z</time>
      </trkpt>
      <trkpt lat="45.10402" lon="4.87186">
        <ele>232.17399597168</ele>
        <time>2010-02-26T13:57:00Z</time>
      </trkpt>
      <trkpt lat="45.10341" lon="4.87232">
        <ele>231.75399780273</ele>
        <time>2010-02-26T13:57:09Z</time>
      </trkpt>
      <trkpt lat="45.10299" lon="4.87256">
        <ele>232.17799377441</ele>
        <time>2010-02-26T13:57:15Z</time>
      </trkpt>
      <trkpt lat="45.10276" lon="4.87269">
        <ele>232.35400390625</ele>
        <time>2010-02-26T13:57:19Z</time>
      </trkpt>
      <trkpt lat="45.10267" lon="4.87275">
        <ele>232.00999450684</ele>
        <time>2010-02-26T13:57:21Z</time>
      </trkpt>
      <trkpt lat="45.10258" lon="4.87271">
        <ele>230.34100341797</ele>
        <time>2010-02-26T13:57:25Z</time>
      </trkpt>
      <trkpt lat="45.10263" lon="4.87255">
        <ele>229.48199462891</ele>
        <time>2010-02-26T13:57:28Z</time>
      </trkpt>
      <trkpt lat="45.10279" lon="4.87206">
        <ele>227.27200317383</ele>
        <time>2010-02-26T13:57:34Z</time>
      </trkpt>
      <trkpt lat="45.10289" lon="4.87174">
        <ele>224.9880065918</ele>
        <time>2010-02-26T13:57:37Z</time>
      </trkpt>
      <trkpt lat="45.10295" lon="4.87124">
        <ele>223.17300415039</ele>
        <time>2010-02-26T13:57:41Z</time>
      </trkpt>
      <trkpt lat="45.10287" lon="4.87089">
        <ele>224.25999450684</ele>
        <time>2010-02-26T13:57:44Z</time>
      </trkpt>
      <trkpt lat="45.10278" lon="4.8707">
        <ele>224.89399719238</ele>
        <time>2010-02-26T13:57:46Z</time>
      </trkpt>
      <trkpt lat="45.10267" lon="4.87057">
        <ele>225.44000244141</ele>
        <time>2010-02-26T13:57:48Z</time>
      </trkpt>
      <trkpt lat="45.10242" lon="4.87034">
        <ele>227.94500732422</ele>
        <time>2010-02-26T13:57:54Z</time>
      </trkpt>
      <trkpt lat="45.10222" lon="4.87018">
        <ele>229.57000732422</ele>
        <time>2010-02-26T13:58:00Z</time>
      </trkpt>
      <trkpt lat="45.10205" lon="4.87002">
        <ele>230.6130065918</ele>
        <time>2010-02-26T13:58:05Z</time>
      </trkpt>
      <trkpt lat="45.10177" lon="4.86979">
        <ele>232.84199523926</ele>
        <time>2010-02-26T13:58:12Z</time>
      </trkpt>
      <trkpt lat="45.10173" lon="4.86976">
        <ele>233.41999816894</ele>
        <time>2010-02-26T13:58:13Z</time>
      </trkpt>
      <trkpt lat="45.10155" lon="4.86959">
        <ele>234.43800354004</ele>
        <time>2010-02-26T13:58:18Z</time>
      </trkpt>
      <trkpt lat="45.10136" lon="4.86943">
        <ele>236.20700073242</ele>
        <time>2010-02-26T13:58:23Z</time>
      </trkpt>
      <trkpt lat="45.10108" lon="4.86918">
        <ele>238.89799499512</ele>
        <time>2010-02-26T13:58:31Z</time>
      </trkpt>
      <trkpt lat="45.10109" lon="4.86906">
        <ele>239.50399780273</ele>
        <time>2010-02-26T13:58:35Z</time>
      </trkpt>
      <trkpt lat="45.10118" lon="4.86908">
        <ele>239.74699401856</ele>
        <time>2010-02-26T13:58:38Z</time>
      </trkpt>
      <trkpt lat="45.10127" lon="4.8691">
        <ele>239.69400024414</ele>
        <time>2010-02-26T13:58:40Z</time>
      </trkpt>
      <trkpt lat="45.10151" lon="4.86909">
        <ele>240.37600708008</ele>
        <time>2010-02-26T13:58:45Z</time>
      </trkpt>
      <trkpt lat="45.1016" lon="4.86909">
        <ele>240.64599609375</ele>
        <time>2010-02-26T13:58:47Z</time>
      </trkpt>
      <trkpt lat="45.10202" lon="4.86906">
        <ele>241.29800415039</ele>
        <time>2010-02-26T13:58:56Z</time>
      </trkpt>
      <trkpt lat="45.10244" lon="4.86903">
        <ele>241.21299743652</ele>
        <time>2010-02-26T13:59:04Z</time>
      </trkpt>
      <trkpt lat="45.10303" lon="4.86897">
        <ele>242.0119934082</ele>
        <time>2010-02-26T13:59:14Z</time>
      </trkpt>
      <trkpt lat="45.10348" lon="4.86887">
        <ele>242.86599731445</ele>
        <time>2010-02-26T13:59:22Z</time>
      </trkpt>
      <trkpt lat="45.10391" lon="4.86875">
        <ele>243.91600036621</ele>
        <time>2010-02-26T13:59:30Z</time>
      </trkpt>
      <trkpt lat="45.10425" lon="4.86868">
        <ele>244.65299987793</ele>
        <time>2010-02-26T13:59:36Z</time>
      </trkpt>
      <trkpt lat="45.10468" lon="4.86853">
        <ele>243.44000244141</ele>
        <time>2010-02-26T13:59:43Z</time>
      </trkpt>
      <trkpt lat="45.10513" lon="4.86834">
        <ele>240.63299560547</ele>
        <time>2010-02-26T13:59:49Z</time>
      </trkpt>
      <trkpt lat="45.1057" lon="4.86811">
        <ele>238.53199768066</ele>
        <time>2010-02-26T13:59:56Z</time>
      </trkpt>
      <trkpt lat="45.10629" lon="4.86782">
        <ele>239.8690032959</ele>
        <time>2010-02-26T14:00:04Z</time>
      </trkpt>
      <trkpt lat="45.10673" lon="4.86755">
        <ele>241.90400695801</ele>
        <time>2010-02-26T14:00:11Z</time>
      </trkpt>
      <trkpt lat="45.10726" lon="4.86733">
        <ele>241.80599975586</ele>
        <time>2010-02-26T14:00:19Z</time>
      </trkpt>
      <trkpt lat="45.10789" lon="4.86709">
        <ele>242.42900085449</ele>
        <time>2010-02-26T14:00:28Z</time>
      </trkpt>
      <trkpt lat="45.10845" lon="4.86688">
        <ele>244.13299560547</ele>
        <time>2010-02-26T14:00:36Z</time>
      </trkpt>
      <trkpt lat="45.10881" lon="4.86673">
        <ele>246.53900146484</ele>
        <time>2010-02-26T14:00:42Z</time>
      </trkpt>
      <trkpt lat="45.10885" lon="4.86672">
        <ele>246.82400512695</ele>
        <time>2010-02-26T14:00:43Z</time>
      </trkpt>
      <trkpt lat="45.10908" lon="4.86663">
        <ele>248.87300109863</ele>
        <time>2010-02-26T14:00:49Z</time>
      </trkpt>
      <trkpt lat="45.10933" lon="4.86659">
        <ele>250.52799987793</ele>
        <time>2010-02-26T14:00:56Z</time>
      </trkpt>
      <trkpt lat="45.10956" lon="4.86659">
        <ele>251.6369934082</ele>
        <time>2010-02-26T14:01:02Z</time>
      </trkpt>
      <trkpt lat="45.10987" lon="4.8666">
        <ele>253.60899353027</ele>
        <time>2010-02-26T14:01:10Z</time>
      </trkpt>
      <trkpt lat="45.11011" lon="4.86658">
        <ele>254.09899902344</ele>
        <time>2010-02-26T14:01:16Z</time>
      </trkpt>
      <trkpt lat="45.11037" lon="4.86656">
        <ele>253.91799926758</ele>
        <time>2010-02-26T14:01:22Z</time>
      </trkpt>
      <trkpt lat="45.11072" lon="4.8665">
        <ele>252.9880065918</ele>
        <time>2010-02-26T14:01:29Z</time>
      </trkpt>
      <trkpt lat="45.11119" lon="4.86643">
        <ele>252.375</ele>
        <time>2010-02-26T14:01:38Z</time>
      </trkpt>
      <trkpt lat="45.11125" lon="4.86642">
        <ele>252.38200378418</ele>
        <time>2010-02-26T14:01:39Z</time>
      </trkpt>
      <trkpt lat="45.11165" lon="4.86622">
        <ele>250.68400573731</ele>
        <time>2010-02-26T14:01:46Z</time>
      </trkpt>
      <trkpt lat="45.112" lon="4.86589">
        <ele>249.79800415039</ele>
        <time>2010-02-26T14:01:52Z</time>
      </trkpt>
      <trkpt lat="45.11216" lon="4.86572">
        <ele>250.17100524902</ele>
        <time>2010-02-26T14:01:55Z</time>
      </trkpt>
      <trkpt lat="45.11248" lon="4.86555">
        <ele>249.67199707031</ele>
        <time>2010-02-26T14:02:00Z</time>
      </trkpt>
      <trkpt lat="45.11267" lon="4.86552">
        <ele>249.66000366211</ele>
        <time>2010-02-26T14:02:03Z</time>
      </trkpt>
      <trkpt lat="45.11295" lon="4.86532">
        <ele>250.40800476074</ele>
        <time>2010-02-26T14:02:08Z</time>
      </trkpt>
      <trkpt lat="45.113" lon="4.86526">
        <ele>250.34899902344</ele>
        <time>2010-02-26T14:02:09Z</time>
      </trkpt>
      <trkpt lat="45.11341" lon="4.86469">
        <ele>250.60200500488</ele>
        <time>2010-02-26T14:02:18Z</time>
      </trkpt>
      <trkpt lat="45.11351" lon="4.86457">
        <ele>250.33200073242</ele>
        <time>2010-02-26T14:02:20Z</time>
      </trkpt>
      <trkpt lat="45.11375" lon="4.86444">
        <ele>250.20899963379</ele>
        <time>2010-02-26T14:02:24Z</time>
      </trkpt>
      <trkpt lat="45.11388" lon="4.86454">
        <ele>251.12100219727</ele>
        <time>2010-02-26T14:02:27Z</time>
      </trkpt>
      <trkpt lat="45.1139" lon="4.86477">
        <ele>252.37600708008</ele>
        <time>2010-02-26T14:02:31Z</time>
      </trkpt>
      <trkpt lat="45.11384" lon="4.86492">
        <ele>252.64100646973</ele>
        <time>2010-02-26T14:02:34Z</time>
      </trkpt>
      <trkpt lat="45.11378" lon="4.86501">
        <ele>253.14100646973</ele>
        <time>2010-02-26T14:02:36Z</time>
      </trkpt>
      <trkpt lat="45.11366" lon="4.8652">
        <ele>254.20700073242</ele>
        <time>2010-02-26T14:02:40Z</time>
      </trkpt>
      <trkpt lat="45.11361" lon="4.86548">
        <ele>254.87100219727</ele>
        <time>2010-02-26T14:02:45Z</time>
      </trkpt>
      <trkpt lat="45.11371" lon="4.86559">
        <ele>256.4280090332</ele>
        <time>2010-02-26T14:02:49Z</time>
      </trkpt>
      <trkpt lat="45.11383" lon="4.86547">
        <ele>258.13000488281</ele>
        <time>2010-02-26T14:02:53Z</time>
      </trkpt>
      <trkpt lat="45.11394" lon="4.86531">
        <ele>259.5719909668</ele>
        <time>2010-02-26T14:02:58Z</time>
      </trkpt>
      <trkpt lat="45.11409" lon="4.86509">
        <ele>261.36801147461</ele>
        <time>2010-02-26T14:03:05Z</time>
      </trkpt>
      <trkpt lat="45.11423" lon="4.865">
        <ele>262.63299560547</ele>
        <time>2010-02-26T14:03:09Z</time>
      </trkpt>
      <trkpt lat="45.11438" lon="4.86497">
        <ele>263.28698730469</ele>
        <time>2010-02-26T14:03:13Z</time>
      </trkpt>
      <trkpt lat="45.11449" lon="4.86495">
        <ele>264.2619934082</ele>
        <time>2010-02-26T14:03:18Z</time>
      </trkpt>
      <trkpt lat="45.11462" lon="4.86493">
        <ele>264.71499633789</ele>
        <time>2010-02-26T14:03:23Z</time>
      </trkpt>
      <trkpt lat="45.11478" lon="4.86491">
        <ele>265.96600341797</ele>
        <time>2010-02-26T14:03:28Z</time>
      </trkpt>
      <trkpt lat="45.11493" lon="4.86492">
        <ele>267.57998657227</ele>
        <time>2010-02-26T14:03:33Z</time>
      </trkpt>
      <trkpt lat="45.115" lon="4.86499">
        <ele>268.20498657227</ele>
        <time>2010-02-26T14:03:36Z</time>
      </trkpt>
      <trkpt lat="45.11494" lon="4.86523">
        <ele>269.65600585938</ele>
        <time>2010-02-26T14:03:42Z</time>
      </trkpt>
      <trkpt lat="45.11493" lon="4.86526">
        <ele>269.87701416016</ele>
        <time>2010-02-26T14:03:43Z</time>
      </trkpt>
      <trkpt lat="45.11475" lon="4.86556">
        <ele>271.55599975586</ele>
        <time>2010-02-26T14:03:51Z</time>
      </trkpt>
      <trkpt lat="45.11473" lon="4.86567">
        <ele>272.42098999023</ele>
        <time>2010-02-26T14:03:53Z</time>
      </trkpt>
      <trkpt lat="45.11482" lon="4.86581">
        <ele>273.71600341797</ele>
        <time>2010-02-26T14:03:57Z</time>
      </trkpt>
      <trkpt lat="45.11493" lon="4.86577">
        <ele>274.06698608398</ele>
        <time>2010-02-26T14:04:00Z</time>
      </trkpt>
      <trkpt lat="45.115" lon="4.86566">
        <ele>275.53399658203</ele>
        <time>2010-02-26T14:04:03Z</time>
      </trkpt>
      <trkpt lat="45.11506" lon="4.86552">
        <ele>275.86999511719</ele>
        <time>2010-02-26T14:04:06Z</time>
      </trkpt>
      <trkpt lat="45.11518" lon="4.86539">
        <ele>276.68200683594</ele>
        <time>2010-02-26T14:04:10Z</time>
      </trkpt>
      <trkpt lat="45.11527" lon="4.86544">
        <ele>277.52099609375</ele>
        <time>2010-02-26T14:04:13Z</time>
      </trkpt>
      <trkpt lat="45.11529" lon="4.8655">
        <ele>278.28100585938</ele>
        <time>2010-02-26T14:04:15Z</time>
      </trkpt>
      <trkpt lat="45.1153" lon="4.8656">
        <ele>280.34298706055</ele>
        <time>2010-02-26T14:04:20Z</time>
      </trkpt>
      <trkpt lat="45.11533" lon="4.86577">
        <ele>281.21899414062</ele>
        <time>2010-02-26T14:04:26Z</time>
      </trkpt>
      <trkpt lat="45.11541" lon="4.86589">
        <ele>282.23098754883</ele>
        <time>2010-02-26T14:04:31Z</time>
      </trkpt>
      <trkpt lat="45.11559" lon="4.86599">
        <ele>283.25799560547</ele>
        <time>2010-02-26T14:04:38Z</time>
      </trkpt>
      <trkpt lat="45.11578" lon="4.86608">
        <ele>284.41799926758</ele>
        <time>2010-02-26T14:04:45Z</time>
      </trkpt>
      <trkpt lat="45.11599" lon="4.8662">
        <ele>287.03698730469</ele>
        <time>2010-02-26T14:04:53Z</time>
      </trkpt>
      <trkpt lat="45.11601" lon="4.86621">
        <ele>287.03500366211</ele>
        <time>2010-02-26T14:04:54Z</time>
      </trkpt>
      <trkpt lat="45.1162" lon="4.8663">
        <ele>289.06201171875</ele>
        <time>2010-02-26T14:05:02Z</time>
      </trkpt>
      <trkpt lat="45.1164" lon="4.8664">
        <ele>290.78698730469</ele>
        <time>2010-02-26T14:05:10Z</time>
      </trkpt>
      <trkpt lat="45.11657" lon="4.86649">
        <ele>291.99099731445</ele>
        <time>2010-02-26T14:05:17Z</time>
      </trkpt>
      <trkpt lat="45.11681" lon="4.8666">
        <ele>294.30099487305</ele>
        <time>2010-02-26T14:05:26Z</time>
      </trkpt>
      <trkpt lat="45.11702" lon="4.86671">
        <ele>296.25799560547</ele>
        <time>2010-02-26T14:05:34Z</time>
      </trkpt>
      <trkpt lat="45.11718" lon="4.86679">
        <ele>296.93899536133</ele>
        <time>2010-02-26T14:05:40Z</time>
      </trkpt>
      <trkpt lat="45.11738" lon="4.86688">
        <ele>298.51400756836</ele>
        <time>2010-02-26T14:05:47Z</time>
      </trkpt>
      <trkpt lat="45.11768" lon="4.86701">
        <ele>300.24200439453</ele>
        <time>2010-02-26T14:05:57Z</time>
      </trkpt>
      <trkpt lat="45.11795" lon="4.86705">
        <ele>302.41101074219</ele>
        <time>2010-02-26T14:06:06Z</time>
      </trkpt>
      <trkpt lat="45.11827" lon="4.867">
        <ele>303.25299072266</ele>
        <time>2010-02-26T14:06:15Z</time>
      </trkpt>
      <trkpt lat="45.11864" lon="4.86695">
        <ele>304.76501464844</ele>
        <time>2010-02-26T14:06:25Z</time>
      </trkpt>
      <trkpt lat="45.11905" lon="4.86696">
        <ele>305.83599853516</ele>
        <time>2010-02-26T14:06:35Z</time>
      </trkpt>
      <trkpt lat="45.11939" lon="4.86701">
        <ele>307.13400268555</ele>
        <time>2010-02-26T14:06:43Z</time>
      </trkpt>
      <trkpt lat="45.11974" lon="4.86705">
        <ele>307.08999633789</ele>
        <time>2010-02-26T14:06:51Z</time>
      </trkpt>
      <trkpt lat="45.12016" lon="4.86711">
        <ele>308.46200561523</ele>
        <time>2010-02-26T14:07:00Z</time>
      </trkpt>
      <trkpt lat="45.12069" lon="4.86718">
        <ele>308.83499145508</ele>
        <time>2010-02-26T14:07:10Z</time>
      </trkpt>
      <trkpt lat="45.12118" lon="4.86724">
        <ele>308.7799987793</ele>
        <time>2010-02-26T14:07:19Z</time>
      </trkpt>
      <trkpt lat="45.1215" lon="4.86729">
        <ele>309.84201049805</ele>
        <time>2010-02-26T14:07:25Z</time>
      </trkpt>
      <trkpt lat="45.12189" lon="4.86734">
        <ele>310.11999511719</ele>
        <time>2010-02-26T14:07:32Z</time>
      </trkpt>
      <trkpt lat="45.1223" lon="4.86736">
        <ele>310.39999389648</ele>
        <time>2010-02-26T14:07:39Z</time>
      </trkpt>
      <trkpt lat="45.12278" lon="4.86733">
        <ele>310.03601074219</ele>
        <time>2010-02-26T14:07:47Z</time>
      </trkpt>
      <trkpt lat="45.12325" lon="4.86729">
        <ele>310.5719909668</ele>
        <time>2010-02-26T14:07:55Z</time>
      </trkpt>
      <trkpt lat="45.12385" lon="4.86726">
        <ele>311.33401489258</ele>
        <time>2010-02-26T14:08:05Z</time>
      </trkpt>
      <trkpt lat="45.12447" lon="4.86721">
        <ele>312.97601318359</ele>
        <time>2010-02-26T14:08:16Z</time>
      </trkpt>
      <trkpt lat="45.12475" lon="4.86714">
        <ele>313.45300292969</ele>
        <time>2010-02-26T14:08:21Z</time>
      </trkpt>
      <trkpt lat="45.12514" lon="4.86705">
        <ele>313.71701049805</ele>
        <time>2010-02-26T14:08:28Z</time>
      </trkpt>
      <trkpt lat="45.12518" lon="4.86703">
        <ele>313.69100952148</ele>
        <time>2010-02-26T14:08:29Z</time>
      </trkpt>
      <trkpt lat="45.12539" lon="4.867">
        <ele>314.37600708008</ele>
        <time>2010-02-26T14:08:35Z</time>
      </trkpt>
      <trkpt lat="45.12547" lon="4.86697">
        <ele>314.76400756836</ele>
        <time>2010-02-26T14:08:37Z</time>
      </trkpt>
      <trkpt lat="45.12575" lon="4.86691">
        <ele>315.86401367188</ele>
        <time>2010-02-26T14:08:44Z</time>
      </trkpt>
      <trkpt lat="45.12612" lon="4.86682">
        <ele>316.67999267578</ele>
        <time>2010-02-26T14:08:53Z</time>
      </trkpt>
      <trkpt lat="45.12622" lon="4.86679">
        <ele>316.37701416016</ele>
        <time>2010-02-26T14:08:55Z</time>
      </trkpt>
      <trkpt lat="45.12673" lon="4.86666">
        <ele>316.78298950195</ele>
        <time>2010-02-26T14:09:04Z</time>
      </trkpt>
      <trkpt lat="45.12727" lon="4.86654">
        <ele>317.40200805664</ele>
        <time>2010-02-26T14:09:13Z</time>
      </trkpt>
      <trkpt lat="45.12737" lon="4.86651">
        <ele>317.43600463867</ele>
        <time>2010-02-26T14:09:15Z</time>
      </trkpt>
      <trkpt lat="45.12767" lon="4.86643">
        <ele>319.26699829102</ele>
        <time>2010-02-26T14:09:22Z</time>
      </trkpt>
      <trkpt lat="45.128" lon="4.86634">
        <ele>319.90899658203</ele>
        <time>2010-02-26T14:09:29Z</time>
      </trkpt>
      <trkpt lat="45.12836" lon="4.86626">
        <ele>319.40301513672</ele>
        <time>2010-02-26T14:09:36Z</time>
      </trkpt>
      <trkpt lat="45.12883" lon="4.86615">
        <ele>318.79598999023</ele>
        <time>2010-02-26T14:09:44Z</time>
      </trkpt>
      <trkpt lat="45.12931" lon="4.86598">
        <ele>318.44799804688</ele>
        <time>2010-02-26T14:09:52Z</time>
      </trkpt>
      <trkpt lat="45.12974" lon="4.86566">
        <ele>318.70401000977</ele>
        <time>2010-02-26T14:10:00Z</time>
      </trkpt>
      <trkpt lat="45.13006" lon="4.86541">
        <ele>318.69900512695</ele>
        <time>2010-02-26T14:10:06Z</time>
      </trkpt>
      <trkpt lat="45.13036" lon="4.86522">
        <ele>319.35000610352</ele>
        <time>2010-02-26T14:10:12Z</time>
      </trkpt>
      <trkpt lat="45.13041" lon="4.8652">
        <ele>319.36599731445</ele>
        <time>2010-02-26T14:10:13Z</time>
      </trkpt>
      <trkpt lat="45.13073" lon="4.86522">
        <ele>320.31799316406</ele>
        <time>2010-02-26T14:10:19Z</time>
      </trkpt>
      <trkpt lat="45.13123" lon="4.86539">
        <ele>320.38900756836</ele>
        <time>2010-02-26T14:10:28Z</time>
      </trkpt>
      <trkpt lat="45.13176" lon="4.86557">
        <ele>321.53698730469</ele>
        <time>2010-02-26T14:10:37Z</time>
      </trkpt>
      <trkpt lat="45.13213" lon="4.86571">
        <ele>323.26400756836</ele>
        <time>2010-02-26T14:10:44Z</time>
      </trkpt>
      <trkpt lat="45.13234" lon="4.86583">
        <ele>324.60198974609</ele>
        <time>2010-02-26T14:10:49Z</time>
      </trkpt>
      <trkpt lat="45.1326" lon="4.86609">
        <ele>325.85598754883</ele>
        <time>2010-02-26T14:10:57Z</time>
      </trkpt>
      <trkpt lat="45.13266" lon="4.86615">
        <ele>326.50100708008</ele>
        <time>2010-02-26T14:10:59Z</time>
      </trkpt>
      <trkpt lat="45.13289" lon="4.86633">
        <ele>328.33898925781</ele>
        <time>2010-02-26T14:11:06Z</time>
      </trkpt>
      <trkpt lat="45.13316" lon="4.86644">
        <ele>329.46798706055</ele>
        <time>2010-02-26T14:11:13Z</time>
      </trkpt>
      <trkpt lat="45.13342" lon="4.86655">
        <ele>330.59399414062</ele>
        <time>2010-02-26T14:11:19Z</time>
      </trkpt>
      <trkpt lat="45.13377" lon="4.86669">
        <ele>330.95498657227</ele>
        <time>2010-02-26T14:11:27Z</time>
      </trkpt>
      <trkpt lat="45.13382" lon="4.8667">
        <ele>331.34600830078</ele>
        <time>2010-02-26T14:11:28Z</time>
      </trkpt>
      <trkpt lat="45.1339" lon="4.86675">
        <ele>332.44500732422</ele>
        <time>2010-02-26T14:11:30Z</time>
      </trkpt>
      <trkpt lat="45.1343" lon="4.86683">
        <ele>331</ele>
        <time>2010-02-26T14:11:38Z</time>
      </trkpt>
      <trkpt lat="45.13447" lon="4.86684">
        <ele>330.71701049805</ele>
        <time>2010-02-26T14:11:41Z</time>
      </trkpt>
      <trkpt lat="45.13494" lon="4.86699">
        <ele>330.08200073242</ele>
        <time>2010-02-26T14:11:49Z</time>
      </trkpt>
      <trkpt lat="45.13516" lon="4.86708">
        <ele>329.02398681641</ele>
        <time>2010-02-26T14:11:53Z</time>
      </trkpt>
      <trkpt lat="45.13528" lon="4.86713">
        <ele>327.52600097656</ele>
        <time>2010-02-26T14:11:55Z</time>
      </trkpt>
      <trkpt lat="45.13548" lon="4.86718">
        <ele>326.91000366211</ele>
        <time>2010-02-26T14:11:58Z</time>
      </trkpt>
      <trkpt lat="45.13569" lon="4.86717">
        <ele>325.63800048828</ele>
        <time>2010-02-26T14:12:01Z</time>
      </trkpt>
      <trkpt lat="45.1359" lon="4.86709">
        <ele>325.82000732422</ele>
        <time>2010-02-26T14:12:04Z</time>
      </trkpt>
      <trkpt lat="45.13646" lon="4.86681">
        <ele>324.30700683594</ele>
        <time>2010-02-26T14:12:12Z</time>
      </trkpt>
      <trkpt lat="45.13673" lon="4.86678">
        <ele>323.51098632812</ele>
        <time>2010-02-26T14:12:16Z</time>
      </trkpt>
      <trkpt lat="45.13724" lon="4.86685">
        <ele>324.56298828125</ele>
        <time>2010-02-26T14:12:24Z</time>
      </trkpt>
      <trkpt lat="45.1374" lon="4.86691">
        <ele>326.10699462891</ele>
        <time>2010-02-26T14:12:27Z</time>
      </trkpt>
      <trkpt lat="45.13744" lon="4.86693">
        <ele>326.05200195312</ele>
        <time>2010-02-26T14:12:28Z</time>
      </trkpt>
      <trkpt lat="45.13779" lon="4.86714">
        <ele>327.12799072266</ele>
        <time>2010-02-26T14:12:36Z</time>
      </trkpt>
      <trkpt lat="45.13797" lon="4.86725">
        <ele>327.40301513672</ele>
        <time>2010-02-26T14:12:40Z</time>
      </trkpt>
      <trkpt lat="45.13835" lon="4.86751">
        <ele>323.07699584961</ele>
        <time>2010-02-26T14:12:47Z</time>
      </trkpt>
      <trkpt lat="45.13872" lon="4.86761">
        <ele>319.20901489258</ele>
        <time>2010-02-26T14:12:52Z</time>
      </trkpt>
      <trkpt lat="45.13916" lon="4.86755">
        <ele>315.17401123047</ele>
        <time>2010-02-26T14:12:57Z</time>
      </trkpt>
      <trkpt lat="45.13926" lon="4.86756">
        <ele>314.80801391602</ele>
        <time>2010-02-26T14:12:58Z</time>
      </trkpt>
      <trkpt lat="45.13947" lon="4.86761">
        <ele>313.50601196289</ele>
        <time>2010-02-26T14:13:00Z</time>
      </trkpt>
      <trkpt lat="45.1398" lon="4.86772">
        <ele>312.02301025391</ele>
        <time>2010-02-26T14:13:03Z</time>
      </trkpt>
      <trkpt lat="45.13991" lon="4.86774">
        <ele>310.85400390625</ele>
        <time>2010-02-26T14:13:04Z</time>
      </trkpt>
      <trkpt lat="45.14035" lon="4.86768">
        <ele>307.62200927734</ele>
        <time>2010-02-26T14:13:08Z</time>
      </trkpt>
      <trkpt lat="45.14067" lon="4.86759">
        <ele>305.91900634766</ele>
        <time>2010-02-26T14:13:11Z</time>
      </trkpt>
      <trkpt lat="45.14116" lon="4.8674">
        <ele>304.46701049805</ele>
        <time>2010-02-26T14:13:16Z</time>
      </trkpt>
      <trkpt lat="45.14151" lon="4.86717">
        <ele>303.55700683594</ele>
        <time>2010-02-26T14:13:20Z</time>
      </trkpt>
      <trkpt lat="45.14194" lon="4.86708">
        <ele>303.28799438477</ele>
        <time>2010-02-26T14:13:25Z</time>
      </trkpt>
      <trkpt lat="45.14256" lon="4.86713">
        <ele>300.45001220703</ele>
        <time>2010-02-26T14:13:32Z</time>
      </trkpt>
      <trkpt lat="45.14313" lon="4.86727">
        <ele>295.07699584961</ele>
        <time>2010-02-26T14:13:38Z</time>
      </trkpt>
      <trkpt lat="45.14343" lon="4.86731">
        <ele>293.37899780273</ele>
        <time>2010-02-26T14:13:41Z</time>
      </trkpt>
      <trkpt lat="45.14362" lon="4.86723">
        <ele>291.89999389648</ele>
        <time>2010-02-26T14:13:44Z</time>
      </trkpt>
      <trkpt lat="45.14366" lon="4.86706">
        <ele>290.98098754883</ele>
        <time>2010-02-26T14:13:46Z</time>
      </trkpt>
      <trkpt lat="45.14364" lon="4.86696">
        <ele>290.67700195312</ele>
        <time>2010-02-26T14:13:47Z</time>
      </trkpt>
      <trkpt lat="45.14362" lon="4.86686">
        <ele>290.5710144043</ele>
        <time>2010-02-26T14:13:48Z</time>
      </trkpt>
      <trkpt lat="45.14349" lon="4.86648">
        <ele>290.15701293945</ele>
        <time>2010-02-26T14:13:52Z</time>
      </trkpt>
      <trkpt lat="45.14327" lon="4.86614">
        <ele>290.71398925781</ele>
        <time>2010-02-26T14:13:57Z</time>
      </trkpt>
      <trkpt lat="45.14317" lon="4.86593">
        <ele>290.23498535156</ele>
        <time>2010-02-26T14:14:00Z</time>
      </trkpt>
      <trkpt lat="45.14321" lon="4.86569">
        <ele>288.22900390625</ele>
        <time>2010-02-26T14:14:03Z</time>
      </trkpt>
      <trkpt lat="45.14331" lon="4.86537">
        <ele>286.57000732422</ele>
        <time>2010-02-26T14:14:07Z</time>
      </trkpt>
      <trkpt lat="45.14336" lon="4.86509">
        <ele>285.67300415039</ele>
        <time>2010-02-26T14:14:10Z</time>
      </trkpt>
      <trkpt lat="45.14339" lon="4.86422">
        <ele>284.07998657227</ele>
        <time>2010-02-26T14:14:19Z</time>
      </trkpt>
      <trkpt lat="45.14345" lon="4.86373">
        <ele>281.65301513672</ele>
        <time>2010-02-26T14:14:24Z</time>
      </trkpt>
      <trkpt lat="45.14359" lon="4.86324">
        <ele>281.38101196289</ele>
        <time>2010-02-26T14:14:29Z</time>
      </trkpt>
      <trkpt lat="45.14363" lon="4.86303">
        <ele>280.31500244141</ele>
        <time>2010-02-26T14:14:31Z</time>
      </trkpt>
      <trkpt lat="45.14376" lon="4.86228">
        <ele>280.08200073242</ele>
        <time>2010-02-26T14:14:38Z</time>
      </trkpt>
      <trkpt lat="45.14389" lon="4.86191">
        <ele>280.65100097656</ele>
        <time>2010-02-26T14:14:42Z</time>
      </trkpt>
      <trkpt lat="45.14399" lon="4.86169">
        <ele>279.99700927734</ele>
        <time>2010-02-26T14:14:45Z</time>
      </trkpt>
      <trkpt lat="45.14425" lon="4.86137">
        <ele>277.21798706055</ele>
        <time>2010-02-26T14:14:50Z</time>
      </trkpt>
      <trkpt lat="45.14462" lon="4.86111">
        <ele>273.89999389648</ele>
        <time>2010-02-26T14:14:55Z</time>
      </trkpt>
      <trkpt lat="45.14497" lon="4.86076">
        <ele>270.73599243164</ele>
        <time>2010-02-26T14:15:00Z</time>
      </trkpt>
      <trkpt lat="45.14544" lon="4.86022">
        <ele>264.49600219727</ele>
        <time>2010-02-26T14:15:06Z</time>
      </trkpt>
      <trkpt lat="45.14587" lon="4.85981">
        <ele>262.98999023438</ele>
        <time>2010-02-26T14:15:11Z</time>
      </trkpt>
      <trkpt lat="45.14624" lon="4.85974">
        <ele>263.13000488281</ele>
        <time>2010-02-26T14:15:15Z</time>
      </trkpt>
      <trkpt lat="45.14631" lon="4.85978">
        <ele>264.08599853516</ele>
        <time>2010-02-26T14:15:16Z</time>
      </trkpt>
      <trkpt lat="45.14643" lon="4.85985">
        <ele>265.43701171875</ele>
        <time>2010-02-26T14:15:18Z</time>
      </trkpt>
      <trkpt lat="45.14663" lon="4.85998">
        <ele>264.67199707031</ele>
        <time>2010-02-26T14:15:22Z</time>
      </trkpt>
      <trkpt lat="45.14684" lon="4.86024">
        <ele>262.68399047852</ele>
        <time>2010-02-26T14:15:26Z</time>
      </trkpt>
      <trkpt lat="45.14706" lon="4.86084">
        <ele>259.78100585938</ele>
        <time>2010-02-26T14:15:32Z</time>
      </trkpt>
      <trkpt lat="45.1472" lon="4.86126">
        <ele>259.72100830078</ele>
        <time>2010-02-26T14:15:36Z</time>
      </trkpt>
      <trkpt lat="45.1474" lon="4.86154">
        <ele>259.50299072266</ele>
        <time>2010-02-26T14:15:40Z</time>
      </trkpt>
      <trkpt lat="45.14745" lon="4.86159">
        <ele>259.50500488281</ele>
        <time>2010-02-26T14:15:41Z</time>
      </trkpt>
      <trkpt lat="45.1476" lon="4.86172">
        <ele>261.43701171875</ele>
        <time>2010-02-26T14:15:44Z</time>
      </trkpt>
      <trkpt lat="45.14767" lon="4.86181">
        <ele>262.06100463867</ele>
        <time>2010-02-26T14:15:46Z</time>
      </trkpt>
      <trkpt lat="45.14784" lon="4.86196">
        <ele>261.84899902344</ele>
        <time>2010-02-26T14:15:50Z</time>
      </trkpt>
      <trkpt lat="45.14808" lon="4.86211">
        <ele>260.53201293945</ele>
        <time>2010-02-26T14:15:54Z</time>
      </trkpt>
      <trkpt lat="45.14833" lon="4.86224">
        <ele>259.4880065918</ele>
        <time>2010-02-26T14:15:58Z</time>
      </trkpt>
      <trkpt lat="45.14855" lon="4.86229">
        <ele>259.9289855957</ele>
        <time>2010-02-26T14:16:01Z</time>
      </trkpt>
      <trkpt lat="45.14895" lon="4.86229">
        <ele>260.06399536133</ele>
        <time>2010-02-26T14:16:06Z</time>
      </trkpt>
      <trkpt lat="45.14928" lon="4.86226">
        <ele>256.91198730469</ele>
        <time>2010-02-26T14:16:10Z</time>
      </trkpt>
      <trkpt lat="45.14954" lon="4.8623">
        <ele>256.6369934082</ele>
        <time>2010-02-26T14:16:14Z</time>
      </trkpt>
      <trkpt lat="45.14967" lon="4.86235">
        <ele>254.69900512695</ele>
        <time>2010-02-26T14:16:18Z</time>
      </trkpt>
      <trkpt lat="45.14978" lon="4.86239">
        <ele>252.20300292969</ele>
        <time>2010-02-26T14:16:20Z</time>
      </trkpt>
      <trkpt lat="45.14985" lon="4.86241">
        <ele>250.79100036621</ele>
        <time>2010-02-26T14:16:21Z</time>
      </trkpt>
      <trkpt lat="45.14998" lon="4.86242">
        <ele>247.66200256348</ele>
        <time>2010-02-26T14:16:23Z</time>
      </trkpt>
      <trkpt lat="45.15028" lon="4.8624">
        <ele>241.78700256348</ele>
        <time>2010-02-26T14:16:26Z</time>
      </trkpt>
      <trkpt lat="45.15076" lon="4.8624">
        <ele>236.52600097656</ele>
        <time>2010-02-26T14:16:30Z</time>
      </trkpt>
      <trkpt lat="45.15151" lon="4.86247">
        <ele>228.18800354004</ele>
        <time>2010-02-26T14:16:36Z</time>
      </trkpt>
      <trkpt lat="45.15208" lon="4.86257">
        <ele>218.22799682617</ele>
        <time>2010-02-26T14:16:40Z</time>
      </trkpt>
      <trkpt lat="45.15295" lon="4.86253">
        <ele>209.54800415039</ele>
        <time>2010-02-26T14:16:46Z</time>
      </trkpt>
      <trkpt lat="45.15339" lon="4.86243">
        <ele>204.68600463867</ele>
        <time>2010-02-26T14:16:49Z</time>
      </trkpt>
      <trkpt lat="45.15352" lon="4.8624">
        <ele>203.40899658203</ele>
        <time>2010-02-26T14:16:50Z</time>
      </trkpt>
      <trkpt lat="45.15389" lon="4.86217">
        <ele>200.67500305176</ele>
        <time>2010-02-26T14:16:54Z</time>
      </trkpt>
      <trkpt lat="45.15395" lon="4.8621">
        <ele>200.39199829102</ele>
        <time>2010-02-26T14:16:55Z</time>
      </trkpt>
      <trkpt lat="45.154" lon="4.86203">
        <ele>199.66700744629</ele>
        <time>2010-02-26T14:16:56Z</time>
      </trkpt>
      <trkpt lat="45.15414" lon="4.86182">
        <ele>199.50300598144</ele>
        <time>2010-02-26T14:17:01Z</time>
      </trkpt>
      <trkpt lat="45.15422" lon="4.86192">
        <ele>200.05099487305</ele>
        <time>2010-02-26T14:17:05Z</time>
      </trkpt>
      <trkpt lat="45.15428" lon="4.86213">
        <ele>200.39399719238</ele>
        <time>2010-02-26T14:17:12Z</time>
      </trkpt>
      <trkpt lat="45.15437" lon="4.86239">
        <ele>200.99699401856</ele>
        <time>2010-02-26T14:17:20Z</time>
      </trkpt>
      <trkpt lat="45.1545" lon="4.86265">
        <ele>201.80799865723</ele>
        <time>2010-02-26T14:17:27Z</time>
      </trkpt>
      <trkpt lat="45.15457" lon="4.86269">
        <ele>201.94500732422</ele>
        <time>2010-02-26T14:17:29Z</time>
      </trkpt>
      <trkpt lat="45.1548" lon="4.86268">
        <ele>201.98599243164</ele>
        <time>2010-02-26T14:17:34Z</time>
      </trkpt>
      <trkpt lat="45.15514" lon="4.86254">
        <ele>202.31700134277</ele>
        <time>2010-02-26T14:17:40Z</time>
      </trkpt>
      <trkpt lat="45.15545" lon="4.86243">
        <ele>203.09300231934</ele>
        <time>2010-02-26T14:17:45Z</time>
      </trkpt>
      <trkpt lat="45.15578" lon="4.86242">
        <ele>205.01699829102</ele>
        <time>2010-02-26T14:17:51Z</time>
      </trkpt>
      <trkpt lat="45.15606" lon="4.86241">
        <ele>207.34899902344</ele>
        <time>2010-02-26T14:17:58Z</time>
      </trkpt>
      <trkpt lat="45.15626" lon="4.86238">
        <ele>208.62600708008</ele>
        <time>2010-02-26T14:18:04Z</time>
      </trkpt>
      <trkpt lat="45.15646" lon="4.86236">
        <ele>210.18099975586</ele>
        <time>2010-02-26T14:18:11Z</time>
      </trkpt>
      <trkpt lat="45.15665" lon="4.86233">
        <ele>212.1190032959</ele>
        <time>2010-02-26T14:18:18Z</time>
      </trkpt>
      <trkpt lat="45.15683" lon="4.86225">
        <ele>213.03399658203</ele>
        <time>2010-02-26T14:18:25Z</time>
      </trkpt>
      <trkpt lat="45.15702" lon="4.86217">
        <ele>214.15699768066</ele>
        <time>2010-02-26T14:18:33Z</time>
      </trkpt>
      <trkpt lat="45.15721" lon="4.86209">
        <ele>214.44500732422</ele>
        <time>2010-02-26T14:18:40Z</time>
      </trkpt>
      <trkpt lat="45.15741" lon="4.862">
        <ele>217.40100097656</ele>
        <time>2010-02-26T14:18:48Z</time>
      </trkpt>
      <trkpt lat="45.15746" lon="4.86198">
        <ele>217.88000488281</ele>
        <time>2010-02-26T14:18:50Z</time>
      </trkpt>
      <trkpt lat="45.15747" lon="4.86198">
        <ele>218.14799499512</ele>
        <time>2010-02-26T14:18:53Z</time>
      </trkpt>
      <trkpt lat="45.15747" lon="4.86198">
        <ele>217.5</ele>
        <time>2010-02-26T14:19:01Z</time>
      </trkpt>
      <trkpt lat="45.15747" lon="4.86198">
        <ele>217.03999328613</ele>
        <time>2010-02-26T14:19:03Z</time>
      </trkpt>
      <trkpt lat="45.1575" lon="4.86192">
        <ele>216.88900756836</ele>
        <time>2010-02-26T14:19:51Z</time>
      </trkpt>
      <trkpt lat="45.15759" lon="4.86188">
        <ele>216.48300170898</ele>
        <time>2010-02-26T14:19:56Z</time>
      </trkpt>
      <trkpt lat="45.15777" lon="4.86181">
        <ele>217.84199523926</ele>
        <time>2010-02-26T14:20:03Z</time>
      </trkpt>
      <trkpt lat="45.15798" lon="4.86169">
        <ele>220.65299987793</ele>
        <time>2010-02-26T14:20:10Z</time>
      </trkpt>
      <trkpt lat="45.15804" lon="4.86161">
        <ele>220.74600219727</ele>
        <time>2010-02-26T14:20:12Z</time>
      </trkpt>
      <trkpt lat="45.15805" lon="4.86131">
        <ele>219.97900390625</ele>
        <time>2010-02-26T14:20:17Z</time>
      </trkpt>
      <trkpt lat="45.15794" lon="4.86117">
        <ele>220.43299865723</ele>
        <time>2010-02-26T14:20:20Z</time>
      </trkpt>
      <trkpt lat="45.15786" lon="4.86109">
        <ele>221.57200622559</ele>
        <time>2010-02-26T14:20:22Z</time>
      </trkpt>
      <trkpt lat="45.1576" lon="4.86093">
        <ele>224.32299804688</ele>
        <time>2010-02-26T14:20:29Z</time>
      </trkpt>
      <trkpt lat="45.15744" lon="4.8609">
        <ele>225.74099731445</ele>
        <time>2010-02-26T14:20:34Z</time>
      </trkpt>
      <trkpt lat="45.15725" lon="4.86097">
        <ele>227.67900085449</ele>
        <time>2010-02-26T14:20:41Z</time>
      </trkpt>
      <trkpt lat="45.15715" lon="4.86088">
        <ele>228.2440032959</ele>
        <time>2010-02-26T14:20:45Z</time>
      </trkpt>
      <trkpt lat="45.15714" lon="4.86074">
        <ele>229.23599243164</ele>
        <time>2010-02-26T14:20:49Z</time>
      </trkpt>
      <trkpt lat="45.15717" lon="4.86052">
        <ele>230.82000732422</ele>
        <time>2010-02-26T14:20:55Z</time>
      </trkpt>
      <trkpt lat="45.15715" lon="4.86023">
        <ele>232.72900390625</ele>
        <time>2010-02-26T14:21:02Z</time>
      </trkpt>
      <trkpt lat="45.15709" lon="4.86002">
        <ele>234.30700683594</ele>
        <time>2010-02-26T14:21:08Z</time>
      </trkpt>
      <trkpt lat="45.15698" lon="4.85974">
        <ele>236.19299316406</ele>
        <time>2010-02-26T14:21:16Z</time>
      </trkpt>
      <trkpt lat="45.15692" lon="4.85945">
        <ele>238.29200744629</ele>
        <time>2010-02-26T14:21:24Z</time>
      </trkpt>
      <trkpt lat="45.15693" lon="4.85942">
        <ele>238.05499267578</ele>
        <time>2010-02-26T14:21:25Z</time>
      </trkpt>
      <trkpt lat="45.15701" lon="4.85937">
        <ele>239.63600158691</ele>
        <time>2010-02-26T14:21:29Z</time>
      </trkpt>
      <trkpt lat="45.15717" lon="4.85935">
        <ele>240.8450012207</ele>
        <time>2010-02-26T14:21:37Z</time>
      </trkpt>
      <trkpt lat="45.15736" lon="4.85929">
        <ele>243.61199951172</ele>
        <time>2010-02-26T14:21:45Z</time>
      </trkpt>
      <trkpt lat="45.15749" lon="4.85925">
        <ele>245.12300109863</ele>
        <time>2010-02-26T14:21:51Z</time>
      </trkpt>
      <trkpt lat="45.15768" lon="4.85919">
        <ele>246.05299377441</ele>
        <time>2010-02-26T14:21:59Z</time>
      </trkpt>
      <trkpt lat="45.15787" lon="4.85912">
        <ele>248.18200683594</ele>
        <time>2010-02-26T14:22:07Z</time>
      </trkpt>
      <trkpt lat="45.15806" lon="4.85906">
        <ele>249.70799255371</ele>
        <time>2010-02-26T14:22:14Z</time>
      </trkpt>
      <trkpt lat="45.15828" lon="4.859">
        <ele>251.28199768066</ele>
        <time>2010-02-26T14:22:22Z</time>
      </trkpt>
      <trkpt lat="45.15845" lon="4.85894">
        <ele>252.38999938965</ele>
        <time>2010-02-26T14:22:28Z</time>
      </trkpt>
      <trkpt lat="45.15863" lon="4.85889">
        <ele>253.9940032959</ele>
        <time>2010-02-26T14:22:34Z</time>
      </trkpt>
      <trkpt lat="45.15866" lon="4.85887">
        <ele>254.0950012207</ele>
        <time>2010-02-26T14:22:35Z</time>
      </trkpt>
      <trkpt lat="45.15879" lon="4.85884">
        <ele>253.41000366211</ele>
        <time>2010-02-26T14:22:39Z</time>
      </trkpt>
      <trkpt lat="45.15894" lon="4.85879">
        <ele>254.83299255371</ele>
        <time>2010-02-26T14:22:43Z</time>
      </trkpt>
      <trkpt lat="45.15912" lon="4.85869">
        <ele>255.53799438477</ele>
        <time>2010-02-26T14:22:48Z</time>
      </trkpt>
      <trkpt lat="45.15939" lon="4.85853">
        <ele>255.82899475098</ele>
        <time>2010-02-26T14:22:55Z</time>
      </trkpt>
      <trkpt lat="45.15964" lon="4.85845">
        <ele>256.11499023438</ele>
        <time>2010-02-26T14:23:02Z</time>
      </trkpt>
      <trkpt lat="45.15985" lon="4.85844">
        <ele>256.66101074219</ele>
        <time>2010-02-26T14:23:07Z</time>
      </trkpt>
      <trkpt lat="45.16011" lon="4.85854">
        <ele>257.13000488281</ele>
        <time>2010-02-26T14:23:13Z</time>
      </trkpt>
      <trkpt lat="45.16031" lon="4.85867">
        <ele>257.24499511719</ele>
        <time>2010-02-26T14:23:18Z</time>
      </trkpt>
      <trkpt lat="45.16042" lon="4.85876">
        <ele>257.45001220703</ele>
        <time>2010-02-26T14:23:21Z</time>
      </trkpt>
      <trkpt lat="45.16065" lon="4.85892">
        <ele>258.14300537109</ele>
        <time>2010-02-26T14:23:28Z</time>
      </trkpt>
      <trkpt lat="45.16079" lon="4.85896">
        <ele>257.02899169922</ele>
        <time>2010-02-26T14:23:32Z</time>
      </trkpt>
      <trkpt lat="45.1609" lon="4.85915">
        <ele>258.28298950195</ele>
        <time>2010-02-26T14:23:37Z</time>
      </trkpt>
      <trkpt lat="45.16088" lon="4.85924">
        <ele>259.82501220703</ele>
        <time>2010-02-26T14:23:40Z</time>
      </trkpt>
      <trkpt lat="45.16084" lon="4.85936">
        <ele>261.39700317383</ele>
        <time>2010-02-26T14:23:44Z</time>
      </trkpt>
      <trkpt lat="45.16079" lon="4.85952">
        <ele>262.39300537109</ele>
        <time>2010-02-26T14:23:49Z</time>
      </trkpt>
      <trkpt lat="45.16073" lon="4.85975">
        <ele>261.8210144043</ele>
        <time>2010-02-26T14:23:54Z</time>
      </trkpt>
      <trkpt lat="45.16061" lon="4.86005">
        <ele>260.7799987793</ele>
        <time>2010-02-26T14:23:59Z</time>
      </trkpt>
      <trkpt lat="45.16044" lon="4.86035">
        <ele>260.82598876953</ele>
        <time>2010-02-26T14:24:04Z</time>
      </trkpt>
      <trkpt lat="45.16029" lon="4.8606">
        <ele>261.72799682617</ele>
        <time>2010-02-26T14:24:09Z</time>
      </trkpt>
      <trkpt lat="45.1602" lon="4.86089">
        <ele>262.0419921875</ele>
        <time>2010-02-26T14:24:14Z</time>
      </trkpt>
      <trkpt lat="45.16027" lon="4.86113">
        <ele>263.64099121094</ele>
        <time>2010-02-26T14:24:19Z</time>
      </trkpt>
      <trkpt lat="45.16032" lon="4.86133">
        <ele>266.2200012207</ele>
        <time>2010-02-26T14:24:26Z</time>
      </trkpt>
      <trkpt lat="45.16031" lon="4.8614">
        <ele>267.45700073242</ele>
        <time>2010-02-26T14:24:29Z</time>
      </trkpt>
      <trkpt lat="45.16026" lon="4.86157">
        <ele>269.21099853516</ele>
        <time>2010-02-26T14:24:35Z</time>
      </trkpt>
      <trkpt lat="45.1602" lon="4.86175">
        <ele>271.33200073242</ele>
        <time>2010-02-26T14:24:42Z</time>
      </trkpt>
      <trkpt lat="45.16015" lon="4.86204">
        <ele>273.46600341797</ele>
        <time>2010-02-26T14:24:50Z</time>
      </trkpt>
      <trkpt lat="45.16012" lon="4.86226">
        <ele>275.60598754883</ele>
        <time>2010-02-26T14:24:56Z</time>
      </trkpt>
      <trkpt lat="45.16008" lon="4.8625">
        <ele>278.26300048828</ele>
        <time>2010-02-26T14:25:03Z</time>
      </trkpt>
      <trkpt lat="45.16005" lon="4.86272">
        <ele>280.34399414062</ele>
        <time>2010-02-26T14:25:09Z</time>
      </trkpt>
      <trkpt lat="45.16005" lon="4.86295">
        <ele>281.68200683594</ele>
        <time>2010-02-26T14:25:14Z</time>
      </trkpt>
      <trkpt lat="45.16012" lon="4.86325">
        <ele>281.47601318359</ele>
        <time>2010-02-26T14:25:21Z</time>
      </trkpt>
      <trkpt lat="45.16015" lon="4.86336">
        <ele>281.08801269531</ele>
        <time>2010-02-26T14:25:23Z</time>
      </trkpt>
      <trkpt lat="45.1603" lon="4.8637">
        <ele>277.07800292969</ele>
        <time>2010-02-26T14:25:29Z</time>
      </trkpt>
      <trkpt lat="45.16043" lon="4.86428">
        <ele>271.46701049805</ele>
        <time>2010-02-26T14:25:34Z</time>
      </trkpt>
      <trkpt lat="45.16061" lon="4.86478">
        <ele>268.75799560547</ele>
        <time>2010-02-26T14:25:38Z</time>
      </trkpt>
      <trkpt lat="45.16065" lon="4.8649">
        <ele>267.98001098633</ele>
        <time>2010-02-26T14:25:39Z</time>
      </trkpt>
      <trkpt lat="45.16073" lon="4.86531">
        <ele>267.33999633789</ele>
        <time>2010-02-26T14:25:43Z</time>
      </trkpt>
      <trkpt lat="45.16073" lon="4.86541">
        <ele>267.05499267578</ele>
        <time>2010-02-26T14:25:44Z</time>
      </trkpt>
      <trkpt lat="45.16072" lon="4.86561">
        <ele>266.79000854492</ele>
        <time>2010-02-26T14:25:46Z</time>
      </trkpt>
      <trkpt lat="45.1608" lon="4.86603">
        <ele>265.24398803711</ele>
        <time>2010-02-26T14:25:50Z</time>
      </trkpt>
      <trkpt lat="45.16085" lon="4.86653">
        <ele>265.98300170898</ele>
        <time>2010-02-26T14:25:55Z</time>
      </trkpt>
      <trkpt lat="45.16085" lon="4.86671">
        <ele>266.26501464844</ele>
        <time>2010-02-26T14:25:57Z</time>
      </trkpt>
      <trkpt lat="45.16084" lon="4.86687">
        <ele>265.97698974609</ele>
        <time>2010-02-26T14:25:59Z</time>
      </trkpt>
      <trkpt lat="45.16072" lon="4.86721">
        <ele>266.66799926758</ele>
        <time>2010-02-26T14:26:04Z</time>
      </trkpt>
      <trkpt lat="45.16065" lon="4.86732">
        <ele>267.21099853516</ele>
        <time>2010-02-26T14:26:06Z</time>
      </trkpt>
      <trkpt lat="45.16047" lon="4.86759">
        <ele>267.06600952148</ele>
        <time>2010-02-26T14:26:11Z</time>
      </trkpt>
      <trkpt lat="45.16033" lon="4.86806">
        <ele>265.34698486328</ele>
        <time>2010-02-26T14:26:17Z</time>
      </trkpt>
      <trkpt lat="45.16027" lon="4.86836">
        <ele>263.4460144043</ele>
        <time>2010-02-26T14:26:20Z</time>
      </trkpt>
      <trkpt lat="45.16021" lon="4.86858">
        <ele>262.80099487305</ele>
        <time>2010-02-26T14:26:22Z</time>
      </trkpt>
      <trkpt lat="45.16" lon="4.86899">
        <ele>260.49899291992</ele>
        <time>2010-02-26T14:26:26Z</time>
      </trkpt>
      <trkpt lat="45.15972" lon="4.8692">
        <ele>256.75399780273</ele>
        <time>2010-02-26T14:26:29Z</time>
      </trkpt>
      <trkpt lat="45.15952" lon="4.8693">
        <ele>255.48199462891</ele>
        <time>2010-02-26T14:26:31Z</time>
      </trkpt>
      <trkpt lat="45.15894" lon="4.86979">
        <ele>250.96000671387</ele>
        <time>2010-02-26T14:26:37Z</time>
      </trkpt>
      <trkpt lat="45.15876" lon="4.86997">
        <ele>249.91400146484</ele>
        <time>2010-02-26T14:26:39Z</time>
      </trkpt>
      <trkpt lat="45.15828" lon="4.87058">
        <ele>249.47900390625</ele>
        <time>2010-02-26T14:26:45Z</time>
      </trkpt>
      <trkpt lat="45.15798" lon="4.87104">
        <ele>251.47500610352</ele>
        <time>2010-02-26T14:26:50Z</time>
      </trkpt>
      <trkpt lat="45.15781" lon="4.87142">
        <ele>253.84700012207</ele>
        <time>2010-02-26T14:26:55Z</time>
      </trkpt>
      <trkpt lat="45.15767" lon="4.87192">
        <ele>254.20199584961</ele>
        <time>2010-02-26T14:27:02Z</time>
      </trkpt>
      <trkpt lat="45.15749" lon="4.87243">
        <ele>253.03300476074</ele>
        <time>2010-02-26T14:27:08Z</time>
      </trkpt>
      <trkpt lat="45.1572" lon="4.87296">
        <ele>251.43699645996</ele>
        <time>2010-02-26T14:27:14Z</time>
      </trkpt>
      <trkpt lat="45.15714" lon="4.87304">
        <ele>250.99099731445</ele>
        <time>2010-02-26T14:27:15Z</time>
      </trkpt>
      <trkpt lat="45.15685" lon="4.87326">
        <ele>250.48100280762</ele>
        <time>2010-02-26T14:27:19Z</time>
      </trkpt>
      <trkpt lat="45.15667" lon="4.87347">
        <ele>250.92799377441</ele>
        <time>2010-02-26T14:27:22Z</time>
      </trkpt>
      <trkpt lat="45.15648" lon="4.87372">
        <ele>251.61799621582</ele>
        <time>2010-02-26T14:27:26Z</time>
      </trkpt>
      <trkpt lat="45.15627" lon="4.87384">
        <ele>253.64599609375</ele>
        <time>2010-02-26T14:27:30Z</time>
      </trkpt>
      <trkpt lat="45.15615" lon="4.87406">
        <ele>255.02299499512</ele>
        <time>2010-02-26T14:27:34Z</time>
      </trkpt>
      <trkpt lat="45.15616" lon="4.8742">
        <ele>255.07400512695</ele>
        <time>2010-02-26T14:27:36Z</time>
      </trkpt>
      <trkpt lat="45.15619" lon="4.87425">
        <ele>255.31199645996</ele>
        <time>2010-02-26T14:27:37Z</time>
      </trkpt>
      <trkpt lat="45.15633" lon="4.87432">
        <ele>255.04899597168</ele>
        <time>2010-02-26T14:27:40Z</time>
      </trkpt>
      <trkpt lat="45.15638" lon="4.87434">
        <ele>254.80400085449</ele>
        <time>2010-02-26T14:27:41Z</time>
      </trkpt>
      <trkpt lat="45.15652" lon="4.87453">
        <ele>254.35200500488</ele>
        <time>2010-02-26T14:27:45Z</time>
      </trkpt>
      <trkpt lat="45.15654" lon="4.87477">
        <ele>254.90400695801</ele>
        <time>2010-02-26T14:27:48Z</time>
      </trkpt>
      <trkpt lat="45.15654" lon="4.87525">
        <ele>256.27801513672</ele>
        <time>2010-02-26T14:27:54Z</time>
      </trkpt>
      <trkpt lat="45.15654" lon="4.87532">
        <ele>256.15701293945</ele>
        <time>2010-02-26T14:27:55Z</time>
      </trkpt>
      <trkpt lat="45.15642" lon="4.87558">
        <ele>254.87100219727</ele>
        <time>2010-02-26T14:27:59Z</time>
      </trkpt>
      <trkpt lat="45.1563" lon="4.87561">
        <ele>254.52699279785</ele>
        <time>2010-02-26T14:28:01Z</time>
      </trkpt>
      <trkpt lat="45.15574" lon="4.87557">
        <ele>254.92199707031</ele>
        <time>2010-02-26T14:28:09Z</time>
      </trkpt>
      <trkpt lat="45.15536" lon="4.87554">
        <ele>254.07699584961</ele>
        <time>2010-02-26T14:28:14Z</time>
      </trkpt>
      <trkpt lat="45.15493" lon="4.87565">
        <ele>253.85600280762</ele>
        <time>2010-02-26T14:28:20Z</time>
      </trkpt>
      <trkpt lat="45.15486" lon="4.87568">
        <ele>254.27799987793</ele>
        <time>2010-02-26T14:28:21Z</time>
      </trkpt>
      <trkpt lat="45.15441" lon="4.87587">
        <ele>254.47099304199</ele>
        <time>2010-02-26T14:28:28Z</time>
      </trkpt>
      <trkpt lat="45.15401" lon="4.87587">
        <ele>254.48599243164</ele>
        <time>2010-02-26T14:28:35Z</time>
      </trkpt>
      <trkpt lat="45.15384" lon="4.8759">
        <ele>257.03698730469</ele>
        <time>2010-02-26T14:28:38Z</time>
      </trkpt>
      <trkpt lat="45.15371" lon="4.87594">
        <ele>257.04501342773</ele>
        <time>2010-02-26T14:28:40Z</time>
      </trkpt>
      <trkpt lat="45.15333" lon="4.87622">
        <ele>255.89500427246</ele>
        <time>2010-02-26T14:28:46Z</time>
      </trkpt>
      <trkpt lat="45.15298" lon="4.8765">
        <ele>255.89700317383</ele>
        <time>2010-02-26T14:28:51Z</time>
      </trkpt>
      <trkpt lat="45.15271" lon="4.87688">
        <ele>253.65699768066</ele>
        <time>2010-02-26T14:28:56Z</time>
      </trkpt>
      <trkpt lat="45.15232" lon="4.87747">
        <ele>254.95500183106</ele>
        <time>2010-02-26T14:29:04Z</time>
      </trkpt>
      <trkpt lat="45.15186" lon="4.8781">
        <ele>255.73100280762</ele>
        <time>2010-02-26T14:29:13Z</time>
      </trkpt>
      <trkpt lat="45.1515" lon="4.87837">
        <ele>254.12100219727</ele>
        <time>2010-02-26T14:29:18Z</time>
      </trkpt>
      <trkpt lat="45.15074" lon="4.87889">
        <ele>253.77900695801</ele>
        <time>2010-02-26T14:29:28Z</time>
      </trkpt>
      <trkpt lat="45.15023" lon="4.87917">
        <ele>253.80999755859</ele>
        <time>2010-02-26T14:29:35Z</time>
      </trkpt>
      <trkpt lat="45.14972" lon="4.87942">
        <ele>252.07499694824</ele>
        <time>2010-02-26T14:29:42Z</time>
      </trkpt>
      <trkpt lat="45.14902" lon="4.87975">
        <ele>251.43899536133</ele>
        <time>2010-02-26T14:29:51Z</time>
      </trkpt>
      <trkpt lat="45.14849" lon="4.87988">
        <ele>251.2559967041</ele>
        <time>2010-02-26T14:29:58Z</time>
      </trkpt>
      <trkpt lat="45.14806" lon="4.87997">
        <ele>250.51699829102</ele>
        <time>2010-02-26T14:30:04Z</time>
      </trkpt>
      <trkpt lat="45.14777" lon="4.88002">
        <ele>249.57499694824</ele>
        <time>2010-02-26T14:30:08Z</time>
      </trkpt>
      <trkpt lat="45.14763" lon="4.88017">
        <ele>248.95100402832</ele>
        <time>2010-02-26T14:30:11Z</time>
      </trkpt>
      <trkpt lat="45.14763" lon="4.88035">
        <ele>248.38900756836</ele>
        <time>2010-02-26T14:30:13Z</time>
      </trkpt>
      <trkpt lat="45.14766" lon="4.8811">
        <ele>247.94200134277</ele>
        <time>2010-02-26T14:30:21Z</time>
      </trkpt>
      <trkpt lat="45.14771" lon="4.88174">
        <ele>243.06700134277</ele>
        <time>2010-02-26T14:30:27Z</time>
      </trkpt>
      <trkpt lat="45.14775" lon="4.88213">
        <ele>240.61000061035</ele>
        <time>2010-02-26T14:30:30Z</time>
      </trkpt>
      <trkpt lat="45.14796" lon="4.88252">
        <ele>236.04400634766</ele>
        <time>2010-02-26T14:30:34Z</time>
      </trkpt>
      <trkpt lat="45.14813" lon="4.88268">
        <ele>232.66499328613</ele>
        <time>2010-02-26T14:30:36Z</time>
      </trkpt>
      <trkpt lat="45.14839" lon="4.88322">
        <ele>227.61999511719</ele>
        <time>2010-02-26T14:30:40Z</time>
      </trkpt>
      <trkpt lat="45.1484" lon="4.88338">
        <ele>227.4109954834</ele>
        <time>2010-02-26T14:30:41Z</time>
      </trkpt>
      <trkpt lat="45.1484" lon="4.88355">
        <ele>227.38000488281</ele>
        <time>2010-02-26T14:30:42Z</time>
      </trkpt>
      <trkpt lat="45.14829" lon="4.88433">
        <ele>227.37800598144</ele>
        <time>2010-02-26T14:30:47Z</time>
      </trkpt>
      <trkpt lat="45.14824" lon="4.88471">
        <ele>228.93499755859</ele>
        <time>2010-02-26T14:30:50Z</time>
      </trkpt>
      <trkpt lat="45.14818" lon="4.88526">
        <ele>228.6190032959</ele>
        <time>2010-02-26T14:30:55Z</time>
      </trkpt>
      <trkpt lat="45.14815" lon="4.88562">
        <ele>226.60200500488</ele>
        <time>2010-02-26T14:30:58Z</time>
      </trkpt>
      <trkpt lat="45.14801" lon="4.88605">
        <ele>223.68899536133</ele>
        <time>2010-02-26T14:31:02Z</time>
      </trkpt>
      <trkpt lat="45.1479" lon="4.88622">
        <ele>222.21099853516</ele>
        <time>2010-02-26T14:31:04Z</time>
      </trkpt>
      <trkpt lat="45.1478" lon="4.88654">
        <ele>220.96000671387</ele>
        <time>2010-02-26T14:31:07Z</time>
      </trkpt>
      <trkpt lat="45.14781" lon="4.88678">
        <ele>220.37600708008</ele>
        <time>2010-02-26T14:31:09Z</time>
      </trkpt>
      <trkpt lat="45.14784" lon="4.88711">
        <ele>220.64799499512</ele>
        <time>2010-02-26T14:31:12Z</time>
      </trkpt>
      <trkpt lat="45.1479" lon="4.8874">
        <ele>221.07600402832</ele>
        <time>2010-02-26T14:31:15Z</time>
      </trkpt>
      <trkpt lat="45.14787" lon="4.88771">
        <ele>221.92399597168</ele>
        <time>2010-02-26T14:31:19Z</time>
      </trkpt>
      <trkpt lat="45.14779" lon="4.88776">
        <ele>222.72700500488</ele>
        <time>2010-02-26T14:31:21Z</time>
      </trkpt>
      <trkpt lat="45.14758" lon="4.88781">
        <ele>224.60299682617</ele>
        <time>2010-02-26T14:31:27Z</time>
      </trkpt>
      <trkpt lat="45.14735" lon="4.88786">
        <ele>225.69000244141</ele>
        <time>2010-02-26T14:31:33Z</time>
      </trkpt>
      <trkpt lat="45.14721" lon="4.88788">
        <ele>226.88400268555</ele>
        <time>2010-02-26T14:31:37Z</time>
      </trkpt>
      <trkpt lat="45.147" lon="4.88792">
        <ele>228.3869934082</ele>
        <time>2010-02-26T14:31:42Z</time>
      </trkpt>
      <trkpt lat="45.14683" lon="4.88794">
        <ele>229.04200744629</ele>
        <time>2010-02-26T14:31:45Z</time>
      </trkpt>
      <trkpt lat="45.14671" lon="4.88796">
        <ele>230.18899536133</ele>
        <time>2010-02-26T14:31:47Z</time>
      </trkpt>
      <trkpt lat="45.14651" lon="4.88797">
        <ele>231.87699890137</ele>
        <time>2010-02-26T14:31:50Z</time>
      </trkpt>
      <trkpt lat="45.14645" lon="4.88798">
        <ele>232.24499511719</ele>
        <time>2010-02-26T14:31:51Z</time>
      </trkpt>
      <trkpt lat="45.14638" lon="4.88798">
        <ele>232.66299438477</ele>
        <time>2010-02-26T14:31:52Z</time>
      </trkpt>
      <trkpt lat="45.14612" lon="4.888">
        <ele>235.17700195312</ele>
        <time>2010-02-26T14:31:56Z</time>
      </trkpt>
      <trkpt lat="45.14602" lon="4.88801">
        <ele>236.03300476074</ele>
        <time>2010-02-26T14:31:58Z</time>
      </trkpt>
      <trkpt lat="45.14594" lon="4.88802">
        <ele>236.98199462891</ele>
        <time>2010-02-26T14:32:00Z</time>
      </trkpt>
      <trkpt lat="45.14584" lon="4.88803">
        <ele>237.875</ele>
        <time>2010-02-26T14:32:03Z</time>
      </trkpt>
      <trkpt lat="45.14566" lon="4.88806">
        <ele>239.40800476074</ele>
        <time>2010-02-26T14:32:09Z</time>
      </trkpt>
      <trkpt lat="45.14544" lon="4.8881">
        <ele>240.91600036621</ele>
        <time>2010-02-26T14:32:17Z</time>
      </trkpt>
      <trkpt lat="45.14521" lon="4.88815">
        <ele>242.68099975586</ele>
        <time>2010-02-26T14:32:25Z</time>
      </trkpt>
      <trkpt lat="45.14506" lon="4.8882">
        <ele>243.95399475098</ele>
        <time>2010-02-26T14:32:31Z</time>
      </trkpt>
      <trkpt lat="45.14478" lon="4.88831">
        <ele>245.69500732422</ele>
        <time>2010-02-26T14:32:41Z</time>
      </trkpt>
      <trkpt lat="45.14452" lon="4.88844">
        <ele>247.44799804688</ele>
        <time>2010-02-26T14:32:50Z</time>
      </trkpt>
      <trkpt lat="45.14434" lon="4.88856">
        <ele>248.34599304199</ele>
        <time>2010-02-26T14:32:56Z</time>
      </trkpt>
      <trkpt lat="45.1441" lon="4.88871">
        <ele>249.09100341797</ele>
        <time>2010-02-26T14:33:03Z</time>
      </trkpt>
      <trkpt lat="45.14379" lon="4.88893">
        <ele>249.64900207519</ele>
        <time>2010-02-26T14:33:12Z</time>
      </trkpt>
      <trkpt lat="45.14362" lon="4.88905">
        <ele>249.85899353027</ele>
        <time>2010-02-26T14:33:17Z</time>
      </trkpt>
      <trkpt lat="45.14333" lon="4.88927">
        <ele>249.92500305176</ele>
        <time>2010-02-26T14:33:24Z</time>
      </trkpt>
      <trkpt lat="45.1429" lon="4.88958">
        <ele>250.48300170898</ele>
        <time>2010-02-26T14:33:33Z</time>
      </trkpt>
      <trkpt lat="45.14247" lon="4.88989">
        <ele>250.14599609375</ele>
        <time>2010-02-26T14:33:41Z</time>
      </trkpt>
      <trkpt lat="45.14202" lon="4.89021">
        <ele>249.20399475098</ele>
        <time>2010-02-26T14:33:48Z</time>
      </trkpt>
      <trkpt lat="45.14144" lon="4.89064">
        <ele>247.23500061035</ele>
        <time>2010-02-26T14:33:56Z</time>
      </trkpt>
      <trkpt lat="45.14087" lon="4.89101">
        <ele>245.65400695801</ele>
        <time>2010-02-26T14:34:03Z</time>
      </trkpt>
      <trkpt lat="45.14027" lon="4.89132">
        <ele>244.58000183106</ele>
        <time>2010-02-26T14:34:10Z</time>
      </trkpt>
      <trkpt lat="45.13968" lon="4.89161">
        <ele>243.03799438477</ele>
        <time>2010-02-26T14:34:17Z</time>
      </trkpt>
      <trkpt lat="45.13931" lon="4.89179">
        <ele>241.47999572754</ele>
        <time>2010-02-26T14:34:21Z</time>
      </trkpt>
      <trkpt lat="45.13868" lon="4.89204">
        <ele>235.84100341797</ele>
        <time>2010-02-26T14:34:27Z</time>
      </trkpt>
      <trkpt lat="45.13796" lon="4.89215">
        <ele>231.44999694824</ele>
        <time>2010-02-26T14:34:33Z</time>
      </trkpt>
      <trkpt lat="45.13784" lon="4.89218">
        <ele>231.32000732422</ele>
        <time>2010-02-26T14:34:34Z</time>
      </trkpt>
      <trkpt lat="45.13725" lon="4.89234">
        <ele>228.85899353027</ele>
        <time>2010-02-26T14:34:39Z</time>
      </trkpt>
      <trkpt lat="45.1362" lon="4.89265">
        <ele>224.98599243164</ele>
        <time>2010-02-26T14:34:48Z</time>
      </trkpt>
      <trkpt lat="45.13554" lon="4.89284">
        <ele>224.27299499512</ele>
        <time>2010-02-26T14:34:54Z</time>
      </trkpt>
      <trkpt lat="45.13485" lon="4.89296">
        <ele>223.48599243164</ele>
        <time>2010-02-26T14:35:01Z</time>
      </trkpt>
      <trkpt lat="45.13428" lon="4.89303">
        <ele>222.27900695801</ele>
        <time>2010-02-26T14:35:07Z</time>
      </trkpt>
      <trkpt lat="45.13401" lon="4.89308">
        <ele>221.48399353027</ele>
        <time>2010-02-26T14:35:10Z</time>
      </trkpt>
      <trkpt lat="45.13372" lon="4.89332">
        <ele>221.20100402832</ele>
        <time>2010-02-26T14:35:14Z</time>
      </trkpt>
      <trkpt lat="45.13355" lon="4.89374">
        <ele>220.91499328613</ele>
        <time>2010-02-26T14:35:18Z</time>
      </trkpt>
      <trkpt lat="45.13337" lon="4.89388">
        <ele>221.70399475098</ele>
        <time>2010-02-26T14:35:21Z</time>
      </trkpt>
      <trkpt lat="45.133" lon="4.89404">
        <ele>223.17799377441</ele>
        <time>2010-02-26T14:35:27Z</time>
      </trkpt>
      <trkpt lat="45.13287" lon="4.8941">
        <ele>223.4049987793</ele>
        <time>2010-02-26T14:35:29Z</time>
      </trkpt>
      <trkpt lat="45.13242" lon="4.89428">
        <ele>223.67999267578</ele>
        <time>2010-02-26T14:35:35Z</time>
      </trkpt>
      <trkpt lat="45.13218" lon="4.89436">
        <ele>224.62899780273</ele>
        <time>2010-02-26T14:35:38Z</time>
      </trkpt>
      <trkpt lat="45.13201" lon="4.89441">
        <ele>224.75900268555</ele>
        <time>2010-02-26T14:35:40Z</time>
      </trkpt>
      <trkpt lat="45.13133" lon="4.89459">
        <ele>225.36599731445</ele>
        <time>2010-02-26T14:35:48Z</time>
      </trkpt>
      <trkpt lat="45.13049" lon="4.89481">
        <ele>226.30400085449</ele>
        <time>2010-02-26T14:35:58Z</time>
      </trkpt>
      <trkpt lat="45.12983" lon="4.89504">
        <ele>224.79100036621</ele>
        <time>2010-02-26T14:36:06Z</time>
      </trkpt>
      <trkpt lat="45.12931" lon="4.89524">
        <ele>222.6369934082</ele>
        <time>2010-02-26T14:36:12Z</time>
      </trkpt>
      <trkpt lat="45.12904" lon="4.89536">
        <ele>221.35299682617</ele>
        <time>2010-02-26T14:36:15Z</time>
      </trkpt>
      <trkpt lat="45.12827" lon="4.89566">
        <ele>218.34100341797</ele>
        <time>2010-02-26T14:36:23Z</time>
      </trkpt>
      <trkpt lat="45.1278" lon="4.8958">
        <ele>217.21600341797</ele>
        <time>2010-02-26T14:36:28Z</time>
      </trkpt>
      <trkpt lat="45.12705" lon="4.89599">
        <ele>215.55900573731</ele>
        <time>2010-02-26T14:36:36Z</time>
      </trkpt>
      <trkpt lat="45.12604" lon="4.89621">
        <ele>213.22900390625</ele>
        <time>2010-02-26T14:36:46Z</time>
      </trkpt>
      <trkpt lat="45.12527" lon="4.89625">
        <ele>211.17999267578</ele>
        <time>2010-02-26T14:36:53Z</time>
      </trkpt>
      <trkpt lat="45.12468" lon="4.89622">
        <ele>207.69900512695</ele>
        <time>2010-02-26T14:36:58Z</time>
      </trkpt>
      <trkpt lat="45.12415" lon="4.89623">
        <ele>209.42900085449</ele>
        <time>2010-02-26T14:37:03Z</time>
      </trkpt>
      <trkpt lat="45.12363" lon="4.8962">
        <ele>210.07499694824</ele>
        <time>2010-02-26T14:37:09Z</time>
      </trkpt>
      <trkpt lat="45.12332" lon="4.89616">
        <ele>209.17399597168</ele>
        <time>2010-02-26T14:37:13Z</time>
      </trkpt>
      <trkpt lat="45.12278" lon="4.89603">
        <ele>209.09399414062</ele>
        <time>2010-02-26T14:37:20Z</time>
      </trkpt>
      <trkpt lat="45.12224" lon="4.89589">
        <ele>208.39599609375</ele>
        <time>2010-02-26T14:37:27Z</time>
      </trkpt>
      <trkpt lat="45.12177" lon="4.89577">
        <ele>208.85000610352</ele>
        <time>2010-02-26T14:37:33Z</time>
      </trkpt>
      <trkpt lat="45.12112" lon="4.89554">
        <ele>207.91999816894</ele>
        <time>2010-02-26T14:37:41Z</time>
      </trkpt>
      <trkpt lat="45.12058" lon="4.89529">
        <ele>207.56900024414</ele>
        <time>2010-02-26T14:37:48Z</time>
      </trkpt>
      <trkpt lat="45.12013" lon="4.89508">
        <ele>206.15100097656</ele>
        <time>2010-02-26T14:37:54Z</time>
      </trkpt>
      <trkpt lat="45.1199" lon="4.89495">
        <ele>204.89700317383</ele>
        <time>2010-02-26T14:37:57Z</time>
      </trkpt>
      <trkpt lat="45.11974" lon="4.89478">
        <ele>204.87699890137</ele>
        <time>2010-02-26T14:38:00Z</time>
      </trkpt>
      <trkpt lat="45.11967" lon="4.89473">
        <ele>204.68699645996</ele>
        <time>2010-02-26T14:38:02Z</time>
      </trkpt>
      <trkpt lat="45.11956" lon="4.89478">
        <ele>204.14799499512</ele>
        <time>2010-02-26T14:38:05Z</time>
      </trkpt>
      <trkpt lat="45.11949" lon="4.89486">
        <ele>204.21099853516</ele>
        <time>2010-02-26T14:38:07Z</time>
      </trkpt>
      <trkpt lat="45.11903" lon="4.89553">
        <ele>203.21000671387</ele>
        <time>2010-02-26T14:38:17Z</time>
      </trkpt>
      <trkpt lat="45.11872" lon="4.896">
        <ele>202.63600158691</ele>
        <time>2010-02-26T14:38:23Z</time>
      </trkpt>
      <trkpt lat="45.11868" lon="4.89608">
        <ele>202.56799316406</ele>
        <time>2010-02-26T14:38:24Z</time>
      </trkpt>
      <trkpt lat="45.11851" lon="4.8962">
        <ele>202.82200622559</ele>
        <time>2010-02-26T14:38:27Z</time>
      </trkpt>
      <trkpt lat="45.11844" lon="4.89617">
        <ele>202.57499694824</ele>
        <time>2010-02-26T14:38:28Z</time>
      </trkpt>
      <trkpt lat="45.11831" lon="4.8961">
        <ele>201.89199829102</ele>
        <time>2010-02-26T14:38:30Z</time>
      </trkpt>
      <trkpt lat="45.118" lon="4.89609">
        <ele>201.24000549316</ele>
        <time>2010-02-26T14:38:34Z</time>
      </trkpt>
      <trkpt lat="45.11769" lon="4.89628">
        <ele>201.03500366211</ele>
        <time>2010-02-26T14:38:38Z</time>
      </trkpt>
      <trkpt lat="45.11708" lon="4.89678">
        <ele>199.94000244141</ele>
        <time>2010-02-26T14:38:46Z</time>
      </trkpt>
      <trkpt lat="45.11666" lon="4.89712">
        <ele>199.07600402832</ele>
        <time>2010-02-26T14:38:51Z</time>
      </trkpt>
      <trkpt lat="45.11613" lon="4.89744">
        <ele>197.72599792481</ele>
        <time>2010-02-26T14:38:57Z</time>
      </trkpt>
      <trkpt lat="45.11564" lon="4.8975">
        <ele>197.3390045166</ele>
        <time>2010-02-26T14:39:02Z</time>
      </trkpt>
      <trkpt lat="45.11496" lon="4.89752">
        <ele>196.19799804688</ele>
        <time>2010-02-26T14:39:09Z</time>
      </trkpt>
      <trkpt lat="45.11478" lon="4.89752">
        <ele>196.08700561523</ele>
        <time>2010-02-26T14:39:11Z</time>
      </trkpt>
      <trkpt lat="45.11414" lon="4.8974">
        <ele>195.49600219727</ele>
        <time>2010-02-26T14:39:18Z</time>
      </trkpt>
      <trkpt lat="45.11386" lon="4.89726">
        <ele>195.51800537109</ele>
        <time>2010-02-26T14:39:21Z</time>
      </trkpt>
      <trkpt lat="45.1134" lon="4.89676">
        <ele>193.72200012207</ele>
        <time>2010-02-26T14:39:27Z</time>
      </trkpt>
      <trkpt lat="45.11293" lon="4.89606">
        <ele>192.41400146484</ele>
        <time>2010-02-26T14:39:34Z</time>
      </trkpt>
      <trkpt lat="45.11248" lon="4.89533">
        <ele>192.17100524902</ele>
        <time>2010-02-26T14:39:41Z</time>
      </trkpt>
      <trkpt lat="45.11209" lon="4.89478">
        <ele>191.93800354004</ele>
        <time>2010-02-26T14:39:47Z</time>
      </trkpt>
      <trkpt lat="45.11167" lon="4.89441">
        <ele>192.13299560547</ele>
        <time>2010-02-26T14:39:53Z</time>
      </trkpt>
      <trkpt lat="45.11129" lon="4.89423">
        <ele>192.13299560547</ele>
        <time>2010-02-26T14:39:58Z</time>
      </trkpt>
      <trkpt lat="45.1108" lon="4.89411">
        <ele>192.01800537109</ele>
        <time>2010-02-26T14:40:04Z</time>
      </trkpt>
      <trkpt lat="45.11017" lon="4.89397">
        <ele>190.53799438477</ele>
        <time>2010-02-26T14:40:11Z</time>
      </trkpt>
      <trkpt lat="45.11008" lon="4.89394">
        <ele>190.55799865723</ele>
        <time>2010-02-26T14:40:12Z</time>
      </trkpt>
      <trkpt lat="45.10975" lon="4.89373">
        <ele>190.59300231934</ele>
        <time>2010-02-26T14:40:16Z</time>
      </trkpt>
      <trkpt lat="45.10966" lon="4.89373">
        <ele>190.42300415039</ele>
        <time>2010-02-26T14:40:17Z</time>
      </trkpt>
      <trkpt lat="45.10921" lon="4.89361">
        <ele>188.69599914551</ele>
        <time>2010-02-26T14:40:22Z</time>
      </trkpt>
      <trkpt lat="45.10905" lon="4.89343">
        <ele>188.66799926758</ele>
        <time>2010-02-26T14:40:24Z</time>
      </trkpt>
      <trkpt lat="45.10845" lon="4.89258">
        <ele>186.20899963379</ele>
        <time>2010-02-26T14:40:32Z</time>
      </trkpt>
      <trkpt lat="45.10791" lon="4.89182">
        <ele>185.91700744629</ele>
        <time>2010-02-26T14:40:39Z</time>
      </trkpt>
      <trkpt lat="45.10738" lon="4.89127">
        <ele>184.82899475098</ele>
        <time>2010-02-26T14:40:45Z</time>
      </trkpt>
      <trkpt lat="45.10676" lon="4.89065">
        <ele>183.89300537109</ele>
        <time>2010-02-26T14:40:52Z</time>
      </trkpt>
      <trkpt lat="45.10612" lon="4.88995">
        <ele>184.21200561523</ele>
        <time>2010-02-26T14:41:00Z</time>
      </trkpt>
      <trkpt lat="45.10564" lon="4.88925">
        <ele>183.86099243164</ele>
        <time>2010-02-26T14:41:07Z</time>
      </trkpt>
      <trkpt lat="45.10523" lon="4.88843">
        <ele>182.34399414062</ele>
        <time>2010-02-26T14:41:14Z</time>
      </trkpt>
      <trkpt lat="45.10479" lon="4.88736">
        <ele>182.42900085449</ele>
        <time>2010-02-26T14:41:23Z</time>
      </trkpt>
      <trkpt lat="45.10432" lon="4.88622">
        <ele>181.15800476074</ele>
        <time>2010-02-26T14:41:33Z</time>
      </trkpt>
      <trkpt lat="45.10395" lon="4.88532">
        <ele>180.28199768066</ele>
        <time>2010-02-26T14:41:41Z</time>
      </trkpt>
      <trkpt lat="45.10362" lon="4.88469">
        <ele>179.55000305176</ele>
        <time>2010-02-26T14:41:47Z</time>
      </trkpt>
      <trkpt lat="45.10304" lon="4.884">
        <ele>178.47799682617</ele>
        <time>2010-02-26T14:41:55Z</time>
      </trkpt>
      <trkpt lat="45.10247" lon="4.88336">
        <ele>178.06199645996</ele>
        <time>2010-02-26T14:42:03Z</time>
      </trkpt>
      <trkpt lat="45.10194" lon="4.88304">
        <ele>178.04400634766</ele>
        <time>2010-02-26T14:42:09Z</time>
      </trkpt>
      <trkpt lat="45.10109" lon="4.88262">
        <ele>176.05299377441</ele>
        <time>2010-02-26T14:42:18Z</time>
      </trkpt>
      <trkpt lat="45.10003" lon="4.88208">
        <ele>174.87600708008</ele>
        <time>2010-02-26T14:42:29Z</time>
      </trkpt>
      <trkpt lat="45.09903" lon="4.88149">
        <ele>173.77200317383</ele>
        <time>2010-02-26T14:42:40Z</time>
      </trkpt>
      <trkpt lat="45.09842" lon="4.8812">
        <ele>173.43600463867</ele>
        <time>2010-02-26T14:42:47Z</time>
      </trkpt>
      <trkpt lat="45.09785" lon="4.881">
        <ele>173.31500244141</ele>
        <time>2010-02-26T14:42:54Z</time>
      </trkpt>
      <trkpt lat="45.09721" lon="4.88081">
        <ele>172.76499938965</ele>
        <time>2010-02-26T14:43:02Z</time>
      </trkpt>
      <trkpt lat="45.09675" lon="4.8808">
        <ele>172.46099853516</ele>
        <time>2010-02-26T14:43:08Z</time>
      </trkpt>
      <trkpt lat="45.0963" lon="4.88095">
        <ele>172.54800415039</ele>
        <time>2010-02-26T14:43:14Z</time>
      </trkpt>
      <trkpt lat="45.0957" lon="4.88117">
        <ele>172.41799926758</ele>
        <time>2010-02-26T14:43:22Z</time>
      </trkpt>
      <trkpt lat="45.09507" lon="4.88129">
        <ele>172.17399597168</ele>
        <time>2010-02-26T14:43:30Z</time>
      </trkpt>
      <trkpt lat="45.09414" lon="4.88146">
        <ele>171.55799865723</ele>
        <time>2010-02-26T14:43:42Z</time>
      </trkpt>
      <trkpt lat="45.09356" lon="4.88157">
        <ele>169.92199707031</ele>
        <time>2010-02-26T14:43:49Z</time>
      </trkpt>
      <trkpt lat="45.09288" lon="4.88181">
        <ele>167.89199829102</ele>
        <time>2010-02-26T14:43:57Z</time>
      </trkpt>
      <trkpt lat="45.09235" lon="4.88191">
        <ele>167.54899597168</ele>
        <time>2010-02-26T14:44:03Z</time>
      </trkpt>
      <trkpt lat="45.0918" lon="4.88186">
        <ele>166.24299621582</ele>
        <time>2010-02-26T14:44:09Z</time>
      </trkpt>
      <trkpt lat="45.09109" lon="4.88172">
        <ele>163.50399780273</ele>
        <time>2010-02-26T14:44:16Z</time>
      </trkpt>
      <trkpt lat="45.09023" lon="4.88151">
        <ele>161.42300415039</ele>
        <time>2010-02-26T14:44:24Z</time>
      </trkpt>
      <trkpt lat="45.08958" lon="4.88144">
        <ele>161.18699645996</ele>
        <time>2010-02-26T14:44:30Z</time>
      </trkpt>
      <trkpt lat="45.08886" lon="4.88144">
        <ele>161.36599731445</ele>
        <time>2010-02-26T14:44:37Z</time>
      </trkpt>
      <trkpt lat="45.08818" lon="4.88131">
        <ele>160.69700622559</ele>
        <time>2010-02-26T14:44:44Z</time>
      </trkpt>
      <trkpt lat="45.08765" lon="4.88128">
        <ele>160.72099304199</ele>
        <time>2010-02-26T14:44:50Z</time>
      </trkpt>
      <trkpt lat="45.08706" lon="4.88117">
        <ele>160.58700561523</ele>
        <time>2010-02-26T14:44:57Z</time>
      </trkpt>
      <trkpt lat="45.08641" lon="4.88086">
        <ele>159.87100219727</ele>
        <time>2010-02-26T14:45:05Z</time>
      </trkpt>
      <trkpt lat="45.08588" lon="4.8805">
        <ele>158.9049987793</ele>
        <time>2010-02-26T14:45:12Z</time>
      </trkpt>
      <trkpt lat="45.08518" lon="4.87999">
        <ele>159.14300537109</ele>
        <time>2010-02-26T14:45:21Z</time>
      </trkpt>
      <trkpt lat="45.08511" lon="4.87994">
        <ele>159.36000061035</ele>
        <time>2010-02-26T14:45:22Z</time>
      </trkpt>
      <trkpt lat="45.0848" lon="4.87956">
        <ele>158.55599975586</ele>
        <time>2010-02-26T14:45:27Z</time>
      </trkpt>
      <trkpt lat="45.08461" lon="4.8794">
        <ele>158.91799926758</ele>
        <time>2010-02-26T14:45:30Z</time>
      </trkpt>
      <trkpt lat="45.08414" lon="4.87931">
        <ele>159.15800476074</ele>
        <time>2010-02-26T14:45:37Z</time>
      </trkpt>
      <trkpt lat="45.0838" lon="4.87919">
        <ele>160.47300720215</ele>
        <time>2010-02-26T14:45:43Z</time>
      </trkpt>
      <trkpt lat="45.08344" lon="4.8791">
        <ele>161.26400756836</ele>
        <time>2010-02-26T14:45:50Z</time>
      </trkpt>
      <trkpt lat="45.08309" lon="4.87899">
        <ele>162.1369934082</ele>
        <time>2010-02-26T14:45:57Z</time>
      </trkpt>
      <trkpt lat="45.08269" lon="4.87878">
        <ele>161.67700195312</ele>
        <time>2010-02-26T14:46:04Z</time>
      </trkpt>
      <trkpt lat="45.08222" lon="4.87847">
        <ele>162.10800170898</ele>
        <time>2010-02-26T14:46:12Z</time>
      </trkpt>
      <trkpt lat="45.08187" lon="4.87821">
        <ele>162.41799926758</ele>
        <time>2010-02-26T14:46:18Z</time>
      </trkpt>
      <trkpt lat="45.08143" lon="4.87782">
        <ele>162.49699401856</ele>
        <time>2010-02-26T14:46:26Z</time>
      </trkpt>
      <trkpt lat="45.08138" lon="4.87777">
        <ele>162.67399597168</ele>
        <time>2010-02-26T14:46:27Z</time>
      </trkpt>
      <trkpt lat="45.08107" lon="4.87744">
        <ele>161.7559967041</ele>
        <time>2010-02-26T14:46:33Z</time>
      </trkpt>
      <trkpt lat="45.0807" lon="4.87708">
        <ele>160.81599426269</ele>
        <time>2010-02-26T14:46:39Z</time>
      </trkpt>
      <trkpt lat="45.0803" lon="4.87666">
        <ele>160.56300354004</ele>
        <time>2010-02-26T14:46:46Z</time>
      </trkpt>
      <trkpt lat="45.07999" lon="4.87633">
        <ele>160.24800109863</ele>
        <time>2010-02-26T14:46:51Z</time>
      </trkpt>
      <trkpt lat="45.07955" lon="4.8759">
        <ele>160.12699890137</ele>
        <time>2010-02-26T14:46:58Z</time>
      </trkpt>
      <trkpt lat="45.07918" lon="4.87565">
        <ele>160.55999755859</ele>
        <time>2010-02-26T14:47:04Z</time>
      </trkpt>
      <trkpt lat="45.07912" lon="4.87561">
        <ele>160.47399902344</ele>
        <time>2010-02-26T14:47:05Z</time>
      </trkpt>
      <trkpt lat="45.07876" lon="4.87534">
        <ele>161.06300354004</ele>
        <time>2010-02-26T14:47:11Z</time>
      </trkpt>
      <trkpt lat="45.0787" lon="4.87529">
        <ele>161.22999572754</ele>
        <time>2010-02-26T14:47:12Z</time>
      </trkpt>
      <trkpt lat="45.07837" lon="4.87501">
        <ele>161.83799743652</ele>
        <time>2010-02-26T14:47:18Z</time>
      </trkpt>
      <trkpt lat="45.07832" lon="4.87497">
        <ele>162.22500610352</ele>
        <time>2010-02-26T14:47:19Z</time>
      </trkpt>
      <trkpt lat="45.0781" lon="4.87479">
        <ele>162.11500549316</ele>
        <time>2010-02-26T14:47:23Z</time>
      </trkpt>
      <trkpt lat="45.07779" lon="4.87457">
        <ele>161.86399841309</ele>
        <time>2010-02-26T14:47:28Z</time>
      </trkpt>
      <trkpt lat="45.07743" lon="4.87426">
        <ele>161.50500488281</ele>
        <time>2010-02-26T14:47:34Z</time>
      </trkpt>
      <trkpt lat="45.0771" lon="4.874">
        <ele>161.33299255371</ele>
        <time>2010-02-26T14:47:40Z</time>
      </trkpt>
      <trkpt lat="45.07688" lon="4.87392">
        <ele>161.79200744629</ele>
        <time>2010-02-26T14:47:44Z</time>
      </trkpt>
      <trkpt lat="45.07672" lon="4.87386">
        <ele>161.76100158691</ele>
        <time>2010-02-26T14:47:47Z</time>
      </trkpt>
      <trkpt lat="45.07623" lon="4.87369">
        <ele>161.71099853516</ele>
        <time>2010-02-26T14:47:55Z</time>
      </trkpt>
      <trkpt lat="45.07599" lon="4.87368">
        <ele>161.55700683594</ele>
        <time>2010-02-26T14:47:59Z</time>
      </trkpt>
      <trkpt lat="45.07588" lon="4.8737">
        <ele>161.72399902344</ele>
        <time>2010-02-26T14:48:01Z</time>
      </trkpt>
      <trkpt lat="45.07576" lon="4.87371">
        <ele>161.86999511719</ele>
        <time>2010-02-26T14:48:03Z</time>
      </trkpt>
      <trkpt lat="45.07557" lon="4.87385">
        <ele>162.00700378418</ele>
        <time>2010-02-26T14:48:08Z</time>
      </trkpt>
      <trkpt lat="45.07558" lon="4.87394">
        <ele>162.76600646973</ele>
        <time>2010-02-26T14:48:11Z</time>
      </trkpt>
      <trkpt lat="45.07569" lon="4.87407">
        <ele>165.34300231934</ele>
        <time>2010-02-26T14:48:18Z</time>
      </trkpt>
      <trkpt lat="45.07573" lon="4.87414">
        <ele>166.29899597168</ele>
        <time>2010-02-26T14:48:21Z</time>
      </trkpt>
      <trkpt lat="45.07574" lon="4.87416">
        <ele>166.79100036621</ele>
        <time>2010-02-26T14:48:22Z</time>
      </trkpt>
      <trkpt lat="45.07581" lon="4.87426">
        <ele>168.32699584961</ele>
        <time>2010-02-26T14:48:27Z</time>
      </trkpt>
      <trkpt lat="45.07587" lon="4.87435">
        <ele>169.82699584961</ele>
        <time>2010-02-26T14:48:31Z</time>
      </trkpt>
      <trkpt lat="45.07598" lon="4.8745">
        <ele>171.42599487305</ele>
        <time>2010-02-26T14:48:37Z</time>
      </trkpt>
      <trkpt lat="45.07611" lon="4.87467">
        <ele>173.85899353027</ele>
        <time>2010-02-26T14:48:44Z</time>
      </trkpt>
      <trkpt lat="45.07618" lon="4.87477">
        <ele>175.34199523926</ele>
        <time>2010-02-26T14:48:49Z</time>
      </trkpt>
      <trkpt lat="45.07626" lon="4.87487">
        <ele>176.8869934082</ele>
        <time>2010-02-26T14:48:54Z</time>
      </trkpt>
      <trkpt lat="45.07639" lon="4.87497">
        <ele>178.12399291992</ele>
        <time>2010-02-26T14:49:01Z</time>
      </trkpt>
      <trkpt lat="45.07647" lon="4.87505">
        <ele>179.30599975586</ele>
        <time>2010-02-26T14:49:06Z</time>
      </trkpt>
      <trkpt lat="45.07658" lon="4.87511">
        <ele>180.39100646973</ele>
        <time>2010-02-26T14:49:11Z</time>
      </trkpt>
      <trkpt lat="45.07673" lon="4.87522">
        <ele>182.24699401856</ele>
        <time>2010-02-26T14:49:18Z</time>
      </trkpt>
      <trkpt lat="45.07685" lon="4.87532">
        <ele>183.59100341797</ele>
        <time>2010-02-26T14:49:24Z</time>
      </trkpt>
      <trkpt lat="45.07687" lon="4.87534">
        <ele>184.10699462891</ele>
        <time>2010-02-26T14:49:25Z</time>
      </trkpt>
      <trkpt lat="45.07698" lon="4.87544">
        <ele>185.57400512695</ele>
        <time>2010-02-26T14:49:31Z</time>
      </trkpt>
      <trkpt lat="45.07705" lon="4.87551">
        <ele>187.01100158691</ele>
        <time>2010-02-26T14:49:35Z</time>
      </trkpt>
      <trkpt lat="45.07713" lon="4.8756">
        <ele>188.64399719238</ele>
        <time>2010-02-26T14:49:41Z</time>
      </trkpt>
      <trkpt lat="45.07715" lon="4.87561">
        <ele>188.81900024414</ele>
        <time>2010-02-26T14:49:42Z</time>
      </trkpt>
      <trkpt lat="45.07729" lon="4.87576">
        <ele>190.88600158691</ele>
        <time>2010-02-26T14:49:50Z</time>
      </trkpt>
      <trkpt lat="45.07738" lon="4.8759">
        <ele>192.42700195312</ele>
        <time>2010-02-26T14:49:56Z</time>
      </trkpt>
      <trkpt lat="45.07749" lon="4.87604">
        <ele>193.98599243164</ele>
        <time>2010-02-26T14:50:02Z</time>
      </trkpt>
      <trkpt lat="45.07755" lon="4.87614">
        <ele>194.71200561523</ele>
        <time>2010-02-26T14:50:06Z</time>
      </trkpt>
      <trkpt lat="45.07762" lon="4.87625">
        <ele>195.66900634766</ele>
        <time>2010-02-26T14:50:10Z</time>
      </trkpt>
      <trkpt lat="45.07764" lon="4.87627">
        <ele>195.93200683594</ele>
        <time>2010-02-26T14:50:11Z</time>
      </trkpt>
      <trkpt lat="45.07774" lon="4.87646">
        <ele>197.07099914551</ele>
        <time>2010-02-26T14:50:17Z</time>
      </trkpt>
      <trkpt lat="45.0779" lon="4.87669">
        <ele>197.67100524902</ele>
        <time>2010-02-26T14:50:24Z</time>
      </trkpt>
      <trkpt lat="45.07808" lon="4.87688">
        <ele>198.26400756836</ele>
        <time>2010-02-26T14:50:30Z</time>
      </trkpt>
      <trkpt lat="45.07814" lon="4.87694">
        <ele>198.34100341797</ele>
        <time>2010-02-26T14:50:32Z</time>
      </trkpt>
      <trkpt lat="45.07822" lon="4.87699">
        <ele>198.32899475098</ele>
        <time>2010-02-26T14:50:34Z</time>
      </trkpt>
      <trkpt lat="45.07836" lon="4.87711">
        <ele>199.05499267578</ele>
        <time>2010-02-26T14:50:38Z</time>
      </trkpt>
      <trkpt lat="45.07866" lon="4.87742">
        <ele>200.46699523926</ele>
        <time>2010-02-26T14:50:47Z</time>
      </trkpt>
      <trkpt lat="45.07878" lon="4.87756">
        <ele>201.09300231934</ele>
        <time>2010-02-26T14:50:51Z</time>
      </trkpt>
      <trkpt lat="45.07907" lon="4.87785">
        <ele>201.40899658203</ele>
        <time>2010-02-26T14:50:59Z</time>
      </trkpt>
      <trkpt lat="45.07948" lon="4.87819">
        <ele>201.55700683594</ele>
        <time>2010-02-26T14:51:08Z</time>
      </trkpt>
      <trkpt lat="45.07988" lon="4.87852">
        <ele>201.62600708008</ele>
        <time>2010-02-26T14:51:16Z</time>
      </trkpt>
      <trkpt lat="45.08028" lon="4.87886">
        <ele>201.69799804688</ele>
        <time>2010-02-26T14:51:24Z</time>
      </trkpt>
      <trkpt lat="45.08058" lon="4.87908">
        <ele>201.35099792481</ele>
        <time>2010-02-26T14:51:30Z</time>
      </trkpt>
      <trkpt lat="45.08078" lon="4.87923">
        <ele>201.02000427246</ele>
        <time>2010-02-26T14:51:34Z</time>
      </trkpt>
      <trkpt lat="45.08087" lon="4.87931">
        <ele>201.0119934082</ele>
        <time>2010-02-26T14:51:36Z</time>
      </trkpt>
      <trkpt lat="45.08106" lon="4.87934">
        <ele>200.13600158691</ele>
        <time>2010-02-26T14:51:40Z</time>
      </trkpt>
      <trkpt lat="45.08109" lon="4.87933">
        <ele>199.92999267578</ele>
        <time>2010-02-26T14:51:41Z</time>
      </trkpt>
      <trkpt lat="45.0812" lon="4.87928">
        <ele>199.5119934082</ele>
        <time>2010-02-26T14:51:44Z</time>
      </trkpt>
      <trkpt lat="45.08142" lon="4.87931">
        <ele>196.26899719238</ele>
        <time>2010-02-26T14:51:48Z</time>
      </trkpt>
      <trkpt lat="45.08173" lon="4.87934">
        <ele>188.80900573731</ele>
        <time>2010-02-26T14:51:52Z</time>
      </trkpt>
      <trkpt lat="45.0822" lon="4.87943">
        <ele>181.12800598144</ele>
        <time>2010-02-26T14:51:57Z</time>
      </trkpt>
      <trkpt lat="45.08241" lon="4.87954">
        <ele>178.83000183106</ele>
        <time>2010-02-26T14:52:00Z</time>
      </trkpt>
      <trkpt lat="45.08261" lon="4.87969">
        <ele>175.33399963379</ele>
        <time>2010-02-26T14:52:05Z</time>
      </trkpt>
      <trkpt lat="45.0827" lon="4.87975">
        <ele>174.59899902344</ele>
        <time>2010-02-26T14:52:07Z</time>
      </trkpt>
      <trkpt lat="45.08282" lon="4.87983">
        <ele>173.04699707031</ele>
        <time>2010-02-26T14:52:10Z</time>
      </trkpt>
      <trkpt lat="45.08304" lon="4.87984">
        <ele>169.34300231934</ele>
        <time>2010-02-26T14:52:15Z</time>
      </trkpt>
      <trkpt lat="45.08308" lon="4.8798">
        <ele>169.20500183106</ele>
        <time>2010-02-26T14:52:16Z</time>
      </trkpt>
      <trkpt lat="45.0832" lon="4.87957">
        <ele>166.92300415039</ele>
        <time>2010-02-26T14:52:20Z</time>
      </trkpt>
      <trkpt lat="45.08328" lon="4.87933">
        <ele>164.57200622559</ele>
        <time>2010-02-26T14:52:24Z</time>
      </trkpt>
      <trkpt lat="45.08343" lon="4.87915">
        <ele>162.95899963379</ele>
        <time>2010-02-26T14:52:30Z</time>
      </trkpt>
      <trkpt lat="45.0835" lon="4.87915">
        <ele>162.61199951172</ele>
        <time>2010-02-26T14:52:32Z</time>
      </trkpt>
      <trkpt lat="45.08382" lon="4.87924">
        <ele>160.88400268555</ele>
        <time>2010-02-26T14:52:38Z</time>
      </trkpt>
      <trkpt lat="45.08416" lon="4.87935">
        <ele>159.63499450684</ele>
        <time>2010-02-26T14:52:43Z</time>
      </trkpt>
      <trkpt lat="45.08458" lon="4.87946">
        <ele>159.38600158691</ele>
        <time>2010-02-26T14:52:49Z</time>
      </trkpt>
      <trkpt lat="45.08469" lon="4.87947">
        <ele>159.85099792481</ele>
        <time>2010-02-26T14:52:51Z</time>
      </trkpt>
      <trkpt lat="45.08472" lon="4.87948">
        <ele>159.64199829102</ele>
        <time>2010-02-26T14:52:52Z</time>
      </trkpt>
      <trkpt lat="45.08487" lon="4.87971">
        <ele>159.9700012207</ele>
        <time>2010-02-26T14:52:57Z</time>
      </trkpt>
      <trkpt lat="45.08495" lon="4.87982">
        <ele>160.01400756836</ele>
        <time>2010-02-26T14:52:59Z</time>
      </trkpt>
      <trkpt lat="45.08525" lon="4.8801">
        <ele>160.04899597168</ele>
        <time>2010-02-26T14:53:05Z</time>
      </trkpt>
      <trkpt lat="45.08561" lon="4.88035">
        <ele>160.14799499512</ele>
        <time>2010-02-26T14:53:11Z</time>
      </trkpt>
      <trkpt lat="45.08609" lon="4.88072">
        <ele>160.88499450684</ele>
        <time>2010-02-26T14:53:19Z</time>
      </trkpt>
      <trkpt lat="45.08661" lon="4.88104">
        <ele>162.65699768066</ele>
        <time>2010-02-26T14:53:27Z</time>
      </trkpt>
      <trkpt lat="45.0871" lon="4.88127">
        <ele>162.47099304199</ele>
        <time>2010-02-26T14:53:34Z</time>
      </trkpt>
      <trkpt lat="45.08754" lon="4.88137">
        <ele>162.17599487305</ele>
        <time>2010-02-26T14:53:40Z</time>
      </trkpt>
      <trkpt lat="45.08822" lon="4.8814">
        <ele>163.02900695801</ele>
        <time>2010-02-26T14:53:49Z</time>
      </trkpt>
      <trkpt lat="45.08891" lon="4.88153">
        <ele>162.64599609375</ele>
        <time>2010-02-26T14:53:58Z</time>
      </trkpt>
      <trkpt lat="45.08928" lon="4.88155">
        <ele>163.36399841309</ele>
        <time>2010-02-26T14:54:03Z</time>
      </trkpt>
      <trkpt lat="45.08994" lon="4.88152">
        <ele>163.37300109863</ele>
        <time>2010-02-26T14:54:12Z</time>
      </trkpt>
      <trkpt lat="45.09034" lon="4.8816">
        <ele>164</ele>
        <time>2010-02-26T14:54:18Z</time>
      </trkpt>
      <trkpt lat="45.09077" lon="4.88171">
        <ele>165.07000732422</ele>
        <time>2010-02-26T14:54:25Z</time>
      </trkpt>
      <trkpt lat="45.0913" lon="4.88183">
        <ele>166.43600463867</ele>
        <time>2010-02-26T14:54:35Z</time>
      </trkpt>
      <trkpt lat="45.09174" lon="4.88192">
        <ele>168.70399475098</ele>
        <time>2010-02-26T14:54:44Z</time>
      </trkpt>
      <trkpt lat="45.09217" lon="4.88198">
        <ele>169.07899475098</ele>
        <time>2010-02-26T14:54:52Z</time>
      </trkpt>
      <trkpt lat="45.0927" lon="4.88196">
        <ele>170.33999633789</ele>
        <time>2010-02-26T14:55:01Z</time>
      </trkpt>
      <trkpt lat="45.0932" lon="4.88179">
        <ele>171.00500488281</ele>
        <time>2010-02-26T14:55:10Z</time>
      </trkpt>
      <trkpt lat="45.09371" lon="4.88162">
        <ele>172.47900390625</ele>
        <time>2010-02-26T14:55:20Z</time>
      </trkpt>
      <trkpt lat="45.09427" lon="4.88152">
        <ele>174.00300598144</ele>
        <time>2010-02-26T14:55:31Z</time>
      </trkpt>
      <trkpt lat="45.0947" lon="4.88144">
        <ele>174.06399536133</ele>
        <time>2010-02-26T14:55:39Z</time>
      </trkpt>
      <trkpt lat="45.09518" lon="4.88136">
        <ele>174.10000610352</ele>
        <time>2010-02-26T14:55:47Z</time>
      </trkpt>
      <trkpt lat="45.09591" lon="4.88122">
        <ele>174.27200317383</ele>
        <time>2010-02-26T14:55:59Z</time>
      </trkpt>
      <trkpt lat="45.09643" lon="4.88101">
        <ele>175.07800292969</ele>
        <time>2010-02-26T14:56:08Z</time>
      </trkpt>
      <trkpt lat="45.09693" lon="4.88088">
        <ele>174.98899841309</ele>
        <time>2010-02-26T14:56:16Z</time>
      </trkpt>
      <trkpt lat="45.09732" lon="4.88091">
        <ele>175.48699951172</ele>
        <time>2010-02-26T14:56:22Z</time>
      </trkpt>
      <trkpt lat="45.09789" lon="4.88109">
        <ele>175.48500061035</ele>
        <time>2010-02-26T14:56:31Z</time>
      </trkpt>
      <trkpt lat="45.09838" lon="4.88127">
        <ele>176.19599914551</ele>
        <time>2010-02-26T14:56:39Z</time>
      </trkpt>
      <trkpt lat="45.09896" lon="4.88154">
        <ele>176.45300292969</ele>
        <time>2010-02-26T14:56:49Z</time>
      </trkpt>
      <trkpt lat="45.09951" lon="4.88187">
        <ele>177.72200012207</ele>
        <time>2010-02-26T14:56:59Z</time>
      </trkpt>
      <trkpt lat="45.10012" lon="4.88223">
        <ele>177.99000549316</ele>
        <time>2010-02-26T14:57:10Z</time>
      </trkpt>
      <trkpt lat="45.1007" lon="4.88253">
        <ele>178.875</ele>
        <time>2010-02-26T14:57:20Z</time>
      </trkpt>
      <trkpt lat="45.10121" lon="4.88279">
        <ele>179.2859954834</ele>
        <time>2010-02-26T14:57:29Z</time>
      </trkpt>
      <trkpt lat="45.10154" lon="4.88296">
        <ele>179.92599487305</ele>
        <time>2010-02-26T14:57:36Z</time>
      </trkpt>
      <trkpt lat="45.1019" lon="4.88313">
        <ele>180.23500061035</ele>
        <time>2010-02-26T14:57:44Z</time>
      </trkpt>
      <trkpt lat="45.1023" lon="4.88337">
        <ele>180.6549987793</ele>
        <time>2010-02-26T14:57:52Z</time>
      </trkpt>
      <trkpt lat="45.10264" lon="4.88366">
        <ele>181.47900390625</ele>
        <time>2010-02-26T14:57:59Z</time>
      </trkpt>
      <trkpt lat="45.10301" lon="4.88409">
        <ele>181.7440032959</ele>
        <time>2010-02-26T14:58:07Z</time>
      </trkpt>
      <trkpt lat="45.10339" lon="4.88453">
        <ele>182.44000244141</ele>
        <time>2010-02-26T14:58:15Z</time>
      </trkpt>
      <trkpt lat="45.10374" lon="4.88499">
        <ele>183.20599365234</ele>
        <time>2010-02-26T14:58:23Z</time>
      </trkpt>
      <trkpt lat="45.10397" lon="4.88547">
        <ele>184.19200134277</ele>
        <time>2010-02-26T14:58:30Z</time>
      </trkpt>
      <trkpt lat="45.10422" lon="4.88609">
        <ele>184.68400573731</ele>
        <time>2010-02-26T14:58:39Z</time>
      </trkpt>
      <trkpt lat="45.10449" lon="4.88675">
        <ele>185.82000732422</ele>
        <time>2010-02-26T14:58:49Z</time>
      </trkpt>
      <trkpt lat="45.10488" lon="4.88772">
        <ele>185.77099609375</ele>
        <time>2010-02-26T14:59:02Z</time>
      </trkpt>
      <trkpt lat="45.10515" lon="4.88839">
        <ele>186.05099487305</ele>
        <time>2010-02-26T14:59:11Z</time>
      </trkpt>
      <trkpt lat="45.10547" lon="4.88907">
        <ele>186.47399902344</ele>
        <time>2010-02-26T14:59:20Z</time>
      </trkpt>
      <trkpt lat="45.1058" lon="4.88966">
        <ele>187.80799865723</ele>
        <time>2010-02-26T14:59:29Z</time>
      </trkpt>
      <trkpt lat="45.10614" lon="4.89011">
        <ele>187.85200500488</ele>
        <time>2010-02-26T14:59:37Z</time>
      </trkpt>
      <trkpt lat="45.10643" lon="4.89044">
        <ele>187.59700012207</ele>
        <time>2010-02-26T14:59:44Z</time>
      </trkpt>
      <trkpt lat="45.10681" lon="4.89083">
        <ele>187.66999816894</ele>
        <time>2010-02-26T14:59:52Z</time>
      </trkpt>
      <trkpt lat="45.10728" lon="4.89129">
        <ele>187.87699890137</ele>
        <time>2010-02-26T15:00:01Z</time>
      </trkpt>
      <trkpt lat="45.10779" lon="4.8918">
        <ele>188.47500610352</ele>
        <time>2010-02-26T15:00:11Z</time>
      </trkpt>
      <trkpt lat="45.1081" lon="4.8922">
        <ele>189.91200256348</ele>
        <time>2010-02-26T15:00:18Z</time>
      </trkpt>
      <trkpt lat="45.10849" lon="4.89274">
        <ele>190.35299682617</ele>
        <time>2010-02-26T15:00:28Z</time>
      </trkpt>
      <trkpt lat="45.1088" lon="4.89316">
        <ele>190.93400573731</ele>
        <time>2010-02-26T15:00:36Z</time>
      </trkpt>
      <trkpt lat="45.10905" lon="4.89351">
        <ele>191.80999755859</ele>
        <time>2010-02-26T15:00:43Z</time>
      </trkpt>
      <trkpt lat="45.10918" lon="4.89368">
        <ele>192.32000732422</ele>
        <time>2010-02-26T15:00:47Z</time>
      </trkpt>
      <trkpt lat="45.10936" lon="4.89388">
        <ele>193.00799560547</ele>
        <time>2010-02-26T15:00:52Z</time>
      </trkpt>
      <trkpt lat="45.10952" lon="4.89399">
        <ele>193.50300598144</ele>
        <time>2010-02-26T15:00:56Z</time>
      </trkpt>
      <trkpt lat="45.10971" lon="4.89422">
        <ele>193.81799316406</ele>
        <time>2010-02-26T15:01:01Z</time>
      </trkpt>
      <trkpt lat="45.10996" lon="4.89453">
        <ele>194.18699645996</ele>
        <time>2010-02-26T15:01:07Z</time>
      </trkpt>
      <trkpt lat="45.11016" lon="4.8947">
        <ele>194.43699645996</ele>
        <time>2010-02-26T15:01:11Z</time>
      </trkpt>
      <trkpt lat="45.11029" lon="4.89498">
        <ele>194.79499816894</ele>
        <time>2010-02-26T15:01:15Z</time>
      </trkpt>
      <trkpt lat="45.11037" lon="4.89522">
        <ele>194.82200622559</ele>
        <time>2010-02-26T15:01:18Z</time>
      </trkpt>
      <trkpt lat="45.11035" lon="4.89566">
        <ele>194.65400695801</ele>
        <time>2010-02-26T15:01:23Z</time>
      </trkpt>
      <trkpt lat="45.11021" lon="4.89621">
        <ele>195.85600280762</ele>
        <time>2010-02-26T15:01:30Z</time>
      </trkpt>
      <trkpt lat="45.11018" lon="4.89634">
        <ele>196.55000305176</ele>
        <time>2010-02-26T15:01:32Z</time>
      </trkpt>
      <trkpt lat="45.11022" lon="4.8966">
        <ele>196.58500671387</ele>
        <time>2010-02-26T15:01:36Z</time>
      </trkpt>
      <trkpt lat="45.11025" lon="4.89666">
        <ele>196.81399536133</ele>
        <time>2010-02-26T15:01:37Z</time>
      </trkpt>
      <trkpt lat="45.11055" lon="4.8972">
        <ele>197.15699768066</ele>
        <time>2010-02-26T15:01:46Z</time>
      </trkpt>
      <trkpt lat="45.11069" lon="4.89743">
        <ele>196.7559967041</ele>
        <time>2010-02-26T15:01:50Z</time>
      </trkpt>
      <trkpt lat="45.11086" lon="4.89764">
        <ele>196.99499511719</ele>
        <time>2010-02-26T15:01:54Z</time>
      </trkpt>
      <trkpt lat="45.11118" lon="4.89785">
        <ele>197.32899475098</ele>
        <time>2010-02-26T15:02:00Z</time>
      </trkpt>
      <trkpt lat="45.11166" lon="4.89814">
        <ele>196.33700561523</ele>
        <time>2010-02-26T15:02:08Z</time>
      </trkpt>
      <trkpt lat="45.1119" lon="4.89832">
        <ele>196.67599487305</ele>
        <time>2010-02-26T15:02:12Z</time>
      </trkpt>
      <trkpt lat="45.112" lon="4.89846">
        <ele>196.75700378418</ele>
        <time>2010-02-26T15:02:15Z</time>
      </trkpt>
      <trkpt lat="45.112" lon="4.89839">
        <ele>196.8630065918</ele>
        <time>2010-02-26T15:02:19Z</time>
      </trkpt>
      <trkpt lat="45.11197" lon="4.89836">
        <ele>196.95599365234</ele>
        <time>2010-02-26T15:02:20Z</time>
      </trkpt>
      <trkpt lat="45.11177" lon="4.89817">
        <ele>196.75100708008</ele>
        <time>2010-02-26T15:02:25Z</time>
      </trkpt>
      <trkpt lat="45.1116" lon="4.89799">
        <ele>196.98199462891</ele>
        <time>2010-02-26T15:02:29Z</time>
      </trkpt>
      <trkpt lat="45.1116" lon="4.89776">
        <ele>197.07800292969</ele>
        <time>2010-02-26T15:02:32Z</time>
      </trkpt>
      <trkpt lat="45.11174" lon="4.89765">
        <ele>197.71299743652</ele>
        <time>2010-02-26T15:02:35Z</time>
      </trkpt>
      <trkpt lat="45.1118" lon="4.89765">
        <ele>197.67399597168</ele>
        <time>2010-02-26T15:02:36Z</time>
      </trkpt>
      <trkpt lat="45.11192" lon="4.89765">
        <ele>196.99099731445</ele>
        <time>2010-02-26T15:02:38Z</time>
      </trkpt>
      <trkpt lat="45.1125" lon="4.89764">
        <ele>196.86999511719</ele>
        <time>2010-02-26T15:02:46Z</time>
      </trkpt>
      <trkpt lat="45.11304" lon="4.89762">
        <ele>196.90699768066</ele>
        <time>2010-02-26T15:02:54Z</time>
      </trkpt>
      <trkpt lat="45.11322" lon="4.89761">
        <ele>196.97099304199</ele>
        <time>2010-02-26T15:02:57Z</time>
      </trkpt>
      <trkpt lat="45.11348" lon="4.8976">
        <ele>197.27699279785</ele>
        <time>2010-02-26T15:03:01Z</time>
      </trkpt>
      <trkpt lat="45.11375" lon="4.89744">
        <ele>197.76600646973</ele>
        <time>2010-02-26T15:03:06Z</time>
      </trkpt>
      <trkpt lat="45.1139" lon="4.89736">
        <ele>197.76600646973</ele>
        <time>2010-02-26T15:03:09Z</time>
      </trkpt>
      <trkpt lat="45.11396" lon="4.89738">
        <ele>197.85600280762</ele>
        <time>2010-02-26T15:03:10Z</time>
      </trkpt>
      <trkpt lat="45.11412" lon="4.89748">
        <ele>198.35600280762</ele>
        <time>2010-02-26T15:03:13Z</time>
      </trkpt>
      <trkpt lat="45.11454" lon="4.89756">
        <ele>198.25999450684</ele>
        <time>2010-02-26T15:03:20Z</time>
      </trkpt>
      <trkpt lat="45.11503" lon="4.89756">
        <ele>198.56599426269</ele>
        <time>2010-02-26T15:03:28Z</time>
      </trkpt>
      <trkpt lat="45.11554" lon="4.89754">
        <ele>199.70799255371</ele>
        <time>2010-02-26T15:03:36Z</time>
      </trkpt>
      <trkpt lat="45.11596" lon="4.89751">
        <ele>200.20199584961</ele>
        <time>2010-02-26T15:03:43Z</time>
      </trkpt>
      <trkpt lat="45.11634" lon="4.89741">
        <ele>200.68699645996</ele>
        <time>2010-02-26T15:03:50Z</time>
      </trkpt>
      <trkpt lat="45.1167" lon="4.89717">
        <ele>201.36799621582</ele>
        <time>2010-02-26T15:03:57Z</time>
      </trkpt>
      <trkpt lat="45.11724" lon="4.89673">
        <ele>201.98300170898</ele>
        <time>2010-02-26T15:04:08Z</time>
      </trkpt>
      <trkpt lat="45.11781" lon="4.89625">
        <ele>203.17199707031</ele>
        <time>2010-02-26T15:04:19Z</time>
      </trkpt>
      <trkpt lat="45.11798" lon="4.89614">
        <ele>202.90600585938</ele>
        <time>2010-02-26T15:04:22Z</time>
      </trkpt>
      <trkpt lat="45.11834" lon="4.89611">
        <ele>204.16000366211</ele>
        <time>2010-02-26T15:04:28Z</time>
      </trkpt>
      <trkpt lat="45.11848" lon="4.8962">
        <ele>204.01499938965</ele>
        <time>2010-02-26T15:04:31Z</time>
      </trkpt>
      <trkpt lat="45.11872" lon="4.89639">
        <ele>204.22900390625</ele>
        <time>2010-02-26T15:04:36Z</time>
      </trkpt>
      <trkpt lat="45.11879" lon="4.89666">
        <ele>204.80599975586</ele>
        <time>2010-02-26T15:04:40Z</time>
      </trkpt>
      <trkpt lat="45.1188" lon="4.89717">
        <ele>204.45899963379</ele>
        <time>2010-02-26T15:04:47Z</time>
      </trkpt>
      <trkpt lat="45.11882" lon="4.8977">
        <ele>203.7859954834</ele>
        <time>2010-02-26T15:04:53Z</time>
      </trkpt>
      <trkpt lat="45.11885" lon="4.89788">
        <ele>202.95599365234</ele>
        <time>2010-02-26T15:04:55Z</time>
      </trkpt>
      <trkpt lat="45.11895" lon="4.89814">
        <ele>201.73100280762</ele>
        <time>2010-02-26T15:04:58Z</time>
      </trkpt>
      <trkpt lat="45.11914" lon="4.89846">
        <ele>200.50199890137</ele>
        <time>2010-02-26T15:05:02Z</time>
      </trkpt>
      <trkpt lat="45.11935" lon="4.89895">
        <ele>199.80499267578</ele>
        <time>2010-02-26T15:05:08Z</time>
      </trkpt>
      <trkpt lat="45.1195" lon="4.89927">
        <ele>199.64399719238</ele>
        <time>2010-02-26T15:05:12Z</time>
      </trkpt>
      <trkpt lat="45.11977" lon="4.90002">
        <ele>200.16999816894</ele>
        <time>2010-02-26T15:05:21Z</time>
      </trkpt>
      <trkpt lat="45.11991" lon="4.9004">
        <ele>200.78100585938</ele>
        <time>2010-02-26T15:05:26Z</time>
      </trkpt>
      <trkpt lat="45.11993" lon="4.90047">
        <ele>200.64799499512</ele>
        <time>2010-02-26T15:05:27Z</time>
      </trkpt>
      <trkpt lat="45.12007" lon="4.90082">
        <ele>201.45899963379</ele>
        <time>2010-02-26T15:05:32Z</time>
      </trkpt>
      <trkpt lat="45.12009" lon="4.90119">
        <ele>202.2380065918</ele>
        <time>2010-02-26T15:05:37Z</time>
      </trkpt>
      <trkpt lat="45.11999" lon="4.90145">
        <ele>202.64500427246</ele>
        <time>2010-02-26T15:05:41Z</time>
      </trkpt>
      <trkpt lat="45.11995" lon="4.90151">
        <ele>202.69099426269</ele>
        <time>2010-02-26T15:05:42Z</time>
      </trkpt>
      <trkpt lat="45.11957" lon="4.90191">
        <ele>203.30000305176</ele>
        <time>2010-02-26T15:05:50Z</time>
      </trkpt>
      <trkpt lat="45.11921" lon="4.90223">
        <ele>202.96200561523</ele>
        <time>2010-02-26T15:05:57Z</time>
      </trkpt>
      <trkpt lat="45.11893" lon="4.90243">
        <ele>202.87899780273</ele>
        <time>2010-02-26T15:06:02Z</time>
      </trkpt>
      <trkpt lat="45.11846" lon="4.90278">
        <ele>203.46800231934</ele>
        <time>2010-02-26T15:06:10Z</time>
      </trkpt>
      <trkpt lat="45.11797" lon="4.9031">
        <ele>203.46499633789</ele>
        <time>2010-02-26T15:06:18Z</time>
      </trkpt>
      <trkpt lat="45.11739" lon="4.90348">
        <ele>204.44999694824</ele>
        <time>2010-02-26T15:06:27Z</time>
      </trkpt>
      <trkpt lat="45.11728" lon="4.90358">
        <ele>204.83500671387</ele>
        <time>2010-02-26T15:06:29Z</time>
      </trkpt>
      <trkpt lat="45.11714" lon="4.90388">
        <ele>205.92500305176</ele>
        <time>2010-02-26T15:06:33Z</time>
      </trkpt>
      <trkpt lat="45.11705" lon="4.90483">
        <ele>207.81199645996</ele>
        <time>2010-02-26T15:06:44Z</time>
      </trkpt>
      <trkpt lat="45.11702" lon="4.90508">
        <ele>208.08200073242</ele>
        <time>2010-02-26T15:06:47Z</time>
      </trkpt>
      <trkpt lat="45.11693" lon="4.90534">
        <ele>208.66700744629</ele>
        <time>2010-02-26T15:06:51Z</time>
      </trkpt>
      <trkpt lat="45.11692" lon="4.90543">
        <ele>208.58399963379</ele>
        <time>2010-02-26T15:06:52Z</time>
      </trkpt>
      <trkpt lat="45.11687" lon="4.90592">
        <ele>210.73199462891</ele>
        <time>2010-02-26T15:06:58Z</time>
      </trkpt>
      <trkpt lat="45.11681" lon="4.90635">
        <ele>211.62199401856</ele>
        <time>2010-02-26T15:07:04Z</time>
      </trkpt>
      <trkpt lat="45.11673" lon="4.90663">
        <ele>211.38800048828</ele>
        <time>2010-02-26T15:07:08Z</time>
      </trkpt>
      <trkpt lat="45.11648" lon="4.90721">
        <ele>210.9700012207</ele>
        <time>2010-02-26T15:07:16Z</time>
      </trkpt>
      <trkpt lat="45.11623" lon="4.90751">
        <ele>210.90899658203</ele>
        <time>2010-02-26T15:07:21Z</time>
      </trkpt>
      <trkpt lat="45.11583" lon="4.90789">
        <ele>211.05299377441</ele>
        <time>2010-02-26T15:07:28Z</time>
      </trkpt>
      <trkpt lat="45.11565" lon="4.90802">
        <ele>210.63200378418</ele>
        <time>2010-02-26T15:07:31Z</time>
      </trkpt>
      <trkpt lat="45.11523" lon="4.90821">
        <ele>210.16200256348</ele>
        <time>2010-02-26T15:07:37Z</time>
      </trkpt>
      <trkpt lat="45.11477" lon="4.90838">
        <ele>210.1130065918</ele>
        <time>2010-02-26T15:07:43Z</time>
      </trkpt>
      <trkpt lat="45.11428" lon="4.90861">
        <ele>209.34700012207</ele>
        <time>2010-02-26T15:07:49Z</time>
      </trkpt>
      <trkpt lat="45.1139" lon="4.90898">
        <ele>208.61099243164</ele>
        <time>2010-02-26T15:07:54Z</time>
      </trkpt>
      <trkpt lat="45.11335" lon="4.90952">
        <ele>207.75199890137</ele>
        <time>2010-02-26T15:08:01Z</time>
      </trkpt>
      <trkpt lat="45.11287" lon="4.90981">
        <ele>206.71200561523</ele>
        <time>2010-02-26T15:08:06Z</time>
      </trkpt>
      <trkpt lat="45.11211" lon="4.91031">
        <ele>205.14100646973</ele>
        <time>2010-02-26T15:08:14Z</time>
      </trkpt>
      <trkpt lat="45.11139" lon="4.91088">
        <ele>205.58500671387</ele>
        <time>2010-02-26T15:08:22Z</time>
      </trkpt>
      <trkpt lat="45.11082" lon="4.91125">
        <ele>204.88499450684</ele>
        <time>2010-02-26T15:08:28Z</time>
      </trkpt>
      <trkpt lat="45.10993" lon="4.91178">
        <ele>204.67300415039</ele>
        <time>2010-02-26T15:08:37Z</time>
      </trkpt>
      <trkpt lat="45.10942" lon="4.91196">
        <ele>204.68499755859</ele>
        <time>2010-02-26T15:08:42Z</time>
      </trkpt>
      <trkpt lat="45.10846" lon="4.9122">
        <ele>203.37899780273</ele>
        <time>2010-02-26T15:08:51Z</time>
      </trkpt>
      <trkpt lat="45.10806" lon="4.91231">
        <ele>203.61599731445</ele>
        <time>2010-02-26T15:08:55Z</time>
      </trkpt>
      <trkpt lat="45.10781" lon="4.91251">
        <ele>203.11199951172</ele>
        <time>2010-02-26T15:08:58Z</time>
      </trkpt>
      <trkpt lat="45.10773" lon="4.91275">
        <ele>202.38499450684</ele>
        <time>2010-02-26T15:09:00Z</time>
      </trkpt>
      <trkpt lat="45.10772" lon="4.91288">
        <ele>202.16600036621</ele>
        <time>2010-02-26T15:09:01Z</time>
      </trkpt>
      <trkpt lat="45.10772" lon="4.91385">
        <ele>201.75399780273</ele>
        <time>2010-02-26T15:09:09Z</time>
      </trkpt>
      <trkpt lat="45.10772" lon="4.91463">
        <ele>201.30799865723</ele>
        <time>2010-02-26T15:09:15Z</time>
      </trkpt>
      <trkpt lat="45.10772" lon="4.91556">
        <ele>201.70100402832</ele>
        <time>2010-02-26T15:09:22Z</time>
      </trkpt>
      <trkpt lat="45.10772" lon="4.91625">
        <ele>203.39399719238</ele>
        <time>2010-02-26T15:09:28Z</time>
      </trkpt>
      <trkpt lat="45.10771" lon="4.91666">
        <ele>204.01800537109</ele>
        <time>2010-02-26T15:09:32Z</time>
      </trkpt>
      <trkpt lat="45.10761" lon="4.91701">
        <ele>203.95799255371</ele>
        <time>2010-02-26T15:09:36Z</time>
      </trkpt>
      <trkpt lat="45.10741" lon="4.91715">
        <ele>203.91499328613</ele>
        <time>2010-02-26T15:09:39Z</time>
      </trkpt>
      <trkpt lat="45.10733" lon="4.91716">
        <ele>203.63400268555</ele>
        <time>2010-02-26T15:09:40Z</time>
      </trkpt>
      <trkpt lat="45.10669" lon="4.91724">
        <ele>200.75700378418</ele>
        <time>2010-02-26T15:09:47Z</time>
      </trkpt>
      <trkpt lat="45.10603" lon="4.91731">
        <ele>198.49499511719</ele>
        <time>2010-02-26T15:09:53Z</time>
      </trkpt>
      <trkpt lat="45.10518" lon="4.9174">
        <ele>195.65199279785</ele>
        <time>2010-02-26T15:10:00Z</time>
      </trkpt>
      <trkpt lat="45.10419" lon="4.91752">
        <ele>194.43800354004</ele>
        <time>2010-02-26T15:10:08Z</time>
      </trkpt>
      <trkpt lat="45.10339" lon="4.91761">
        <ele>194.02400207519</ele>
        <time>2010-02-26T15:10:15Z</time>
      </trkpt>
      <trkpt lat="45.1032" lon="4.91763">
        <ele>194.2859954834</ele>
        <time>2010-02-26T15:10:17Z</time>
      </trkpt>
      <trkpt lat="45.10308" lon="4.91783">
        <ele>194.22599792481</ele>
        <time>2010-02-26T15:10:20Z</time>
      </trkpt>
      <trkpt lat="45.10315" lon="4.91813">
        <ele>193.32299804688</ele>
        <time>2010-02-26T15:10:23Z</time>
      </trkpt>
      <trkpt lat="45.10317" lon="4.91824">
        <ele>192.97399902344</ele>
        <time>2010-02-26T15:10:24Z</time>
      </trkpt>
      <trkpt lat="45.10333" lon="4.91913">
        <ele>191.89999389648</ele>
        <time>2010-02-26T15:10:31Z</time>
      </trkpt>
      <trkpt lat="45.10357" lon="4.92047">
        <ele>190.01899719238</ele>
        <time>2010-02-26T15:10:41Z</time>
      </trkpt>
      <trkpt lat="45.10378" lon="4.92164">
        <ele>190.04800415039</ele>
        <time>2010-02-26T15:10:50Z</time>
      </trkpt>
      <trkpt lat="45.10395" lon="4.9226">
        <ele>190.41499328613</ele>
        <time>2010-02-26T15:10:58Z</time>
      </trkpt>
      <trkpt lat="45.10416" lon="4.92371">
        <ele>190.22799682617</ele>
        <time>2010-02-26T15:11:08Z</time>
      </trkpt>
      <trkpt lat="45.10426" lon="4.92435">
        <ele>190.87800598144</ele>
        <time>2010-02-26T15:11:14Z</time>
      </trkpt>
      <trkpt lat="45.10437" lon="4.92497">
        <ele>192.39799499512</ele>
        <time>2010-02-26T15:11:20Z</time>
      </trkpt>
      <trkpt lat="45.10454" lon="4.9259">
        <ele>194.12699890137</ele>
        <time>2010-02-26T15:11:29Z</time>
      </trkpt>
      <trkpt lat="45.10461" lon="4.92635">
        <ele>194.41400146484</ele>
        <time>2010-02-26T15:11:34Z</time>
      </trkpt>
      <trkpt lat="45.10466" lon="4.92643">
        <ele>195.81599426269</ele>
        <time>2010-02-26T15:11:37Z</time>
      </trkpt>
      <trkpt lat="45.10465" lon="4.92624">
        <ele>195.27900695801</ele>
        <time>2010-02-26T15:11:41Z</time>
      </trkpt>
      <trkpt lat="45.10477" lon="4.92611">
        <ele>194.74899291992</ele>
        <time>2010-02-26T15:11:44Z</time>
      </trkpt>
      <trkpt lat="45.10489" lon="4.9261">
        <ele>194.36999511719</ele>
        <time>2010-02-26T15:11:46Z</time>
      </trkpt>
      <trkpt lat="45.10538" lon="4.92606">
        <ele>196.08500671387</ele>
        <time>2010-02-26T15:11:53Z</time>
      </trkpt>
      <trkpt lat="45.10573" lon="4.92603">
        <ele>197.12399291992</ele>
        <time>2010-02-26T15:11:58Z</time>
      </trkpt>
      <trkpt lat="45.10627" lon="4.92603">
        <ele>197.64700317383</ele>
        <time>2010-02-26T15:12:06Z</time>
      </trkpt>
      <trkpt lat="45.10654" lon="4.92618">
        <ele>197.4880065918</ele>
        <time>2010-02-26T15:12:10Z</time>
      </trkpt>
      <trkpt lat="45.10673" lon="4.9265">
        <ele>196.95100402832</ele>
        <time>2010-02-26T15:12:14Z</time>
      </trkpt>
      <trkpt lat="45.1067" lon="4.92685">
        <ele>196.44999694824</ele>
        <time>2010-02-26T15:12:17Z</time>
      </trkpt>
      <trkpt lat="45.10674" lon="4.92705">
        <ele>196.39500427246</ele>
        <time>2010-02-26T15:12:19Z</time>
      </trkpt>
      <trkpt lat="45.1068" lon="4.92712">
        <ele>196.41400146484</ele>
        <time>2010-02-26T15:12:20Z</time>
      </trkpt>
      <trkpt lat="45.10723" lon="4.92746">
        <ele>196.92700195312</ele>
        <time>2010-02-26T15:12:26Z</time>
      </trkpt>
      <trkpt lat="45.10764" lon="4.92762">
        <ele>197.10699462891</ele>
        <time>2010-02-26T15:12:31Z</time>
      </trkpt>
      <trkpt lat="45.10771" lon="4.92761">
        <ele>197.32699584961</ele>
        <time>2010-02-26T15:12:32Z</time>
      </trkpt>
      <trkpt lat="45.10807" lon="4.92758">
        <ele>198.33999633789</ele>
        <time>2010-02-26T15:12:38Z</time>
      </trkpt>
      <trkpt lat="45.10827" lon="4.92759">
        <ele>198.91299438477</ele>
        <time>2010-02-26T15:12:44Z</time>
      </trkpt>
      <trkpt lat="45.1084" lon="4.92762">
        <ele>199.10699462891</ele>
        <time>2010-02-26T15:12:48Z</time>
      </trkpt>
      <trkpt lat="45.10851" lon="4.92768">
        <ele>199.26699829102</ele>
        <time>2010-02-26T15:12:51Z</time>
      </trkpt>
      <trkpt lat="45.10879" lon="4.92785">
        <ele>199.13800048828</ele>
        <time>2010-02-26T15:12:59Z</time>
      </trkpt>
      <trkpt lat="45.10903" lon="4.92799">
        <ele>199.92999267578</ele>
        <time>2010-02-26T15:13:05Z</time>
      </trkpt>
      <trkpt lat="45.10942" lon="4.92826">
        <ele>200.00100708008</ele>
        <time>2010-02-26T15:13:14Z</time>
      </trkpt>
      <trkpt lat="45.10975" lon="4.92857">
        <ele>200.35099792481</ele>
        <time>2010-02-26T15:13:22Z</time>
      </trkpt>
      <trkpt lat="45.10978" lon="4.92861">
        <ele>199.97700500488</ele>
        <time>2010-02-26T15:13:23Z</time>
      </trkpt>
      <trkpt lat="45.10994" lon="4.92877">
        <ele>200.38600158691</ele>
        <time>2010-02-26T15:13:27Z</time>
      </trkpt>
      <trkpt lat="45.11029" lon="4.92904">
        <ele>201.78300476074</ele>
        <time>2010-02-26T15:13:35Z</time>
      </trkpt>
      <trkpt lat="45.1106" lon="4.9292">
        <ele>202.39799499512</ele>
        <time>2010-02-26T15:13:42Z</time>
      </trkpt>
      <trkpt lat="45.11078" lon="4.92944">
        <ele>202.36000061035</ele>
        <time>2010-02-26T15:13:47Z</time>
      </trkpt>
      <trkpt lat="45.11082" lon="4.92956">
        <ele>202.69799804688</ele>
        <time>2010-02-26T15:13:49Z</time>
      </trkpt>
      <trkpt lat="45.11097" lon="4.93027">
        <ele>203.89399719238</ele>
        <time>2010-02-26T15:13:59Z</time>
      </trkpt>
      <trkpt lat="45.1111" lon="4.93093">
        <ele>203.88000488281</ele>
        <time>2010-02-26T15:14:08Z</time>
      </trkpt>
      <trkpt lat="45.11123" lon="4.93163">
        <ele>205.00500488281</ele>
        <time>2010-02-26T15:14:17Z</time>
      </trkpt>
      <trkpt lat="45.11136" lon="4.93206">
        <ele>205.45199584961</ele>
        <time>2010-02-26T15:14:23Z</time>
      </trkpt>
      <trkpt lat="45.11151" lon="4.93243">
        <ele>206.19400024414</ele>
        <time>2010-02-26T15:14:29Z</time>
      </trkpt>
      <trkpt lat="45.11175" lon="4.93295">
        <ele>208.0299987793</ele>
        <time>2010-02-26T15:14:38Z</time>
      </trkpt>
      <trkpt lat="45.11193" lon="4.93334">
        <ele>209.11099243164</ele>
        <time>2010-02-26T15:14:45Z</time>
      </trkpt>
      <trkpt lat="45.11215" lon="4.93375">
        <ele>210.90199279785</ele>
        <time>2010-02-26T15:14:53Z</time>
      </trkpt>
      <trkpt lat="45.11236" lon="4.93409">
        <ele>212.66700744629</ele>
        <time>2010-02-26T15:15:00Z</time>
      </trkpt>
      <trkpt lat="45.11258" lon="4.93441">
        <ele>214.48599243164</ele>
        <time>2010-02-26T15:15:07Z</time>
      </trkpt>
      <trkpt lat="45.11295" lon="4.93493">
        <ele>218.05700683594</ele>
        <time>2010-02-26T15:15:19Z</time>
      </trkpt>
      <trkpt lat="45.11315" lon="4.93527">
        <ele>219.57400512695</ele>
        <time>2010-02-26T15:15:26Z</time>
      </trkpt>
      <trkpt lat="45.11337" lon="4.93568">
        <ele>222.16499328613</ele>
        <time>2010-02-26T15:15:34Z</time>
      </trkpt>
      <trkpt lat="45.11357" lon="4.93618">
        <ele>223.68699645996</ele>
        <time>2010-02-26T15:15:43Z</time>
      </trkpt>
      <trkpt lat="45.11381" lon="4.93686">
        <ele>225.50700378418</ele>
        <time>2010-02-26T15:15:54Z</time>
      </trkpt>
      <trkpt lat="45.114" lon="4.93743">
        <ele>225.16400146484</ele>
        <time>2010-02-26T15:16:02Z</time>
      </trkpt>
      <trkpt lat="45.1142" lon="4.938">
        <ele>223.27000427246</ele>
        <time>2010-02-26T15:16:09Z</time>
      </trkpt>
      <trkpt lat="45.11442" lon="4.93845">
        <ele>221.03500366211</ele>
        <time>2010-02-26T15:16:14Z</time>
      </trkpt>
      <trkpt lat="45.11478" lon="4.93898">
        <ele>217.2440032959</ele>
        <time>2010-02-26T15:16:20Z</time>
      </trkpt>
      <trkpt lat="45.11517" lon="4.9394">
        <ele>216.58299255371</ele>
        <time>2010-02-26T15:16:26Z</time>
      </trkpt>
      <trkpt lat="45.11535" lon="4.93958">
        <ele>215.84800720215</ele>
        <time>2010-02-26T15:16:29Z</time>
      </trkpt>
      <trkpt lat="45.11574" lon="4.93987">
        <ele>215.71699523926</ele>
        <time>2010-02-26T15:16:35Z</time>
      </trkpt>
      <trkpt lat="45.11617" lon="4.94">
        <ele>216.07200622559</ele>
        <time>2010-02-26T15:16:41Z</time>
      </trkpt>
      <trkpt lat="45.11671" lon="4.94009">
        <ele>216.34399414062</ele>
        <time>2010-02-26T15:16:49Z</time>
      </trkpt>
      <trkpt lat="45.11738" lon="4.9402">
        <ele>217.21899414062</ele>
        <time>2010-02-26T15:16:59Z</time>
      </trkpt>
      <trkpt lat="45.11789" lon="4.94029">
        <ele>217.52499389648</ele>
        <time>2010-02-26T15:17:07Z</time>
      </trkpt>
      <trkpt lat="45.11804" lon="4.94032">
        <ele>218.46000671387</ele>
        <time>2010-02-26T15:17:10Z</time>
      </trkpt>
      <trkpt lat="45.11815" lon="4.94043">
        <ele>218.43600463867</ele>
        <time>2010-02-26T15:17:14Z</time>
      </trkpt>
      <trkpt lat="45.11818" lon="4.94055">
        <ele>218.1130065918</ele>
        <time>2010-02-26T15:17:17Z</time>
      </trkpt>
      <trkpt lat="45.11811" lon="4.94097">
        <ele>218.22300720215</ele>
        <time>2010-02-26T15:17:23Z</time>
      </trkpt>
      <trkpt lat="45.11797" lon="4.94158">
        <ele>218.50900268555</ele>
        <time>2010-02-26T15:17:31Z</time>
      </trkpt>
      <trkpt lat="45.11792" lon="4.94173">
        <ele>218.02900695801</ele>
        <time>2010-02-26T15:17:33Z</time>
      </trkpt>
      <trkpt lat="45.11788" lon="4.94232">
        <ele>217.31199645996</ele>
        <time>2010-02-26T15:17:40Z</time>
      </trkpt>
      <trkpt lat="45.11785" lon="4.9431">
        <ele>216.97300720215</ele>
        <time>2010-02-26T15:17:49Z</time>
      </trkpt>
      <trkpt lat="45.11784" lon="4.94318">
        <ele>217.01100158691</ele>
        <time>2010-02-26T15:17:50Z</time>
      </trkpt>
      <trkpt lat="45.11771" lon="4.94357">
        <ele>216.89199829102</ele>
        <time>2010-02-26T15:17:55Z</time>
      </trkpt>
      <trkpt lat="45.11764" lon="4.94371">
        <ele>217.07899475098</ele>
        <time>2010-02-26T15:17:57Z</time>
      </trkpt>
      <trkpt lat="45.11733" lon="4.94411">
        <ele>218.3450012207</ele>
        <time>2010-02-26T15:18:04Z</time>
      </trkpt>
      <trkpt lat="45.11724" lon="4.94419">
        <ele>218.95799255371</ele>
        <time>2010-02-26T15:18:06Z</time>
      </trkpt>
      <trkpt lat="45.11708" lon="4.94427">
        <ele>219.79200744629</ele>
        <time>2010-02-26T15:18:09Z</time>
      </trkpt>
      <trkpt lat="45.11694" lon="4.94429">
        <ele>220.54699707031</ele>
        <time>2010-02-26T15:18:12Z</time>
      </trkpt>
      <trkpt lat="45.1168" lon="4.94431">
        <ele>221.69999694824</ele>
        <time>2010-02-26T15:18:15Z</time>
      </trkpt>
      <trkpt lat="45.11659" lon="4.9444">
        <ele>223.28199768066</ele>
        <time>2010-02-26T15:18:20Z</time>
      </trkpt>
      <trkpt lat="45.1165" lon="4.94445">
        <ele>223.88999938965</ele>
        <time>2010-02-26T15:18:22Z</time>
      </trkpt>
      <trkpt lat="45.11634" lon="4.94452">
        <ele>224.79499816894</ele>
        <time>2010-02-26T15:18:26Z</time>
      </trkpt>
      <trkpt lat="45.11625" lon="4.94456">
        <ele>225.50500488281</ele>
        <time>2010-02-26T15:18:28Z</time>
      </trkpt>
      <trkpt lat="45.11618" lon="4.94462">
        <ele>226.31300354004</ele>
        <time>2010-02-26T15:18:30Z</time>
      </trkpt>
      <trkpt lat="45.11607" lon="4.94472">
        <ele>227.10400390625</ele>
        <time>2010-02-26T15:18:33Z</time>
      </trkpt>
      <trkpt lat="45.11592" lon="4.94491">
        <ele>228.81399536133</ele>
        <time>2010-02-26T15:18:38Z</time>
      </trkpt>
      <trkpt lat="45.1157" lon="4.94521">
        <ele>230.54800415039</ele>
        <time>2010-02-26T15:18:45Z</time>
      </trkpt>
      <trkpt lat="45.11561" lon="4.9455">
        <ele>231.82299804688</ele>
        <time>2010-02-26T15:18:50Z</time>
      </trkpt>
      <trkpt lat="45.11559" lon="4.94593">
        <ele>232.42100524902</ele>
        <time>2010-02-26T15:18:56Z</time>
      </trkpt>
      <trkpt lat="45.11558" lon="4.94656">
        <ele>233.04600524902</ele>
        <time>2010-02-26T15:19:04Z</time>
      </trkpt>
      <trkpt lat="45.11557" lon="4.94733">
        <ele>234.17900085449</ele>
        <time>2010-02-26T15:19:13Z</time>
      </trkpt>
      <trkpt lat="45.11565" lon="4.94802">
        <ele>235.26899719238</ele>
        <time>2010-02-26T15:19:21Z</time>
      </trkpt>
      <trkpt lat="45.11575" lon="4.94866">
        <ele>237.00100708008</ele>
        <time>2010-02-26T15:19:29Z</time>
      </trkpt>
      <trkpt lat="45.11589" lon="4.94928">
        <ele>237.87600708008</ele>
        <time>2010-02-26T15:19:37Z</time>
      </trkpt>
      <trkpt lat="45.11605" lon="4.94976">
        <ele>237.42199707031</ele>
        <time>2010-02-26T15:19:43Z</time>
      </trkpt>
      <trkpt lat="45.11628" lon="4.95026">
        <ele>236.83399963379</ele>
        <time>2010-02-26T15:19:49Z</time>
      </trkpt>
      <trkpt lat="45.11657" lon="4.95089">
        <ele>235.76899719238</ele>
        <time>2010-02-26T15:19:56Z</time>
      </trkpt>
      <trkpt lat="45.11668" lon="4.95119">
        <ele>235.10600280762</ele>
        <time>2010-02-26T15:19:59Z</time>
      </trkpt>
      <trkpt lat="45.1169" lon="4.95205">
        <ele>233.69099426269</ele>
        <time>2010-02-26T15:20:07Z</time>
      </trkpt>
      <trkpt lat="45.11708" lon="4.95255">
        <ele>232.66900634766</ele>
        <time>2010-02-26T15:20:12Z</time>
      </trkpt>
      <trkpt lat="45.11716" lon="4.95275">
        <ele>231.46600341797</ele>
        <time>2010-02-26T15:20:14Z</time>
      </trkpt>
      <trkpt lat="45.11724" lon="4.95321">
        <ele>229.15699768066</ele>
        <time>2010-02-26T15:20:18Z</time>
      </trkpt>
      <trkpt lat="45.11723" lon="4.95334">
        <ele>228.17700195312</ele>
        <time>2010-02-26T15:20:19Z</time>
      </trkpt>
      <trkpt lat="45.11724" lon="4.95406">
        <ele>224.53999328613</ele>
        <time>2010-02-26T15:20:24Z</time>
      </trkpt>
      <trkpt lat="45.11745" lon="4.95422">
        <ele>221.71899414062</ele>
        <time>2010-02-26T15:20:26Z</time>
      </trkpt>
      <trkpt lat="45.11769" lon="4.95429">
        <ele>219.55299377441</ele>
        <time>2010-02-26T15:20:28Z</time>
      </trkpt>
      <trkpt lat="45.11805" lon="4.95439">
        <ele>217.01699829102</ele>
        <time>2010-02-26T15:20:31Z</time>
      </trkpt>
      <trkpt lat="45.11828" lon="4.95464">
        <ele>215.60099792481</ele>
        <time>2010-02-26T15:20:34Z</time>
      </trkpt>
      <trkpt lat="45.11831" lon="4.95493">
        <ele>214.95399475098</ele>
        <time>2010-02-26T15:20:36Z</time>
      </trkpt>
      <trkpt lat="45.11819" lon="4.95526">
        <ele>216.57299804688</ele>
        <time>2010-02-26T15:20:39Z</time>
      </trkpt>
      <trkpt lat="45.11799" lon="4.95553">
        <ele>219</ele>
        <time>2010-02-26T15:20:43Z</time>
      </trkpt>
      <trkpt lat="45.11798" lon="4.95578">
        <ele>221.11199951172</ele>
        <time>2010-02-26T15:20:46Z</time>
      </trkpt>
      <trkpt lat="45.11801" lon="4.95594">
        <ele>222.04299926758</ele>
        <time>2010-02-26T15:20:48Z</time>
      </trkpt>
      <trkpt lat="45.11792" lon="4.95627">
        <ele>224.0359954834</ele>
        <time>2010-02-26T15:20:53Z</time>
      </trkpt>
      <trkpt lat="45.11786" lon="4.95629">
        <ele>224.73399353027</ele>
        <time>2010-02-26T15:20:54Z</time>
      </trkpt>
      <trkpt lat="45.11766" lon="4.95633">
        <ele>226.09899902344</ele>
        <time>2010-02-26T15:20:57Z</time>
      </trkpt>
      <trkpt lat="45.11754" lon="4.95643">
        <ele>227.70300292969</ele>
        <time>2010-02-26T15:20:59Z</time>
      </trkpt>
      <trkpt lat="45.11747" lon="4.95661">
        <ele>228.82499694824</ele>
        <time>2010-02-26T15:21:01Z</time>
      </trkpt>
      <trkpt lat="45.11745" lon="4.95672">
        <ele>229.32000732422</ele>
        <time>2010-02-26T15:21:02Z</time>
      </trkpt>
      <trkpt lat="45.11745" lon="4.95717">
        <ele>232.33999633789</ele>
        <time>2010-02-26T15:21:06Z</time>
      </trkpt>
      <trkpt lat="45.11745" lon="4.95728">
        <ele>232.92900085449</ele>
        <time>2010-02-26T15:21:07Z</time>
      </trkpt>
      <trkpt lat="45.11744" lon="4.95756">
        <ele>234.72900390625</ele>
        <time>2010-02-26T15:21:10Z</time>
      </trkpt>
      <trkpt lat="45.11744" lon="4.95763">
        <ele>234.98300170898</ele>
        <time>2010-02-26T15:21:11Z</time>
      </trkpt>
      <trkpt lat="45.11745" lon="4.95781">
        <ele>235.83399963379</ele>
        <time>2010-02-26T15:21:14Z</time>
      </trkpt>
      <trkpt lat="45.1175" lon="4.95812">
        <ele>235.66200256348</ele>
        <time>2010-02-26T15:21:20Z</time>
      </trkpt>
      <trkpt lat="45.11756" lon="4.95842">
        <ele>235.1609954834</ele>
        <time>2010-02-26T15:21:25Z</time>
      </trkpt>
      <trkpt lat="45.11769" lon="4.95897">
        <ele>232.72200012207</ele>
        <time>2010-02-26T15:21:32Z</time>
      </trkpt>
      <trkpt lat="45.11771" lon="4.95906">
        <ele>232.50300598144</ele>
        <time>2010-02-26T15:21:33Z</time>
      </trkpt>
      <trkpt lat="45.11784" lon="4.95977">
        <ele>229.31900024414</ele>
        <time>2010-02-26T15:21:40Z</time>
      </trkpt>
      <trkpt lat="45.11797" lon="4.96056">
        <ele>225.20199584961</ele>
        <time>2010-02-26T15:21:47Z</time>
      </trkpt>
      <trkpt lat="45.11799" lon="4.96068">
        <ele>225.00399780273</ele>
        <time>2010-02-26T15:21:48Z</time>
      </trkpt>
      <trkpt lat="45.11803" lon="4.96094">
        <ele>223.54100036621</ele>
        <time>2010-02-26T15:21:50Z</time>
      </trkpt>
      <trkpt lat="45.11808" lon="4.96181">
        <ele>218.96000671387</ele>
        <time>2010-02-26T15:21:56Z</time>
      </trkpt>
      <trkpt lat="45.11814" lon="4.96245">
        <ele>215.46899414062</ele>
        <time>2010-02-26T15:22:00Z</time>
      </trkpt>
      <trkpt lat="45.11817" lon="4.96261">
        <ele>214.27600097656</ele>
        <time>2010-02-26T15:22:01Z</time>
      </trkpt>
      <trkpt lat="45.11835" lon="4.96325">
        <ele>211.69200134277</ele>
        <time>2010-02-26T15:22:05Z</time>
      </trkpt>
      <trkpt lat="45.11836" lon="4.96341">
        <ele>211.2619934082</ele>
        <time>2010-02-26T15:22:06Z</time>
      </trkpt>
      <trkpt lat="45.11839" lon="4.96376">
        <ele>208.93899536133</ele>
        <time>2010-02-26T15:22:08Z</time>
      </trkpt>
      <trkpt lat="45.11852" lon="4.96425">
        <ele>206.88900756836</ele>
        <time>2010-02-26T15:22:11Z</time>
      </trkpt>
      <trkpt lat="45.1186" lon="4.96439">
        <ele>206.81599426269</ele>
        <time>2010-02-26T15:22:12Z</time>
      </trkpt>
      <trkpt lat="45.11875" lon="4.96466">
        <ele>205.29299926758</ele>
        <time>2010-02-26T15:22:14Z</time>
      </trkpt>
      <trkpt lat="45.11884" lon="4.96498">
        <ele>204.12100219727</ele>
        <time>2010-02-26T15:22:16Z</time>
      </trkpt>
      <trkpt lat="45.11879" lon="4.96547">
        <ele>203.98599243164</ele>
        <time>2010-02-26T15:22:19Z</time>
      </trkpt>
      <trkpt lat="45.11868" lon="4.96602">
        <ele>203.93699645996</ele>
        <time>2010-02-26T15:22:23Z</time>
      </trkpt>
      <trkpt lat="45.11851" lon="4.96663">
        <ele>203.27499389648</ele>
        <time>2010-02-26T15:22:28Z</time>
      </trkpt>
      <trkpt lat="45.11822" lon="4.96734">
        <ele>201.27600097656</ele>
        <time>2010-02-26T15:22:34Z</time>
      </trkpt>
      <trkpt lat="45.11809" lon="4.96756">
        <ele>200.87600708008</ele>
        <time>2010-02-26T15:22:36Z</time>
      </trkpt>
      <trkpt lat="45.11774" lon="4.96782">
        <ele>200.45300292969</ele>
        <time>2010-02-26T15:22:40Z</time>
      </trkpt>
      <trkpt lat="45.11752" lon="4.96802">
        <ele>200.39500427246</ele>
        <time>2010-02-26T15:22:44Z</time>
      </trkpt>
      <trkpt lat="45.1174" lon="4.96828">
        <ele>200.01899719238</ele>
        <time>2010-02-26T15:22:48Z</time>
      </trkpt>
      <trkpt lat="45.11731" lon="4.96822">
        <ele>199.98899841309</ele>
        <time>2010-02-26T15:22:50Z</time>
      </trkpt>
      <trkpt lat="45.11726" lon="4.96817">
        <ele>199.93400573731</ele>
        <time>2010-02-26T15:22:51Z</time>
      </trkpt>
      <trkpt lat="45.11717" lon="4.96805">
        <ele>199.51600646973</ele>
        <time>2010-02-26T15:22:53Z</time>
      </trkpt>
      <trkpt lat="45.1168" lon="4.96744">
        <ele>199.10099792481</ele>
        <time>2010-02-26T15:23:01Z</time>
      </trkpt>
      <trkpt lat="45.11652" lon="4.96683">
        <ele>198.45199584961</ele>
        <time>2010-02-26T15:23:08Z</time>
      </trkpt>
      <trkpt lat="45.11618" lon="4.96594">
        <ele>198.27000427246</ele>
        <time>2010-02-26T15:23:18Z</time>
      </trkpt>
      <trkpt lat="45.11592" lon="4.96528">
        <ele>198.19599914551</ele>
        <time>2010-02-26T15:23:26Z</time>
      </trkpt>
      <trkpt lat="45.11582" lon="4.965">
        <ele>198.47900390625</ele>
        <time>2010-02-26T15:23:30Z</time>
      </trkpt>
      <trkpt lat="45.11581" lon="4.96469">
        <ele>198.49699401856</ele>
        <time>2010-02-26T15:23:35Z</time>
      </trkpt>
      <trkpt lat="45.11582" lon="4.96459">
        <ele>199.18699645996</ele>
        <time>2010-02-26T15:23:37Z</time>
      </trkpt>
      <trkpt lat="45.11576" lon="4.96448">
        <ele>199.52699279785</ele>
        <time>2010-02-26T15:23:41Z</time>
      </trkpt>
      <trkpt lat="45.11575" lon="4.96447">
        <ele>199.54100036621</ele>
        <time>2010-02-26T15:23:42Z</time>
      </trkpt>
      <trkpt lat="45.11574" lon="4.96444">
        <ele>199.21600341797</ele>
        <time>2010-02-26T15:23:47Z</time>
      </trkpt>
      <trkpt lat="45.11575" lon="4.96442">
        <ele>199.58099365234</ele>
        <time>2010-02-26T15:23:49Z</time>
      </trkpt>
      <trkpt lat="45.11575" lon="4.96438">
        <ele>199.25199890137</ele>
        <time>2010-02-26T15:23:52Z</time>
      </trkpt>
      <trkpt lat="45.11571" lon="4.96436">
        <ele>199.50500488281</ele>
        <time>2010-02-26T15:23:59Z</time>
      </trkpt>
      <trkpt lat="45.11571" lon="4.96434">
        <ele>199.59899902344</ele>
        <time>2010-02-26T15:24:03Z</time>
      </trkpt>
      <trkpt lat="45.11569" lon="4.96432">
        <ele>200.17399597168</ele>
        <time>2010-02-26T15:24:08Z</time>
      </trkpt>
      <trkpt lat="45.1157" lon="4.96433">
        <ele>200.35499572754</ele>
        <time>2010-02-26T15:24:10Z</time>
      </trkpt>
      <trkpt lat="45.11571" lon="4.96432">
        <ele>199.91799926758</ele>
        <time>2010-02-26T15:24:18Z</time>
      </trkpt>
      <trkpt lat="45.11572" lon="4.96431">
        <ele>199.91499328613</ele>
        <time>2010-02-26T15:24:21Z</time>
      </trkpt>
      <trkpt lat="45.11572" lon="4.96431">
        <ele>199.98699951172</ele>
        <time>2010-02-26T15:24:22Z</time>
      </trkpt>
      <trkpt lat="45.11573" lon="4.96431">
        <ele>200.39199829102</ele>
        <time>2010-02-26T15:24:23Z</time>
      </trkpt>
      <trkpt lat="45.11573" lon="4.9643">
        <ele>200.53300476074</ele>
        <time>2010-02-26T15:24:24Z</time>
      </trkpt>
    </trkseg>
  </trk>
</gpx>